[[{"header":{"parameterUnit":"m.s-1","parameterCategory":1,"la1":30.6,"la2":29.2853,"lo1":-89.7004,"lo2":-87.6739,"dy":0.0162,"dx":0.0183,"nx":112,"ny":82,"refTime":"2023-07-29T12:00:00:Z","depth":0,"parameterNumber":2,"parameterNumberName":"U-component_of_WINDS"},"data":[0.0,0.0,0.0,0.0,0.0,0.0,0.0,0.0,0.0,0.0,0.0,0.0,0.0,0.0,0.0,0.0,0.0,0.0,0.0,0.0,0.0,0.0,0.0,0.0,0.0,0.0,0.0,0.0,0.0,0.0,0.0,0.0,0.0,0.0,0.0,0.0,0.0,0.0,0.0,0.0,0.0,0.0,0.0,0.0,0.0,0.0,0.0,0.0,0.0,0.0,0.0,0.0,0.0,0.0,0.0,0.0,0.0,0.0,0.0,0.0,0.0,0.0,0.0,0.0,0.0,0.0,0.0,0.0,0.0,0.0,0.0,0.0,0.0,0.0,0.0,0.0,0.0,0.0,0.0,0.0,0.0,0.0,0.0,0.0,0.0,0.0,0.0,0.0,0.0,0.0,0.0411,-0.5242,-1.0139,-1.3301,-1.4235,-1.3902,-1.2863,-1.0986,0.0,0.0,0.0,0.0,0.0,0.0,0.0,0.0,0.0,0.0,0.0,0.0,0.0,0.0,0.0,0.0,0.0,0.0,0.0,0.0,0.0,0.0,0.0,0.0,0.0,0.0,0.0,0.0,0.0,0.0,0.0,0.0,0.0,0.0,0.0,0.0,0.0,0.0,0.0,0.0,0.0,0.0,0.0,0.0,0.0,0.0,0.0,0.0,0.0,0.0,0.0,0.0,0.0,0.0,0.0,0.0,0.0,0.0,0.0,0.0,0.0,0.0,0.0,0.0,0.0,0.0,0.0,0.0,0.0,0.0,0.0,0.0,0.0,0.0,0.0,0.0,0.0,0.0,0.0,0.0,0.0,0.0,0.0,0.0,0.0,0.0,0.0,0.0,0.0,0.0,0.0,0.0,0.0,0.0,0.0,0.0,0.0,0.0,0.0,0.0,0.0,0.0,0.0,0.0,-0.4351,-1.0027,-1.2273,-1.3811,-1.5039,-1.4304,-1.3299,-1.2193,0.0,0.0,0.0,0.0,0.0,0.0,0.0,0.0,0.0,0.0,0.0,0.0,0.0,0.0,0.0,0.0,0.0,0.0,0.0,0.0,0.0,0.0,0.0,0.0,0.0,0.0,0.0,0.0,0.0,0.0,0.0,0.0,0.0,0.0,0.0,0.0,0.0,0.0,0.0,0.0,0.0,0.0,0.0,0.0,0.0,0.0,0.0,0.0,0.0,0.0,0.0,0.0,0.0,0.0,0.0,0.0,0.0,0.0,0.0,0.0,0.0,0.0,0.0,0.0,0.0,0.0,0.0,0.0,0.0,0.0,0.0,0.0,0.0,0.0,0.0,0.0,0.0,0.0,0.0,0.0,0.0,0.0,0.0,0.0,0.0,0.0,0.0,0.0,0.0,0.0,0.0,0.0,0.0,0.0,0.0,0.0,0.0,0.0,0.0,0.0,0.0,0.0,0.0,-0.6616,-0.9311,-1.2029,-1.3405,-1.4196,-1.4456,-1.4273,-1.3567,-1.2186,-1.0305,0.0,0.0,0.0,0.0,0.0,0.0,0.0,0.0,0.0,0.0,0.0,0.0,0.0,0.0,0.0,0.0,0.0,0.0,0.0,0.0,0.0,0.0,0.0,0.0,0.0,0.0,0.0,0.0,0.0,0.0,0.0,0.0,0.0,0.0,0.0,0.0,0.0,0.0,0.0,0.0,0.0,0.0,0.0,0.0,0.0,0.0,0.0,0.0,0.0,0.0,0.0,0.0,0.0,0.0,0.0,0.0,0.0,0.0,0.0,0.0,0.0,0.0,0.0,0.0,0.0,0.0,0.0,0.0,0.0,0.0,0.0,0.0,0.0,0.0,0.0,0.0,0.0,0.0,0.0,0.0,0.0,0.0,0.0,0.0,0.0,0.0,0.0,0.0,0.0,0.0,0.0,0.0,0.0,0.0,0.0,0.0,0.0,0.0,0.0,0.0,0.0,0.0,-1.1847,-1.299,-1.3412,-1.4343,-1.4744,-1.4272,-1.4371,-1.3775,-1.212,-1.1088,0.0,0.0,0.0,0.0,0.0,0.0,0.0,0.0,0.0,0.0,0.0,0.0,0.0,0.0,0.0,0.0,0.0,0.0,0.0,0.0,0.0,0.0,0.0,0.0,0.0,0.0,0.0,0.0,0.0,0.0,0.0,0.0,0.0,0.0,0.0,0.0,0.0,0.0,0.0,0.0,0.0,0.0,0.0,0.0,0.0,0.0,0.0,0.0,0.0,0.0,0.0,0.0,0.0,0.0,0.0,0.0,0.0,0.0,0.0,0.0,0.0,0.0,0.0,0.0,0.0,0.0,0.0,0.0,0.0,0.0,0.0,0.0,0.0,0.0,0.0,0.0,0.0,0.0,0.0,0.0,0.0,0.0,0.0,0.0,0.0,0.0,0.0,0.0,0.0,0.0,0.0,0.0,0.0,0.0,0.0,0.0,0.0,0.0,0.0,0.0,0.0,0.0,-1.3104,-1.4068,-1.5297,-1.5487,-1.5543,-1.5499,-1.4994,-1.4107,-1.2822,-1.1525,0.0,0.0,0.0,0.0,0.0,0.0,0.0,0.0,0.0,0.0,0.0,0.0,0.0,0.0,0.0,0.0,0.0,0.0,0.0,0.0,0.0,0.0,0.0,0.0,0.0,0.0,0.0,0.0,0.0,0.0,0.0,0.0,0.0,0.0,0.0,0.0,0.0,0.0,0.0,0.0,0.0,0.0,0.0,0.0,0.0,0.0,0.0,0.0,0.0,0.0,0.0,0.0,0.0,0.0,0.0,0.0,0.0,0.0,0.0,0.0,0.0,0.0,0.0,0.0,0.0,0.0,0.0,0.0,0.0,0.0,0.0,0.0,0.0,0.0,0.0,0.0,0.0,0.0,0.0,0.0,0.0,0.0,0.0,0.0,0.0,0.0,0.0,0.0,0.0,0.0,0.0,0.0,0.0,0.0,0.0,0.0,0.0,0.0,0.0,0.0,0.0,0.0,-1.4482,-1.5061,-1.5531,-1.5964,-1.5876,-1.5096,-1.4835,-1.419,-1.2929,0.0,0.0,0.0,0.0,0.0,0.0,0.0,0.0,0.0,0.0,0.0,0.0,0.0,0.0,0.0,0.0,0.0,0.0,0.0,0.0,0.0,0.0,0.0,0.0,0.0,0.0,0.0,0.0,0.0,0.0,0.0,0.0,0.0,0.0,0.0,0.0,0.0,0.0,0.0,0.0,0.0,0.0,0.0,0.0,0.0,0.0,0.0,0.0,0.0,0.0,0.0,0.0,0.0,0.0,0.0,0.0,0.0,0.0,0.0,0.0,0.0,0.0,0.0,0.0,0.0,0.0,0.0,0.0,0.0,0.0,0.0,0.0,0.0,0.0,0.0,0.0,0.0,0.0,0.0,0.0,0.0,0.0,0.0,0.0,0.0,0.0,0.0,0.0,0.0,0.0,0.0,0.0,0.0,0.0,0.0,0.0,0.0,0.0,0.0,0.0,0.0,0.0,-1.4915,-1.5186,-1.5365,-1.5588,-1.5952,-1.5788,-1.4801,-1.4698,-1.4201,-1.2968,0.0,0.0,0.0,0.0,0.0,0.0,0.0,0.0,0.0,0.0,0.0,0.0,0.0,0.0,0.0,0.0,0.0,0.0,0.0,0.0,0.0,0.0,0.0,0.0,0.0,0.0,0.0,0.0,0.0,0.0,0.0,0.0,0.0,0.0,0.0,0.0,0.0,0.0,0.0,0.0,0.0,0.0,0.0,0.0,0.0,0.0,0.0,0.0,0.0,0.0,0.0,0.0,0.0,0.0,0.0,0.0,0.0,0.0,0.0,0.0,0.0,0.0,0.0,0.0,0.0,0.0,0.0,0.0,0.0,0.0,0.0,0.0,0.0,0.0,0.0,0.0,0.0,0.0,0.0,0.0,0.0,0.0,0.0,0.0,0.0,0.0,0.0,0.0,0.0,0.0,0.0,0.0,0.0,0.0,0.0,0.0,0.0,0.0,0.0,0.0,0.0,0.0,-1.5543,-1.5062,-1.4926,-1.5543,-1.5588,-1.5365,-1.4744,-1.4709,-1.4165,0.0,0.0,0.0,0.0,0.0,0.0,0.0,0.0,0.0,0.0,0.0,0.0,0.0,0.0,0.0,0.0,0.0,0.0,0.0,0.0,0.0,0.0,0.0,0.0,0.0,0.0,0.0,0.0,0.0,0.0,0.0,0.0,0.0,0.0,0.0,0.0,0.0,0.0,0.0,0.0,0.0,0.0,0.0,0.0,0.0,0.0,0.0,0.0,0.0,0.0,0.0,0.0,0.0,0.0,0.0,0.0,0.0,0.0,0.0,0.0,0.0,0.0,0.0,0.0,0.0,0.0,0.0,0.0,0.0,0.0,0.0,0.0,0.0,0.0,0.0,0.0,0.0,0.0,0.0,0.0,0.0,0.0,0.0,0.0,0.0,0.0,0.0,0.0,0.0,0.0,0.0,0.0,0.0,0.0,0.0,0.0,0.0,0.0,0.0,0.0,0.0,0.0,0.0,-1.6051,-1.5332,-1.4926,-1.5543,-1.5588,-1.5174,-1.4143,-1.405,-1.3732,-1.2978,0.0,0.0,0.0,0.0,0.0,0.0,0.0,0.0,0.0,0.0,0.0,0.0,0.0,0.0,0.0,0.0,0.0,0.0,0.0,0.0,0.0,0.0,0.0,0.0,0.0,0.0,0.0,0.0,0.0,0.0,0.0,0.0,0.0,0.0,0.0,0.0,0.0,0.0,0.0,0.0,0.0,0.0,0.0,0.0,0.0,0.0,0.0,0.0,0.0,0.0,0.0,0.0,0.0,0.0,0.0,0.0,0.0,0.0,0.0,0.0,0.0,0.0,0.0,0.0,0.0,0.0,0.0,0.0,0.0,0.0,0.0,0.0,0.0,0.0,0.0,0.0,0.0,0.0,0.0,0.0,0.0,0.0,0.0,0.0,0.0,0.0,0.0,0.0,0.0,0.0,0.0,0.0,0.0,0.0,0.0,0.0,0.0,0.0,0.0,0.0,0.0,0.0,-1.63,-1.5415,-1.4835,-1.5186,-1.5231,-1.4869,-1.3862,-1.3815,-1.3552,-1.2929,0.0,0.0,0.0,0.0,0.0,0.0,0.0,0.0,0.0,0.0,0.0,0.0,0.0,0.0,0.0,0.0,0.0,0.0,0.0,0.0,0.0,0.0,0.0,0.0,0.0,0.0,0.0,0.0,0.0,0.0,0.0,0.0,0.0,0.0,0.0,0.0,0.0,0.0,0.0,0.0,0.0,0.0,0.0,0.0,0.0,0.0,0.0,0.0,0.0,0.0,0.0,0.0,0.0,0.0,0.0,0.0,0.0,0.0,0.0,0.0,0.0,0.0,0.0,0.0,0.0,0.0,0.0,0.0,0.0,0.0,0.0,0.0,0.0,0.0,0.0,0.0,0.0,0.0,0.0,0.0,0.0,0.0,0.0,0.0,0.0,0.0,0.0,0.0,0.0,0.0,0.0,0.0,0.0,0.0,0.0,0.0,0.0,0.0,0.0,0.0,0.0,0.0,-1.6419,-1.5487,-1.4776,-1.4673,-1.464,-1.4376,-1.3779,-1.3732,-1.3457,-1.2822,0.0,0.0,0.0,0.0,0.0,0.0,0.0,0.0,0.0,0.0,0.0,0.0,0.0,0.0,0.0,0.0,0.0,0.0,0.0,0.0,0.0,0.0,0.0,0.0,0.0,0.0,0.0,0.0,0.0,0.0,0.0,0.0,0.0,0.0,0.0,0.0,0.0,0.0,0.0,0.0,0.0,0.0,0.0,0.0,0.0,0.0,0.0,0.0,0.0,0.0,0.0,0.0,0.0,0.0,0.0,0.0,0.0,0.0,0.0,0.0,-3.1059,-3.0771,0.0,0.0,0.0,0.0,0.0,0.0,0.0,0.0,0.0,0.0,0.0,0.0,0.0,0.0,0.0,0.0,0.0,0.0,0.0,0.0,0.0,0.0,0.0,0.0,0.0,0.0,0.0,0.0,0.0,0.0,0.0,0.0,0.0,0.0,0.0,0.0,0.0,0.0,0.0,0.0,-1.693,-1.6005,-1.5137,-1.4548,-1.4169,-1.3742,-1.3152,-1.3104,-1.2793,-1.208,-1.1366,0.0,0.0,0.0,0.0,0.0,0.0,0.0,0.0,0.0,0.0,0.0,0.0,0.0,0.0,0.0,0.0,0.0,0.0,0.0,0.0,0.0,0.0,0.0,0.0,0.0,0.0,0.0,0.0,0.0,0.0,0.0,0.0,0.0,0.0,0.0,0.0,0.0,0.0,0.0,0.0,0.0,0.0,0.0,0.0,0.0,0.0,0.0,0.0,0.0,0.0,0.0,0.0,0.0,0.0,0.0,0.0,0.0,0.0,0.0,-3.3431,-3.281,0.0,0.0,0.0,0.0,0.0,0.0,0.0,0.0,0.0,0.0,0.0,0.0,0.0,0.0,0.0,0.0,0.0,0.0,0.0,0.0,0.0,0.0,0.0,0.0,0.0,0.0,0.0,0.0,0.0,0.0,0.0,0.0,0.0,0.0,0.0,0.0,0.0,0.0,0.0,0.0,-1.7452,-1.6267,-1.5136,-1.4489,-1.4041,-1.3552,-1.2978,-1.2881,-1.2608,-1.1864,-1.1458,0.0,0.0,0.0,0.0,0.0,0.0,0.0,0.0,0.0,0.0,0.0,0.0,0.0,0.0,0.0,0.0,0.0,0.0,0.0,0.0,0.0,0.0,0.0,0.0,0.0,0.0,0.0,0.0,0.0,0.0,0.0,0.0,0.0,0.0,0.0,0.0,0.0,0.0,0.0,0.0,0.0,0.0,0.0,0.0,0.0,0.0,0.0,0.0,0.0,0.0,0.0,0.0,0.0,-3.6683,-3.704,-3.729,-3.6741,-3.6468,-3.6377,-3.5866,-3.4861,-3.3529,-3.268,0.0,0.0,0.0,0.0,0.0,0.0,0.0,0.0,0.0,0.0,0.0,0.0,0.0,0.0,0.0,0.0,0.0,0.0,0.0,0.0,0.0,0.0,-1.943,-2.0072,-1.9403,-1.877,-1.9123,0.0,0.0,0.0,0.0,0.0,0.0,0.0,0.0,0.0,0.0,0.0,-1.7664,-1.6255,-1.505,-1.4416,-1.391,-1.342,-1.2929,-1.2774,-1.2403,-1.1665,-1.1578,-1.1181,0.0,0.0,0.0,0.0,0.0,0.0,0.0,0.0,0.0,0.0,0.0,0.0,0.0,0.0,0.0,0.0,0.0,0.0,0.0,0.0,0.0,0.0,0.0,0.0,0.0,0.0,0.0,0.0,0.0,0.0,0.0,0.0,-3.4056,-3.5665,0.0,0.0,0.0,0.0,0.0,0.0,0.0,0.0,0.0,0.0,0.0,0.0,0.0,-3.6472,-3.7095,-3.679,-3.6989,-3.7649,-3.8007,-3.8272,-3.8451,-3.7766,-3.7162,-3.6775,-3.7308,0.0,-3.4214,-3.2437,0.0,0.0,0.0,0.0,0.0,0.0,0.0,0.0,0.0,0.0,0.0,0.0,0.0,0.0,0.0,0.0,0.0,0.0,0.0,0.0,0.0,0.0,-1.9878,-2.0262,-2.0268,-2.0323,-2.0991,-2.0861,-2.0388,-1.9796,-1.9197,-1.8933,0.0,0.0,0.0,0.0,0.0,0.0,-1.6935,-1.5829,-1.4945,-1.4202,-1.3491,-1.2968,-1.2929,-1.2295,-1.1674,-1.0965,-1.0648,-1.06,-1.0823,-1.0376,0.0,0.0,0.0,0.0,0.0,0.0,0.0,0.0,0.0,0.0,0.0,0.0,0.0,0.0,0.0,0.0,0.0,0.0,0.0,0.0,0.0,0.0,0.0,0.0,0.0,0.0,0.0,0.0,0.0,-3.5566,-3.5702,-3.5788,-3.5784,-3.5605,0.0,0.0,0.0,0.0,0.0,0.0,0.0,0.0,0.0,-3.7103,-3.7173,-3.7301,-3.7491,-3.7723,-3.7913,-3.8126,-3.8276,-3.831,-3.8225,-3.7917,-3.766,-3.7418,-3.775,-3.6844,-3.5115,-3.425,-3.3403,-3.236,0.0,0.0,0.0,0.0,-2.6228,-2.5821,-2.4874,-2.3984,-2.3385,-2.352,0.0,0.0,0.0,0.0,0.0,0.0,0.0,-2.0661,-2.0736,-2.088,-2.1037,-2.1186,-2.1214,-2.144,-2.225,-2.2193,-2.1793,-2.0914,-2.0324,-2.019,-2.0643,-1.9491,0.0,0.0,0.0,-1.7555,-1.6627,-1.5352,-1.4393,-1.3809,-1.3242,-1.2715,-1.2344,-1.1972,-1.1366,-1.0312,-1.028,-1.0298,-1.0229,-1.0132,-1.037,0.0,0.0,0.0,0.0,0.0,0.0,0.0,0.0,0.0,0.0,0.0,0.0,0.0,0.0,0.0,0.0,0.0,0.0,0.0,0.0,0.0,0.0,0.0,0.0,0.0,0.0,0.0,0.0,-3.5435,-3.5585,-3.5689,-3.5744,-3.5547,0.0,0.0,0.0,0.0,0.0,0.0,-3.7047,-3.7568,-3.7814,-3.7729,-3.8049,-3.8194,-3.8101,-3.8383,-3.8519,-3.8502,-3.8385,-3.8249,-3.8117,-3.7934,-3.7772,-3.7629,-3.7635,-3.6793,-3.5415,-3.5251,-3.4394,-3.3002,-3.1062,-3.0466,-3.0418,-2.8081,-2.74,-2.7427,-2.6097,-2.5152,-2.4582,-2.4633,-2.4196,-2.334,-2.1629,0.0,0.0,0.0,0.0,-2.1656,-2.1584,-2.1789,-2.2042,-2.2185,-2.1999,-2.2002,-2.2761,-2.2772,-2.2528,-2.1849,-2.1149,-2.0859,-2.1284,-1.9731,0.0,-1.9648,-1.8102,-1.6748,-1.6451,-1.5159,-1.4141,-1.3711,-1.314,-1.2525,-1.1873,-1.1466,-1.0864,-0.9865,-0.9921,-0.9917,-0.9731,-0.996,-1.0254,-1.0618,0.0,0.0,0.0,0.0,0.0,0.0,0.0,0.0,0.0,0.0,0.0,0.0,0.0,0.0,0.0,0.0,0.0,0.0,0.0,0.0,0.0,0.0,0.0,0.0,0.0,0.0,0.0,0.0,0.0,-3.5714,-3.5868,0.0,0.0,0.0,0.0,-3.6913,-3.6992,-3.7294,-3.7988,-3.8535,-3.9011,-3.9381,-3.916,-3.927,-3.9768,-3.8548,-3.8315,-3.9056,-3.8618,-3.8493,-3.8624,-3.7923,-3.7352,-3.6871,-3.6844,-3.6022,-3.4633,-3.4034,-3.3253,-3.2246,-3.0362,-3.0362,-3.1008,-2.8239,-2.7933,-2.8578,-2.6377,-2.5598,-2.561,-2.6195,-2.563,-2.452,-2.3303,-2.2942,0.0,0.0,-2.3002,-2.3027,-2.3027,-2.2664,-2.2426,-2.2892,-2.2275,-2.1679,-2.2211,-2.1946,-2.1741,-2.2164,-2.0997,-2.0182,-2.0908,0.0,-1.8617,-1.868,-1.8279,-1.746,-1.6256,-1.5341,-1.459,-1.4097,-1.3137,-1.2307,-1.185,-1.061,-0.9865,-0.9814,-0.9444,-0.9372,-0.9673,-0.996,-1.0254,-1.0618,-1.0624,0.0,0.0,0.0,0.0,0.0,0.0,0.0,0.0,0.0,0.0,0.0,0.0,0.0,0.0,0.0,0.0,0.0,0.0,0.0,0.0,0.0,0.0,0.0,0.0,0.0,0.0,0.0,0.0,-3.5708,-3.5846,0.0,-3.5156,-3.5586,-3.5976,-3.6172,-3.7142,-3.8055,-3.8827,-3.9381,-3.9642,-3.957,-3.9246,-3.9105,-3.9124,-3.7863,-3.7152,-3.7095,-3.6631,-3.6011,-3.5292,-3.5488,-3.525,-3.4565,-3.4201,-3.3478,-3.2537,-3.1962,-3.2026,-3.2428,-3.1289,-3.0761,-3.0468,-2.8541,-2.7754,-2.7396,-2.5716,-2.507,-2.5141,-2.5331,-2.4596,-2.3689,-2.3678,-2.3427,-2.3078,-2.3078,-2.3078,-2.299,-2.2698,-2.246,-2.2272,-2.2121,-2.1786,-2.1477,-2.1301,-2.076,-2.0372,-2.0531,-1.9912,-1.9587,-2.0186,-1.8704,-1.7688,-1.849,-1.7564,-1.6516,-1.5762,-1.4487,-1.3541,-1.3131,-1.2086,-1.1166,-1.0576,-1.0064,-0.9614,-0.9159,-0.918,-0.9084,-0.8884,-0.9648,-1.0008,-0.9779,-1.0301,-1.0571,0.0,0.0,0.0,0.0,0.0,0.0,0.0,0.0,0.0,0.0,0.0,0.0,0.0,0.0,0.0,0.0,0.0,0.0,0.0,0.0,0.0,0.0,0.0,0.0,0.0,-3.5639,-3.5703,-3.5702,-3.584,-3.5703,-3.5098,-3.5566,-3.5951,-3.6094,-3.7328,-3.8328,-3.8834,-3.9738,-3.9906,-3.9184,-3.924,-3.897,-3.8279,-3.7116,-3.6233,-3.5595,-3.4981,-3.4226,-3.3406,-3.3903,-3.3845,-3.3362,-3.278,-3.2133,-3.1468,-3.083,-3.086,-3.1142,-3.0947,-3.0366,-2.9493,-2.8279,-2.7327,-2.6464,-2.5219,-2.4811,-2.4749,-2.4577,-2.4001,-2.3427,-2.3427,-2.3288,-2.3002,-2.2686,-2.2711,-2.2736,-2.2184,-2.1895,-2.1707,-2.1531,-2.1027,-2.0482,-2.0181,-1.9515,-1.8871,-1.842,-1.8449,-1.867,-1.918,-1.783,-1.7044,-1.8011,-1.6971,-1.5911,-1.5498,-1.4274,-1.3166,-1.2369,-1.1439,-1.0564,-0.9836,-0.9657,-0.9305,-0.8562,-0.8769,-0.8691,-0.8115,-0.9084,-0.9562,-0.9332,-1.0014,-1.0461,-1.0624,0.0,0.0,0.0,0.0,0.0,0.0,0.0,0.0,0.0,0.0,0.0,0.0,0.0,0.0,0.0,0.0,0.0,0.0,0.0,0.0,0.0,0.0,0.0,-3.5659,-3.5644,-3.5722,-3.5703,-3.5879,-3.5976,-3.5898,-3.5898,-3.6161,-3.6858,-3.7613,-3.8035,-3.7987,-3.9523,-3.9772,-3.8342,-3.911,-3.8884,-3.7485,-3.645,-3.5543,-3.4723,-3.3818,-3.3328,-3.3322,-3.3351,-3.3338,-3.3287,-3.2667,-3.2027,-3.1357,-3.0748,-2.9612,-2.8414,-2.9234,-2.9059,-2.8236,-2.7407,-2.6674,-2.5848,-2.5017,-2.4706,-2.4606,-2.4073,-2.3837,-2.3654,-2.2552,-2.2602,-2.2742,-2.1725,-2.1813,-2.2101,-2.1606,-2.1066,-2.079,-2.1317,-2.0037,-1.8726,-1.8809,-1.816,-1.7243,-1.6101,-1.6688,-1.7429,-1.785,-1.7216,-1.6815,-1.7283,-1.6625,0.0,-1.5496,-1.4673,-1.3538,-1.2041,-1.1295,-1.0587,-0.9829,-0.9383,-0.8781,-0.7919,-0.8149,-0.811,-0.7504,-0.8309,-0.8924,-0.9268,-0.9773,-1.0206,-1.0561,0.0,0.0,0.0,0.0,0.0,0.0,0.0,0.0,0.0,0.0,0.0,0.0,0.0,0.0,0.0,0.0,0.0,0.0,0.0,0.0,0.0,-3.7196,-3.7287,-3.5776,-3.6222,-3.6466,-3.5781,-3.582,-3.5879,-3.5762,-3.5716,-3.6013,-3.6837,-3.7002,-3.7348,-3.7964,-3.8254,-3.8385,-3.829,-3.8345,-3.7903,-3.6999,-3.581,-3.4641,-3.3552,-3.2913,-3.2327,-3.1816,-3.2361,-3.2088,-3.114,-3.0527,-2.9881,-2.9265,-2.8112,-2.7405,-2.7134,-2.8256,-2.7906,-2.664,-2.5995,-2.4738,-2.333,-2.3052,-2.2372,-2.1583,-2.1458,-2.1009,-2.0544,-2.0193,-2.0204,-2.0251,-1.9971,-2.0415,-2.0819,-2.0285,-2.0439,-2.0482,-1.966,-1.909,-1.8436,-1.7556,-1.6823,-1.6255,-1.5842,-1.5636,-1.5732,-1.6516,-1.6414,-1.6127,-1.5645,-1.536,-1.487,-1.38,-1.2764,-1.1925,-1.1503,-1.0596,-0.9626,-0.8741,-0.8515,-0.8105,-0.7244,-0.725,-0.7116,-0.6694,-0.7458,-0.7986,-0.835,-0.8484,-0.8931,0.0,0.0,0.0,0.0,0.0,0.0,0.0,0.0,0.0,0.0,0.0,0.0,0.0,0.0,0.0,0.0,0.0,0.0,0.0,0.0,0.0,0.0,-3.7663,-3.7647,-3.6108,-3.6532,-3.6681,-3.5779,-3.5747,-3.5761,-3.5663,-3.5629,-3.5795,-3.6271,-3.6554,-3.6713,-3.6796,-3.7309,-3.745,-3.7152,-3.7131,-3.6701,-3.5796,-3.4706,-3.36,-3.2541,-3.2055,-3.1613,-3.119,-3.1106,-3.0633,-2.9822,-2.8968,-2.8217,-2.7545,-2.6811,-2.613,-2.5672,0.0,0.0,0.0,0.0,-2.3134,-2.1906,-2.1618,-2.1015,-2.038,-2.0041,-1.9667,-1.9267,-1.9005,-1.9143,-1.9222,-1.8735,-1.9057,-1.9459,-1.8934,-1.9069,-1.9215,-1.841,-1.7898,-1.7274,-1.6318,-1.561,-1.5008,-1.4639,-1.4415,0.0,-1.4732,-1.51,-1.5098,-1.4457,-1.4118,-1.3596,-1.2674,-1.1719,-1.0843,-1.0068,-0.9464,-0.8675,-0.7723,-0.7744,0.0,0.0,0.0,-0.675,-0.6515,-0.6939,0.0,0.0,0.0,-0.842,-0.9274,-0.9761,0.0,0.0,-1.2102,-1.2972,0.0,0.0,0.0,0.0,0.0,0.0,0.0,0.0,0.0,0.0,0.0,0.0,0.0,0.0,0.0,0.0,-3.8136,-3.7966,-3.6572,-3.6627,-3.6485,-3.5645,-3.564,-3.5624,-3.5468,-3.5545,-3.5526,-3.532,-3.6059,-3.6098,-3.5109,-3.6417,0.0,0.0,0.0,-3.5385,-3.4344,-3.353,-3.2641,-3.1733,-3.1295,-3.1061,-3.096,-2.9799,-2.9223,-2.9048,-2.7969,-2.7076,-2.6293,-2.6221,-2.5355,-2.4124,-2.4857,-2.47,-2.3956,-2.2738,-2.1864,-2.1192,-2.0531,0.0,0.0,-1.9204,-1.8907,-1.8759,-1.8267,-1.8491,-1.8658,-1.7656,-1.779,-1.8148,-1.7634,-1.7523,-1.7556,-1.7445,-1.6613,-1.575,-1.5069,-1.4458,-1.3744,-1.3015,-1.3197,-1.3362,-1.2932,-1.3514,-1.3901,-1.3416,-1.2848,-1.2287,-1.1806,-1.1152,-1.0116,-0.8401,-0.8238,0.0,-0.6887,-0.7022,-0.6866,-0.6116,-0.6379,-0.6548,-0.6527,-0.6544,-0.6937,-0.7702,-0.7702,-0.8161,-0.9139,-0.9139,-0.9792,-1.1061,-1.2933,-1.3705,0.0,0.0,0.0,0.0,0.0,0.0,0.0,0.0,0.0,0.0,0.0,0.0,0.0,0.0,0.0,-3.9097,-3.9248,-3.8792,-3.7171,-3.6453,-3.5869,-3.5268,-3.5457,-3.5318,-3.4552,-3.5109,-3.5128,-3.4216,-3.4922,-3.5224,-3.4807,-3.4832,-3.5052,-3.5499,-3.5009,-3.4452,-3.3837,-3.3352,-3.249,-3.1329,-3.0723,0.0,-2.9656,-2.9475,-2.8842,-2.7842,-2.7585,-2.6826,-2.5669,-2.4611,-2.3594,-2.2747,-2.3346,-2.316,-2.2671,-2.2389,-2.1372,-2.0086,-1.983,-1.8736,-1.7431,-1.714,-1.6638,-1.6153,-1.6014,-1.6045,0.0,-1.5904,-1.6316,-1.6882,-1.6729,-1.7135,-1.7368,-1.6428,-1.6051,-1.5473,-1.3873,-1.3394,-1.3192,-1.2753,-1.2723,-1.264,-1.2119,-1.271,-1.2907,-1.1886,-1.162,-1.1193,-1.0258,-1.0038,-0.9588,-0.8597,-0.8592,-0.8023,-0.6474,-0.6467,-0.622,-0.5378,-0.5652,-0.5755,-0.5627,-0.5745,-0.5819,-0.5888,-0.5885,-0.6666,-0.8221,-0.8221,-0.919,-1.1002,-1.162,-1.202,0.0,0.0,0.0,0.0,0.0,0.0,0.0,0.0,0.0,0.0,0.0,-3.737,-3.7945,0.0,-3.9454,-3.9482,-3.9312,-3.8607,-3.7117,-3.6203,-3.5534,-3.5153,-3.4856,-3.4514,-3.4051,-3.4391,-3.4366,-3.3651,-3.4412,-3.4769,-3.4466,-3.4111,-3.4046,-3.433,-3.3526,-3.2982,-3.2757,-3.2042,-3.1381,-3.074,-2.9805,-2.916,-2.8844,-2.7881,-2.6925,-2.6001,-2.5743,-2.4843,-2.3554,-2.2815,-2.2095,-2.1399,-2.1621,-2.1819,-2.1851,-2.1589,-2.0514,-1.9183,-1.8501,-1.7455,-1.6289,-1.5807,-1.5372,-1.5098,-1.5098,-1.5244,-1.5322,-1.4893,-1.5362,-1.5871,-1.5715,-1.6079,-1.629,-1.5522,-1.4909,-1.4189,-1.3057,-1.2501,-1.2034,-1.1566,-1.1537,-1.1495,-1.1059,-1.0848,-1.0781,-1.0711,-1.0463,-0.9946,-0.9048,-0.8821,-0.8273,-0.7187,-0.7109,-0.67,-0.5623,-0.5742,-0.5697,-0.5308,-0.5318,-0.5362,-0.5428,-0.5291,-0.525,-0.5247,-0.5247,-0.5883,-0.7222,-0.7321,-0.8343,-1.0192,-1.0397,-1.0953,0.0,0.0,0.0,0.0,0.0,0.0,0.0,-3.3208,-3.443,-3.6948,-3.7691,-3.8073,-3.8714,-3.9211,-3.9549,-3.9634,-3.8982,-3.8044,-3.6789,-3.5781,-3.5112,-3.4954,-3.4212,-3.3665,-3.3506,-3.3632,-3.3619,-3.335,-3.4124,-3.4457,-3.4127,-3.3731,-3.344,-3.3197,-3.2302,-3.1789,-3.1789,-3.0794,-3.0293,-3.0293,-2.8758,-2.7977,-2.7787,-2.5975,-2.4837,-2.421,-2.3581,-2.2512,-2.1205,-2.104,-2.058,-2.0036,-1.9909,-2.0273,-2.0839,-2.0451,-1.9438,-1.8195,-1.7205,-1.6396,-1.5612,-1.5024,-1.4727,-1.4678,-1.4588,-1.4782,-1.4869,-1.4099,-1.4412,-1.4857,-1.4525,-1.4686,-1.4809,-1.4373,-1.3562,-1.2742,-1.2219,-1.1567,-1.0869,-1.0107,-1.0189,-1.0153,-0.9733,-0.8947,-0.873,-0.9677,-0.92,-0.859,-0.7944,-0.7629,-0.6961,-0.5651,-0.5517,-0.5401,-0.4955,-0.5138,-0.5274,-0.5274,-0.5159,-0.5145,-0.527,-0.5047,-0.4972,-0.5087,-0.5091,-0.5461,-0.6333,-0.6578,-0.744,-0.9,-0.9456,-1.025,-0.9107,-1.3876,-1.9497,-2.2867,-2.5613,-2.8779,0.0,-3.5164,-3.5938,-3.745,-3.8653,-3.9502,-3.9633,-3.9935,-4.0095,-4.0131,-3.8729,-3.7334,-3.6462,-3.4982,-3.4071,-3.4264,-3.379,-3.316,-3.2454,-3.3032,-3.3324,-3.3061,-3.3795,-3.4127,-3.3844,-3.3454,-3.3234,-3.3185,-3.2283,-3.1789,-3.1789,-3.0794,-3.0293,-3.0293,-2.7843,-2.6425,-2.5894,-2.4514,-2.3561,-2.2902,-2.2291,-2.1195,-1.9864,-1.9279,-1.892,-1.8657,-1.8114,-1.8272,-1.884,-1.8771,-1.8032,-1.6975,-1.6663,-1.5941,-1.5174,-1.4879,-1.4521,-1.4115,-1.381,-1.3777,-1.3687,-1.3237,-1.3184,-1.3243,-1.3193,-1.3218,-1.3067,-1.2408,-1.2122,-1.1781,-1.0745,-1.0474,-1.0079,-0.8993,-0.8914,-0.8762,-0.8099,-0.7774,-0.7889,-0.8645,-0.7943,-0.7209,-0.6853,-0.6745,-0.6421,-0.5597,-0.5638,-0.554,-0.4965,-0.4948,-0.4969,-0.4969,-0.4952,-0.4952,-0.4969,-0.4938,-0.4925,-0.4942,-0.4942,-0.5362,-0.6194,-0.6386,-0.6912,-0.7913,-0.8862,-0.9978,-0.6346,-1.1683,-1.6854,-1.9513,-2.3663,-2.8039,-3.1645,-3.3007,-3.4414,-3.7737,-3.8438,-3.8857,-4.0198,-4.0468,-4.0363,-4.0219,-3.8664,-3.7202,-3.6413,-3.4666,-3.3587,-3.3935,-3.3981,-3.3649,-3.2749,-3.2962,-3.314,-3.3055,-3.3799,-3.4087,-3.3695,-3.3283,-3.2873,-3.2404,-3.1462,-3.0954,-3.0954,-2.9038,-2.8089,-2.8074,-2.5512,-2.4158,-2.3899,-2.2965,-2.1975,-2.0871,-1.984,-1.9042,-1.8466,-1.8167,-1.7756,-1.7326,-1.7065,-1.6871,-1.6822,-1.7666,-1.7412,-1.6567,-1.6261,-1.5158,-1.3965,-1.4063,-1.3515,-1.2811,-1.2874,-1.3091,-1.3135,-1.2439,-1.2611,-1.291,-1.2472,-1.2687,-1.2819,-1.2068,-1.1337,-1.0602,-0.9829,-0.9166,-0.8447,-0.7623,-0.7735,-0.7906,-0.7425,-0.6876,-0.6642,-0.7049,-0.7037,-0.6758,-0.6067,-0.5959,-0.5701,-0.5003,-0.5046,-0.506,-0.4782,-0.4867,-0.4918,-0.4918,-0.4833,-0.4826,-0.4914,-0.4748,-0.4697,-0.4782,-0.4785,-0.4959,-0.5306,-0.5476,-0.5982,-0.6824,-0.7282,-0.8,-0.2145,-0.7449,-1.1939,-1.5032,-2.0417,-2.5731,-2.8382,-2.986,-3.1846,-3.5998,-3.6717,-3.7303,-3.9747,-4.0112,-4.0032,-4.0029,-3.8359,-3.6867,-3.6253,-3.4352,-3.3418,-3.4462,-3.4666,-3.4579,-3.4263,-3.4054,-3.3876,-3.3776,-3.4306,-3.4323,-3.365,-3.3055,-3.2388,-3.1596,-3.0228,-2.9491,-2.9507,-2.718,-2.5998,-2.5935,-2.359,-2.2337,-2.2096,-2.1053,-2.0029,-1.9089,-1.8047,-1.7346,-1.6991,-1.6991,-1.6373,-1.5545,-1.5545,-1.5206,-1.4845,-1.5833,-1.6028,-1.5735,-1.5401,-1.4148,-1.2689,-1.2926,-1.2423,-1.1765,-1.1864,-1.2217,-1.2342,-1.1569,-1.1825,-1.2195,-1.1584,-1.1811,-1.1955,-1.1069,-1.0161,-0.9362,-0.873,-0.7964,-0.7198,-0.6556,-0.6835,-0.7009,-0.6538,-0.5959,-0.5635,-0.5635,-0.6082,-0.606,-0.5324,-0.5202,-0.5046,-0.457,-0.4565,-0.4629,-0.4626,-0.4731,-0.4796,-0.4792,-0.4691,-0.4677,-0.4789,-0.4579,-0.457,-0.4626,-0.4626,-0.4626,-0.4626,-0.4782,-0.515,-0.5795,-0.6079,-0.652,0.4507,-0.0141,-0.4745,-0.9932,-1.5774,-2.1148,-2.4408,-2.6505,-2.852,-3.1195,-3.3045,-3.5056,-3.7932,-3.8572,-3.8845,-3.9417,-3.7509,-3.5951,-3.5934,-3.3951,-3.3535,-3.6276,-3.5995,-3.6041,-3.7257,-3.6652,-3.5975,-3.5457,-3.5455,-3.4907,-3.3681,-3.2672,-3.1749,-3.0931,-2.8683,-2.7529,-2.7561,-2.5642,-2.465,-2.465,-2.2734,-2.1472,-2.0714,-1.8635,-1.7677,-1.7677,-1.7633,-1.6757,-1.536,-1.536,-1.4505,-1.313,-1.313,-1.307,-1.3028,-1.2848,-1.3243,-1.3873,-1.3864,-1.2829,-1.1542,-1.155,-1.1444,-1.1234,-1.0872,-1.0916,-1.1061,-1.076,-1.0667,-1.0613,-1.0241,-1.0174,-0.986,-0.8588,-0.8311,-0.8034,-0.7338,-0.712,-0.6874,-0.6177,-0.6125,-0.5912,-0.4922,-0.4937,-0.5064,-0.489,-0.493,-0.486,-0.4574,-0.4515,-0.4515,-0.4519,-0.4532,-0.448,-0.4525,-0.4484,-0.4487,-0.4532,-0.4525,-0.4525,-0.4532,-0.4522,-0.4519,-0.4525,-0.4525,-0.4525,-0.4525,-0.4623,-0.4697,-0.4759,-0.5727,-0.622,1.0483,0.682,0.3012,-0.0953,-0.6094,-1.1546,-1.7334,-1.958,-2.1827,-2.6533,-2.8545,-3.0754,-3.5043,-3.5349,-3.5727,-3.8053,-3.7291,-3.6432,-3.6432,-3.5818,-3.6002,-3.7817,-3.8149,-3.8528,-3.9206,-3.7953,-3.6721,-3.5811,-3.5775,-3.4926,-3.2959,-3.2527,-3.1369,-2.9259,-2.8015,-2.6992,-2.6109,-2.4239,-2.2848,-2.1978,-1.9949,-1.8887,-1.8604,-1.6856,-1.6363,-1.6754,-1.5216,-1.4582,-1.4532,-1.3999,-1.3468,-1.3009,-1.3009,-1.3009,-1.2992,-1.2877,-1.217,-1.1411,-1.263,-1.2299,-1.1375,-1.1608,-1.1038,-1.0251,-1.0279,-1.0241,-1.0068,-0.9455,-0.93,-0.9118,-0.8317,-0.8312,-0.8304,-0.7657,-0.723,-0.688,-0.6452,-0.607,-0.5648,-0.5081,-0.5368,-0.5454,-0.4669,-0.4773,-0.4552,-0.3263,-0.396,-0.4597,-0.4519,-0.4495,-0.4521,-0.4508,-0.4492,-0.4089,-0.3065,-0.3916,-0.449,-0.4484,-0.4484,-0.448,-0.4473,-0.4473,-0.4525,-0.4519,-0.4519,-0.4519,-0.4519,-0.457,-0.4538,-0.4597,-0.4925,-0.5061,1.6337,1.4681,1.2523,0.7702,0.4222,0.028,-0.6268,-0.8558,-1.0525,-1.4722,-1.8834,-2.2747,-2.6465,-3.0797,-3.471,-3.762,-3.6843,-3.6078,-3.657,-3.5806,-3.6132,-3.8665,-3.8913,-3.9297,-4.0241,-3.9283,-3.7989,-3.6587,-3.6265,-3.5067,-3.2652,-3.1817,-3.0354,-2.8069,-2.6345,-2.5093,-2.4251,-2.2094,-2.0573,-1.9587,-1.7977,-1.7202,-1.7135,-1.5621,-1.5168,-1.5555,-1.3777,-1.3122,-1.3295,-1.2749,-1.2389,-1.2151,-1.2151,-1.2151,-1.2143,-1.202,-1.1228,-1.0329,-1.1301,-1.0827,-0.9814,-1.006,-0.9599,-0.8962,-0.9126,-0.9059,-0.886,-0.8443,-0.8261,-0.8019,-0.7317,-0.7352,-0.7411,-0.6769,-0.6488,-0.6161,-0.5655,-0.5182,-0.4819,-0.4677,-0.4454,-0.414,-0.376,-0.4264,-0.4203,-0.2471,-0.3032,-0.3654,-0.3649,-0.365,-0.3661,-0.365,-0.4157,-0.3872,-0.2343,-0.2627,-0.3135,-0.3641,-0.3697,-0.3694,-0.3688,-0.42,-0.4484,-0.4473,-0.4473,-0.4473,-0.4473,-0.4473,-0.4473,-0.4473,-0.4473,-0.4473,2.2014,2.3002,2.3071,1.5964,1.4607,1.3656,0.8269,0.5905,0.4518,0.3158,-0.4423,-1.1249,-1.2641,-2.4378,-3.45,-3.68,-3.5599,-3.4816,-3.6107,-3.4032,-3.4127,-3.8783,-3.8255,-3.8328,-4.0323,-4.0422,-3.9518,-3.7482,-3.6763,-3.5253,-3.2495,-3.0503,-2.8742,-2.7333,-2.393,-2.2101,-2.2018,-1.9483,-1.7989,-1.7501,-1.6729,-1.6332,-1.6187,-1.4728,-1.4016,-1.3957,-1.3114,-1.232,-1.164,-1.164,-1.1156,-1.0498,-1.0498,-1.0498,-1.0458,-1.0098,-1.0164,-1.0355,-0.9971,-0.8686,-0.7215,-0.7141,-0.7269,-0.7484,-0.7474,-0.7583,-0.7629,-0.7629,-0.7491,-0.7357,-0.7032,-0.7085,-0.6899,-0.6005,-0.5948,-0.5868,-0.4869,-0.454,-0.4455,-0.4803,-0.3388,-0.2078,-0.2072,-0.3316,-0.3787,-0.2278,-0.2085,-0.2076,-0.2076,-0.209,-0.2114,-0.2093,-0.3375,-0.3652,-0.2233,-0.0781,-0.0614,-0.2007,-0.2063,-0.2063,-0.2063,-0.3471,-0.4324,-0.4383,-0.4383,-0.4383,-0.4383,-0.4383,-0.4383,-0.4383,-0.4383,-0.4383,2.5879,2.5628,2.4986,2.2582,2.1647,2.1336,2.1149,1.6672,1.2511,1.2636,0.738,0.2255,0.0552,-0.9266,-1.7887,-2.0237,-2.7308,-3.2764,-3.3502,-3.3502,-3.4289,-3.6679,-3.6801,-3.7356,-3.9034,-3.7804,-3.6438,-3.5366,-3.5415,-3.4099,-3.0717,-2.9278,-2.7653,-2.5761,-2.3774,-2.229,-2.1272,-1.8373,-1.6719,-1.6384,-1.4906,-1.376,-1.2893,-1.1889,-1.1388,-1.129,-0.9901,-0.9527,-0.9825,-0.9221,-0.8854,-0.8672,-0.8672,-0.8672,-0.8645,-0.8392,-0.797,-0.7453,-0.7327,-0.7949,-0.8594,-0.7778,-0.7461,-0.7345,-0.7247,-0.7027,-0.6783,-0.6459,-0.6306,-0.6142,-0.5351,-0.5196,-0.5178,-0.5157,-0.5377,-0.513,-0.3243,-0.2801,-0.3162,-0.4338,-0.2428,-0.053,-0.0538,-0.0877,-0.0983,-0.0598,-0.0574,-0.0534,-0.0583,-0.0566,-0.0549,-0.059,-0.0914,-0.1008,-0.0616,-0.0224,-0.0168,-0.056,-0.056,-0.0559,-0.0558,-0.0949,-0.1675,-0.2792,-0.2792,-0.2792,-0.2792,-0.2792,-0.2792,-0.2792,-0.2792,-0.2792,2.8393,2.7947,2.7539,2.75,2.6883,2.6626,2.7741,2.4359,2.138,2.2609,2.002,1.7557,1.7675,0.7909,-0.0673,-0.2201,-1.0136,-1.645,-1.7347,-1.7369,-1.7894,-1.9638,-2.0072,-2.0738,-2.1942,-2.4704,-2.5823,-2.4424,-2.9992,-3.1998,-2.8734,-2.7363,-2.5788,-2.3672,-2.1628,-1.9687,-1.7999,-1.6381,-1.5167,-1.4312,-1.3282,-1.2208,-1.1112,-1.0322,-0.9882,-0.9794,-0.8516,-0.827,-0.8634,-0.821,-0.8027,-0.8027,-0.8027,-0.7965,-0.7858,-0.7726,-0.7377,-0.6828,-0.6483,-0.7086,-0.7809,-0.6935,-0.6506,-0.6262,-0.6142,-0.6023,-0.5804,-0.551,-0.4916,-0.4155,-0.3643,-0.351,-0.353,-0.3663,-0.458,-0.5045,-0.3869,-0.238,-0.1502,-0.238,-0.1185,-0.0,-0.0,-0.0,-0.0,-0.0,-0.0,0.0562,0.219,0.0969,-0.0,-0.0,-0.0,-0.0,-0.0,-0.0,-0.0,-0.0,-0.0,-0.0,-0.0,-0.0,-0.0391,-0.1229,-0.1229,-0.1229,-0.1229,-0.1229,-0.1229,-0.1229,-0.1229,-0.1229,2.9816,2.9729,2.9898,3.063,3.0448,3.0145,3.0268,2.9748,2.9695,3.1371,3.1121,3.1348,3.3614,2.3232,1.4181,1.3653,0.7938,0.3067,0.1726,0.2537,0.2546,0.0602,0.004,-0.051,-0.1414,-0.8372,-1.212,-1.0332,-2.1065,-2.7503,-2.7074,-2.5141,-2.3027,-2.0843,-1.824,-1.5905,-1.3864,-1.3966,-1.3263,-1.184,-1.1711,-1.1006,-0.9913,-0.9243,-0.8809,-0.8681,-0.7947,-0.7642,-0.7642,-0.7642,-0.7642,-0.7642,-0.7642,-0.7526,-0.7414,-0.7355,-0.7284,-0.7036,-0.6392,-0.6043,-0.5925,-0.5488,-0.5176,-0.4876,-0.4623,-0.4513,-0.4591,-0.4789,-0.3744,-0.2436,-0.2019,-0.1922,-0.194,-0.194,-0.3306,-0.4564,-0.4061,-0.1522,0.0674,0.0404,0.0337,0.0337,0.0337,0.0337,0.0335,0.033,0.0367,0.1498,0.4653,0.2503,0.0505,0.0056,-0.0,-0.0,-0.0,0.0392,0.0449,-0.0,-0.0,-0.0,-0.0,-0.0,-0.0,-0.0,-0.0,-0.0,-0.0,-0.0,-0.0,-0.0,-0.0,-0.0,2.987,2.987,2.994,3.0248,3.1264,3.2052,3.1529,3.2722,3.3819,3.3451,3.3704,3.4198,3.4981,2.5598,1.7484,1.6669,0.8177,0.1198,-0.0147,-0.0127,-0.0589,-0.2211,-0.285,-0.3712,-0.5132,-0.3967,-0.3438,-0.4207,-0.7871,-1.526,-2.7245,-2.2816,-1.8752,-1.6169,-1.4792,-1.3582,-1.2492,-1.1708,-1.1035,-1.0344,-0.9565,-0.8534,-0.7349,-0.7396,-0.6951,-0.602,-0.5907,-0.5848,-0.5848,-0.5848,-0.5848,-0.5848,-0.5848,-0.583,-0.5774,-0.5505,-0.5391,-0.5293,-0.4942,-0.4797,-0.4832,-0.5064,-0.4992,-0.4577,-0.3106,-0.2672,-0.2915,-0.4215,-0.432,-0.3502,-0.1016,-0.0391,-0.0401,-0.0401,-0.0671,-0.0135,0.2887,0.4041,0.4051,0.2498,0.2228,0.2228,0.2228,0.2228,0.2223,0.2246,0.2246,0.2427,0.3087,0.3923,0.3327,0.0336,-0.0,-0.0,-0.0,0.23,0.2639,0.0168,-0.0,-0.0,-0.0,-0.0,-0.0,-0.0,-0.0,-0.0,-0.0,-0.0,-0.0,-0.0,-0.0,-0.0,3.0167,3.0167,3.0188,3.0321,3.0936,3.1445,3.1178,3.2303,3.3346,3.3193,3.3603,3.4074,3.4409,3.0111,2.632,2.5763,2.1541,1.8095,1.7456,1.704,1.651,1.575,1.4809,1.4182,1.4164,1.4387,1.5339,1.7248,1.5185,0.5013,-1.5289,-1.6794,-1.5882,-1.3546,-1.3005,-1.1907,-1.0213,-1.0039,-0.8944,-0.6892,-0.6354,-0.5377,-0.402,-0.411,-0.3569,-0.2433,-0.257,-0.2559,-0.2518,-0.2549,-0.2601,-0.2601,-0.2601,-0.2578,-0.247,-0.2276,-0.2271,-0.221,-0.2153,-0.213,-0.2224,-0.2498,-0.2453,-0.2135,-0.1335,-0.1034,-0.1234,-0.1976,-0.2147,-0.142,0.1939,0.2839,0.2831,0.2831,0.2084,0.188,0.3639,0.4724,0.5132,0.4252,0.4115,0.4113,0.4102,0.4102,0.4093,0.4117,0.4092,0.4102,0.4102,0.4884,0.4713,0.302,0.1807,0.1122,0.1122,0.2469,0.303,0.2408,0.1564,0.1172,0.1118,0.1118,0.1118,0.1118,0.1118,0.1118,0.1118,0.1308,0.1377,0.1377,0.1401,0.1424,3.0487,3.0582,3.0738,3.0777,3.098,3.109,3.0806,3.1611,3.2416,3.2362,3.287,3.3247,3.314,3.3045,3.2767,3.2135,3.2127,3.2254,3.2258,3.1561,3.1125,3.1235,3.0176,2.9871,3.1145,2.9622,3.0125,3.394,3.2687,2.1992,-0.0405,-0.6539,-0.9267,-0.9087,-0.9098,-0.8186,-0.6394,-0.702,-0.5994,-0.3218,-0.3018,-0.2307,-0.1081,-0.113,-0.0635,0.0286,0.1034,0.1363,0.1304,0.1215,0.1136,0.113,0.113,0.1175,0.1208,0.1201,0.1219,0.1166,0.101,0.0987,0.0954,0.0802,0.0427,-0.0,-0.0,-0.0,0.019,0.0945,0.1146,0.1747,0.4183,0.4791,0.4928,0.5339,0.4306,0.3284,0.3282,0.4367,0.5389,0.5389,0.5389,0.5382,0.5432,0.5428,0.5428,0.5428,0.5428,0.5428,0.5428,0.5428,0.5428,0.5428,0.3899,0.2834,0.2813,0.2828,0.3286,0.4442,0.3378,0.2699,0.2681,0.2681,0.2681,0.2681,0.2755,0.2767,0.2767,0.2958,0.3125,0.3266,0.3267,0.3254,3.0807,3.1152,3.1758,3.1692,3.2651,3.3163,3.1592,3.2889,3.3904,3.2,3.2649,3.3176,3.1844,3.0902,2.9772,2.7987,2.6785,2.6162,2.6388,2.5512,2.5,2.5512,2.5,2.4957,2.5799,2.744,2.8442,2.8464,3.0368,2.5607,1.2058,1.0141,0.6754,0.082,0.0762,0.0561,0.0071,-0.0658,-0.0808,-0.0359,-0.022,-0.0,0.0216,0.0144,0.0071,0.0209,0.4082,0.5444,0.494,0.4915,0.4888,0.4913,0.4913,0.4698,0.444,0.4448,0.4493,0.4406,0.4172,0.408,0.4085,0.4082,0.2196,-0.0,-0.0,-0.0,0.0665,0.3999,0.4888,0.4631,0.3321,0.2943,0.3353,0.4986,0.5259,0.5186,0.5176,0.5309,0.5376,0.5432,0.5432,0.5428,0.5428,0.5428,0.5428,0.5428,0.5428,0.5428,0.5428,0.5428,0.5428,0.5428,0.5245,0.4998,0.4685,0.4772,0.4752,0.4507,0.4381,0.4276,0.4271,0.4268,0.4268,0.4268,0.4515,0.4646,0.4646,0.4419,0.4614,0.5182,0.5173,0.5143,3.1948,3.2237,3.2494,3.2455,3.2403,3.2159,3.1463,3.2289,3.284,3.1515,3.2271,3.2643,3.087,2.942,2.8084,2.6872,2.5576,2.4835,2.5221,2.4091,2.3475,2.423,2.338,2.3258,2.4531,2.5628,2.7009,2.8725,2.9961,2.8092,2.2209,1.9077,1.597,1.2591,0.9982,0.8022,0.6625,0.632,0.626,0.647,0.6472,0.5895,0.4796,0.4795,0.4993,0.552,0.6433,0.6571,0.624,0.5674,0.543,0.5439,0.5958,0.5789,0.5277,0.5788,0.5538,0.4956,0.5295,0.5416,0.5481,0.5923,0.4623,0.2771,0.2188,0.1812,0.1925,0.3392,0.4544,0.5262,0.4495,0.4298,0.4495,0.5239,0.5833,0.6152,0.621,0.6605,0.6994,0.699,0.699,0.6802,0.6246,0.6184,0.5981,0.5498,0.5495,0.5498,0.5428,0.5495,0.5498,0.5428,0.5292,0.5195,0.5023,0.5018,0.4905,0.4764,0.472,0.4714,0.4718,0.4687,0.4657,0.4748,0.4779,0.481,0.4903,0.4867,0.4999,0.5192,0.5353,0.5368,3.2211,3.267,3.3038,3.3038,3.2232,3.1421,3.1313,3.1541,3.1455,3.0306,3.113,3.1405,2.9336,2.7694,2.6474,2.5879,2.4512,2.3795,2.4645,2.3667,2.3065,2.3725,2.2817,2.2664,2.3987,2.493,2.6471,2.8976,2.9603,2.9355,2.8157,2.524,2.2466,2.0016,1.6459,1.3828,1.224,1.1707,1.1471,1.1639,1.1206,1.0337,0.8954,0.8685,0.8843,0.9109,0.8228,0.7588,0.7185,0.6513,0.6191,0.6207,0.6854,0.6689,0.6124,0.6702,0.6294,0.562,0.6151,0.6343,0.6402,0.7047,0.6493,0.5544,0.4822,0.4066,0.3475,0.3431,0.453,0.5841,0.6106,0.6164,0.6168,0.6273,0.6738,0.7211,0.7336,0.7817,0.822,0.822,0.822,0.8016,0.7327,0.7224,0.699,0.6254,0.6324,0.6332,0.6179,0.6312,0.639,0.6184,0.6047,0.5771,0.5223,0.5087,0.502,0.4951,0.4965,0.4911,0.4913,0.4792,0.4809,0.4918,0.4853,0.4874,0.4982,0.5081,0.5152,0.5199,0.5264,0.5318,3.1148,3.2128,3.3372,3.3372,3.2589,3.1719,3.137,3.1045,3.0208,2.8066,2.8895,2.9314,2.6965,2.5465,2.4606,2.4448,2.2842,2.22,2.3801,2.3502,2.3158,2.328,2.2959,2.2971,2.365,2.5515,2.7088,2.8043,2.8855,2.9167,2.8807,2.9256,2.6859,2.1075,1.9238,1.7751,1.6539,1.4697,1.3767,1.3725,1.2462,1.1867,1.18,1.1081,1.0251,0.9392,0.9502,0.8945,0.7982,0.8138,0.8097,0.7962,0.7962,0.7884,0.7654,0.7375,0.7221,0.7095,0.7095,0.7089,0.7125,0.7405,0.7562,0.7675,0.7675,0.6591,0.5305,0.5114,0.5822,0.6915,0.7767,0.7962,0.8017,0.8302,0.8353,0.8482,0.8703,0.8819,0.8819,0.8819,0.8819,0.8677,0.8456,0.8414,0.826,0.7991,0.8215,0.825,0.8003,0.8179,0.8286,0.8001,0.8001,0.7295,0.5564,0.5428,0.5292,0.5087,0.5084,0.5062,0.4935,0.4904,0.4918,0.4918,0.5053,0.5128,0.5128,0.5131,0.5209,0.5422,0.5203,0.5216,3.1694,3.2014,3.2231,3.2231,3.0847,2.9588,2.9995,2.9458,2.8647,2.7777,2.8488,2.8431,2.5694,2.4835,2.423,2.3191,2.2018,2.1703,2.319,2.2534,2.2069,2.2301,2.1519,2.1654,2.3248,2.367,2.4704,2.6842,2.784,2.8602,2.918,2.9765,2.854,2.5163,2.3592,2.2043,2.057,1.9008,1.7762,1.6863,1.6038,1.5342,1.4805,1.3622,1.2894,1.2552,1.1488,1.0862,1.0517,0.9907,0.9384,0.8884,0.947,0.8989,0.7973,0.848,0.8169,0.7592,0.8078,0.8323,0.852,0.9089,0.9051,0.8788,0.8612,0.7944,0.7154,0.7081,0.7325,0.7632,0.7897,0.8027,0.8083,0.8302,0.8829,0.9378,0.9621,1.0164,1.0579,1.0579,1.0579,1.0347,0.9714,0.9585,0.9325,0.8622,0.8742,0.8767,0.857,0.8727,0.879,0.8581,0.8372,0.7962,0.722,0.7158,0.7158,0.7087,0.7087,0.7052,0.7037,0.6874,0.6889,0.7026,0.6926,0.694,0.7085,0.7085,0.7117,0.7181,0.7117,0.7122,3.0806,3.0895,3.0814,3.1103,2.9471,2.8047,2.8915,2.8235,2.7178,2.6468,2.6847,2.6503,2.3971,2.3435,2.31,2.2122,2.1711,2.1692,2.2306,2.204,2.1667,2.1217,2.0481,2.0514,2.1889,2.23,2.3325,2.5201,2.6926,2.8153,2.8801,2.9805,2.9646,2.8017,2.6597,2.5184,2.3813,2.2278,2.1003,1.9948,1.883,1.8,1.7472,1.5749,1.4828,1.4526,1.3493,1.2885,0.0,1.202,1.1515,1.1036,1.1037,1.0551,0.9907,1.0013,0.9858,0.9557,0.9698,0.9825,0.9918,1.0179,1.0089,0.9755,0.9637,0.8805,0.7978,0.8393,0.8484,0.8549,0.8871,0.9,0.9062,0.9308,0.9854,1.0412,1.0684,1.1326,1.1757,1.1757,1.1757,1.1506,1.0905,1.0761,1.0579,0.9857,1.0287,1.051,1.0131,1.0587,1.0777,1.0129,0.9934,0.9704,0.9296,0.8495,0.8002,0.8002,0.8002,0.8002,0.8002,0.7912,0.7902,0.7972,0.7884,0.7879,0.8027,0.8027,0.8027,0.8027,0.8027,0.8027,0.0,2.8989,2.9207,2.9852,2.8311,2.6968,2.8077,2.7231,0.0,2.4444,2.4341,2.3925,2.2094,2.1666,2.1548,2.1344,2.177,2.1958,2.1361,2.1858,2.1681,2.008,1.9663,1.9609,1.9842,2.1442,2.2745,2.3475,2.6126,2.7796,2.7941,2.9564,3.0234,2.9689,2.8415,2.726,2.6214,2.4532,2.3447,2.2846,2.0886,1.9953,1.9864,1.7698,1.6317,1.5628,1.5524,1.5052,1.4341,1.4291,1.4232,1.4046,1.2541,1.2389,1.2846,1.1781,1.1909,1.2513,1.1724,1.1428,1.1361,1.0892,1.0744,1.0744,1.0744,0.9462,0.8126,0.9134,0.9402,0.96,1.0391,1.0658,1.0668,1.0982,1.1263,1.1543,1.1837,1.2111,1.2305,1.2305,1.2305,1.2225,1.2114,1.2053,1.1935,1.1764,1.268,1.3218,1.2498,1.3439,1.3695,1.2462,1.2345,1.2104,1.1582,0.9533,0.8244,0.8244,0.8244,0.818,0.818,0.8196,0.8168,0.8168,0.8205,0.8156,0.8156,0.8156,0.8156,0.8156,0.8156,0.8156,2.7209,0.0,2.7644,2.726,2.6216,2.5497,0.0,2.5579,2.4441,2.3777,2.3724,2.3465,2.2396,2.1982,2.1832,2.2161,2.1524,2.1136,2.164,2.1002,2.0367,1.996,1.9404,1.9251,1.9699,2.1033,2.2505,2.3948,2.5832,2.7414,2.8464,2.9685,3.0341,3.0353,2.9602,2.8532,2.711,2.6252,2.5329,2.446,2.3213,2.2398,2.1946,1.9877,1.8843,1.8608,1.7522,1.6925,1.6746,1.6156,1.5563,1.4945,1.3999,1.3364,1.3,1.2728,1.2756,1.2885,1.2696,1.2575,1.2583,1.2496,1.2458,1.2458,1.2458,1.1286,0.9951,1.0218,1.0301,1.0417,1.0828,1.0895,1.1022,1.1543,1.1717,1.1844,1.2138,1.2258,1.2305,1.2305,1.2305,1.264,1.3608,1.3506,1.3628,1.4631,1.4791,1.466,1.4501,1.4453,1.4305,1.399,1.3472,1.3105,1.2971,1.1521,1.0485,1.0338,1.0268,1.0199,0.999,1.0009,0.9958,0.9958,0.997,0.997,0.997,0.997,0.997,0.997,0.997,0.997,2.543,2.5731,2.6165,2.6131,2.5295,2.4684,2.5452,0.0,2.3692,2.314,0.0,2.2277,2.1227,2.1781,2.1995,2.0835,2.1297,2.1625,2.1062,1.9823,1.9028,1.9049,1.8801,1.8804,1.9306,2.0521,2.1872,2.3298,2.4827,2.6446,2.818,2.9194,2.9967,3.0533,3.0158,2.9279,2.7918,2.7105,2.6253,2.5345,2.4102,2.3332,2.301,2.0992,1.9978,1.9659,1.8879,1.837,1.807,1.7688,1.7269,1.6725,1.5264,1.465,1.4542,1.3786,1.3786,1.4034,1.3666,1.3312,1.3009,1.3009,1.3009,1.3009,1.3009,1.2397,1.16,1.1226,1.127,1.129,1.108,1.1421,1.1935,1.2275,1.28,1.3219,1.3398,1.3554,1.3665,1.3665,1.3665,1.3863,1.4629,1.4576,1.4657,1.5419,1.5723,1.5738,1.5558,1.5726,1.5614,1.5204,1.4768,1.4397,1.3923,1.3265,1.2554,1.1927,1.2078,1.2073,1.1715,1.1675,1.168,1.1725,1.1725,1.1725,1.1725,1.1725,1.1725,1.1732,1.1874,1.2011,2.3797,2.4037,2.4619,2.5383,2.4697,2.4036,2.4642,0.0,0.0,0.0,0.0,2.1025,1.9808,2.1199,2.1696,1.9222,2.1097,2.2139,2.0371,1.9002,1.8223,1.8221,1.832,1.8503,1.8766,2.0118,2.1377,2.2394,2.3779,2.5472,2.7459,2.8301,2.9168,3.0097,2.9952,2.9377,2.8334,2.7564,2.6682,2.5625,2.4485,2.3796,2.3398,2.1764,2.0735,2.0155,2.0067,1.9608,1.9032,1.8915,1.8821,1.8489,1.6331,1.5918,1.6312,1.4914,1.4805,1.5294,1.4628,1.3965,1.3373,1.3373,1.3373,1.3373,1.3373,1.3415,1.3327,1.2522,1.2357,1.2273,1.1622,1.2336,1.3201,1.3247,1.401,1.477,1.477,1.501,1.5234,1.5234,1.5234,1.5251,1.5451,1.548,1.5463,1.5664,1.6342,1.6684,1.6242,1.6883,1.7071,1.6237,1.6059,1.5722,1.4874,1.4874,1.456,1.361,1.3639,1.3485,1.3083,1.3075,1.3036,1.3009,1.3009,1.3009,1.3009,1.3009,1.3009,1.3017,1.3434,1.36,2.3374,2.3118,2.2949,2.3429,2.3126,2.2776,2.2878,2.2415,0.0,0.0,2.0532,2.0459,2.0442,2.0039,1.9841,2.0392,2.0442,2.0581,2.1084,1.999,1.9163,1.9281,1.897,1.8677,1.8402,2.0322,2.1752,2.2199,2.3961,2.5438,2.6374,2.7148,2.7847,2.845,2.8376,2.8089,2.7579,2.8196,2.7315,2.4957,2.5681,2.507,2.3329,2.3135,2.2773,2.2193,2.1649,2.1037,2.0434,1.9774,1.9218,1.8543,1.6957,1.6368,1.6368,1.5517,1.5294,1.5352,1.5235,1.5108,1.505,1.505,1.505,1.505,1.505,1.5298,1.5463,1.4648,1.3936,1.3412,1.3598,1.3996,1.4473,1.4784,1.4969,1.5151,1.5151,1.5192,1.5234,1.5234,1.5234,1.5547,1.6669,1.6581,1.6754,1.7906,1.7877,1.7774,1.7707,1.7543,1.736,1.7187,1.6826,1.6485,1.6391,1.6747,1.6711,1.6176,1.4793,1.3861,1.3502,1.3487,1.336,1.3017,1.3009,1.3009,1.3009,1.3009,1.3009,1.3017,1.3434,1.36,2.1431,2.0954,2.0598,2.0798,2.1167,2.1547,2.1766,2.1073,2.029,2.0091,2.0001,1.9863,1.9561,2.0117,2.087,2.1334,2.0394,1.9639,1.9889,1.9132,1.8567,1.839,1.8473,1.8603,1.8647,1.9851,2.1105,2.2132,2.2907,2.414,2.5932,2.6391,2.701,2.7904,2.7939,2.7556,2.6767,2.7959,2.7647,2.5827,2.5641,2.5141,2.4335,2.4097,2.3535,2.2649,2.1993,2.1342,2.0746,2.0016,1.9554,1.9202,1.8124,1.7688,1.7578,1.6415,1.5748,1.541,1.541,1.5566,1.5723,1.5488,1.5566,1.5762,1.5762,1.5908,1.6052,1.5913,1.5405,1.4815,1.453,1.5044,1.5782,1.5887,1.6367,1.6724,1.6724,1.6724,1.6788,1.6997,1.6869,1.7064,1.814,1.7967,1.7891,1.8533,1.8467,1.8271,1.8037,1.7833,1.7736,1.7736,1.7552,1.73,1.7116,1.7275,1.7338,1.7074,1.6065,1.5423,1.5267,1.5277,1.5069,1.466,1.466,1.455,1.4332,1.4332,1.4441,1.466,1.5069,1.5442,1.923,1.8715,1.8313,1.8425,0.0,2.0055,2.0636,1.9689,1.8874,1.9332,1.9095,1.8584,1.776,1.9173,2.0477,2.0565,1.9674,1.8899,1.8874,1.8477,1.8066,1.7899,1.8078,1.8317,1.8566,1.9409,2.055,2.188,2.213,2.3244,2.5492,2.5597,2.6086,2.7168,2.7254,2.6851,2.5897,2.7116,2.7132,2.5985,2.5501,2.5109,2.4751,2.4288,2.3671,2.286,2.2235,2.1694,2.1175,2.0534,2.0144,1.9952,1.9032,1.8501,1.8058,1.6922,1.6036,1.542,1.5751,1.6128,1.6357,1.6018,1.6208,1.6496,1.6215,1.6262,1.6507,1.702,1.6749,1.6233,1.5528,1.6142,1.6922,1.6922,1.7577,1.8154,1.8154,1.8232,1.8408,1.873,1.8525,1.8516,1.918,1.9014,1.8789,1.8789,1.8789,1.8672,1.835,1.8223,1.8125,1.8125,1.8095,1.791,1.7561,1.7561,1.7537,1.7521,1.7106,1.6842,1.6854,1.6873,1.668,1.623,1.6221,1.6055,1.5723,1.5723,1.5889,1.623,1.668,1.7061,1.7401,1.6921,1.6598,1.702,1.7478,1.8024,1.8857,1.824,1.7491,1.7807,1.703,1.6109,1.5138,1.5367,1.5783,1.6181,1.7116,1.8257,1.9519,1.9072,1.8775,1.932,1.8438,1.7775,1.7612,1.9405,2.0767,2.1312,2.2575,2.3701,2.4639,2.4505,2.4714,2.537,2.546,2.5323,2.4988,2.5471,2.5115,2.3938,2.578,2.5545,2.3519,2.3304,2.3328,2.3522,2.2897,2.2614,2.2498,2.1852,2.1245,2.0597,1.923,1.7841,1.6652,1.6539,1.6036,1.5585,1.6846,1.7307,1.7328,1.7296,1.7554,1.7615,1.6486,1.6641,1.7481,1.8235,1.8193,1.7726,1.7348,1.7552,1.7862,1.7862,1.8232,1.8594,1.8594,1.8906,1.9209,1.9238,1.9219,1.9219,1.9277,1.9268,1.9238,1.9238,1.9238,1.9228,1.9199,1.8838,1.8546,1.8594,1.8203,1.8008,1.793,1.793,1.7959,1.7929,1.7581,1.7358,1.733,1.7368,1.7129,1.6699,1.668,1.667,1.6641,1.6641,1.6587,1.6699,1.7139,1.7353,1.6279,1.5904,1.5452,1.5101,1.526,0.0,1.7073,1.6268,1.542,1.5783,1.5661,1.5441,1.5191,1.5388,1.568,1.5886,1.6444,1.6957,1.7282,1.735,1.7361,1.7245,1.7771,1.8253,1.8517,1.9495,2.0566,2.1659,2.2198,2.2911,2.3858,2.4355,2.479,2.5197,2.5269,2.5162,2.4894,2.5509,2.5205,2.4014,2.5169,2.5338,2.4563,2.3527,2.3463,2.4028,2.2681,2.2294,2.2649,2.1993,2.1568,2.1293,2.0357,1.9385,1.844,1.844,1.818,1.7884,1.8423,1.8736,1.8934,1.8647,1.8868,1.9109,1.8617,1.8698,1.8988,1.9017,1.8909,1.8747,1.8649,1.8275,1.8076,1.834,1.8525,1.8711,1.8984,1.917,1.9365,1.9629,1.9463,1.9453,1.999,1.9863,1.9678,1.9678,1.9678,1.958,1.9316,1.915,1.9017,1.9053,1.8644,1.8398,1.8398,1.8115,1.8008,1.8008,1.7842,1.7745,1.7745,1.7765,1.7599,1.7167,1.7106,1.7002,1.6665,1.6665,1.6875,1.7139,1.7305,1.7529,1.5174,1.4618,1.4093,1.3651,0.0,0.0,1.4818,1.4349,1.379,1.4203,1.4085,1.3964,1.4246,1.4474,1.4631,1.4704,1.5209,1.5544,1.5402,1.5896,1.6196,1.5983,1.6971,1.7879,1.8412,1.9067,2.0119,2.1673,2.194,2.2588,2.379,2.4375,2.4835,2.5177,2.5284,2.5219,2.5,2.5721,2.5611,2.469,2.4885,2.493,2.4792,2.3309,2.3185,2.4055,2.2569,2.2321,2.292,2.2285,2.1758,2.139,2.0979,2.0321,1.9591,1.9591,1.9354,1.912,1.9675,1.9953,2.0007,1.9955,2.0171,2.0426,2.002,2.0014,2.0154,2.0116,1.9944,1.9791,2.026,1.9318,1.8281,1.8494,1.8848,1.9121,1.9424,1.959,1.984,2.0416,2.0312,2.0441,2.1349,2.1271,2.1066,2.1066,2.1066,2.0805,2.0226,2.0066,1.9875,1.9809,1.9494,1.9374,1.974,1.9114,1.8652,1.8652,1.8476,1.8291,1.8008,1.8008,1.7842,1.7571,1.7561,1.7432,1.7129,1.7129,1.7285,1.7578,1.7578,1.7734,1.3967,1.3085,1.2396,1.2779,1.2012,1.133,1.2037,1.2461,1.2871,1.3393,1.213,1.1169,1.175,1.1864,1.1864,1.1864,1.2885,1.3905,1.4385,1.5028,1.5623,1.6043,1.6252,1.6525,1.6814,1.8046,1.9488,2.1177,2.1971,2.3038,2.4513,2.4474,2.4649,2.5177,2.5328,2.533,2.5197,2.5925,2.6095,2.567,2.502,2.4416,2.3854,2.2327,2.2337,2.3563,2.2683,2.2812,2.3551,2.2979,2.1941,2.0795,2.0795,2.0321,1.9634,1.9634,1.9132,1.8771,2.0594,2.0866,2.0519,2.1045,2.151,2.1658,2.0307,2.0261,2.0782,2.169,2.1302,2.096,2.2327,2.0649,1.8643,1.8643,1.9297,1.9912,1.9922,2.034,2.0934,2.1811,2.2027,2.2328,2.3294,2.3514,2.3514,2.3514,2.3514,2.3147,2.2103,2.1639,2.1271,2.0889,2.0836,2.1167,2.2161,2.0888,2.0086,2.0086,1.9599,1.8927,1.8027,1.8008,1.8008,1.8008,1.8008,1.8008,1.8008,1.8008,1.8008,1.8008,1.8008,1.8008,1.3719,1.3471,1.3275,1.1963,1.2039,1.2173,1.1262,1.13,1.1597,1.197,1.1451,1.1049,1.1216,1.1416,1.149,1.1283,1.2244,1.3035,1.3202,1.3902,1.4623,1.5212,1.586,1.6919,1.8546,1.908,2.0172,2.2067,2.2417,2.297,2.3974,2.4445,2.491,2.5395,2.5361,2.5291,2.5197,2.5317,2.5215,2.4867,2.418,2.4284,2.4965,2.3177,2.2943,2.3912,2.3336,2.3264,2.361,2.3421,2.2875,2.2128,2.2128,2.1952,2.1665,2.1172,2.111,2.1272,2.1356,2.1572,2.1782,2.1885,2.2305,2.2665,2.225,2.225,2.231,2.2002,2.169,2.1544,2.1732,2.1363,2.1096,2.1501,2.1804,2.2096,2.2347,2.253,2.2702,2.2999,2.3073,2.3147,2.3441,2.3514,2.3514,2.3514,2.3514,2.3368,2.3073,2.2952,2.2809,2.2739,2.243,2.2373,2.2644,2.1658,2.1011,2.1035,2.0543,1.9797,1.8937,1.9526,1.9515,1.8927,1.8946,1.8596,1.8008,1.8008,1.8008,1.8008,1.8008,1.8008,1.364,1.3237,1.2893,1.1842,1.1836,1.1787,1.0807,1.0759,1.0902,1.1196,1.1022,1.0855,1.0969,1.1042,1.1048,1.1058,1.161,1.2322,1.3029,1.3584,1.427,1.5215,1.6056,1.7213,1.8924,1.9505,2.0472,2.2266,2.264,2.315,2.3953,2.4501,2.5027,2.5485,2.54,2.5325,2.5313,2.5192,2.5114,2.5078,2.4229,2.4327,2.5198,2.3682,2.3441,2.4241,2.3904,2.3661,2.3474,2.3576,2.3246,2.2694,2.2694,2.2649,2.2501,2.1859,2.1786,2.2008,2.1627,2.1556,2.1732,2.2171,2.2535,2.2849,2.3015,2.3078,2.3017,2.2506,2.2384,2.2382,2.2391,2.2768,2.3071,2.2967,2.3014,2.3167,2.3458,2.3514,2.3599,2.4036,2.4108,2.4181,2.4624,2.4696,2.4696,2.4696,2.4337,2.4108,2.4108,2.3745,2.3672,2.4036,2.3844,2.3885,2.4319,2.3237,2.2559,2.2541,2.1847,2.1221,2.0662,2.0635,2.0336,1.9822,1.9802,1.9365,1.8529,1.8529,1.8337,1.8008,1.8008,1.8105,1.3491,1.2528,1.1817,1.2139,1.1394,1.0624,1.0624,1.0624,1.0698,1.0902,1.0722,1.0601,1.0868,1.0739,1.0691,1.0988,1.1226,1.1904,1.3591,1.3879,1.4489,1.5925,1.6669,1.7496,1.8549,1.9522,2.0703,2.2073,2.28,2.3518,2.4288,2.4629,2.5041,2.5495,2.5421,2.5434,2.5505,2.537,2.5497,2.5872,2.4816,2.4487,2.4815,2.3873,2.3806,2.4435,2.4272,2.3853,2.3302,2.3402,2.3171,2.2785,2.2727,2.2705,2.2616,2.1931,2.1676,2.1653,2.1565,2.1205,2.0936,2.2009,2.2329,2.2422,2.2915,2.3078,2.3078,2.3078,2.3078,2.3215,2.3904,2.4406,2.448,2.3375,2.3455,2.3734,2.3734,2.3734,2.4036,2.4933,2.5158,2.5441,2.6314,2.6533,2.6533,2.6533,2.5734,2.5158,2.5158,2.4337,2.4108,2.5004,2.5158,2.5523,2.6383,2.5188,2.4437,2.4406,2.348,2.2848,2.276,2.156,2.0892,2.078,2.0816,2.0379,1.9494,1.9428,1.8983,1.8193,1.8066,1.8291,1.2192,1.1936,1.203,1.1178,1.0759,1.0624,1.0624,1.0624,1.0645,1.0641,1.0421,1.0234,1.0294,1.0527,1.0697,1.0797,1.2145,1.3368,1.3767,1.4461,1.5441,1.669,1.7023,1.7826,1.9666,2.0558,2.1504,2.2716,2.3426,2.4026,2.4512,2.4809,2.5126,2.5486,2.5372,2.5375,2.5505,2.537,2.5222,2.5054,2.4535,2.4319,2.4328,2.3952,2.3829,2.3817,2.3091,2.2964,2.3225,2.2435,2.2614,2.3376,2.2886,2.2978,2.3289,2.2698,2.2465,2.2386,2.1814,2.1565,2.1524,2.2174,2.2329,2.2422,2.2915,2.3078,2.3078,2.3078,2.3078,2.3315,2.4381,2.4406,2.4342,2.4883,2.5455,2.5861,2.5861,2.5861,2.5943,2.6164,2.6176,2.6245,2.6452,2.6533,2.6533,2.6533,2.6314,2.6176,2.6176,2.6013,2.5943,2.6164,2.6176,2.6233,2.6452,2.5753,2.5301,2.5314,2.4731,2.3977,2.3213,2.3256,2.2959,2.2268,2.268,2.222,2.0964,2.024,1.9776,1.9493,1.8765,1.873,1.2613,1.2046,1.1607,1.0795,1.0624,1.0624,1.0624,1.0624,1.0624,1.0624,1.0321,1.0147,1.0198,1.035,1.0777,1.1542,1.2599,1.362,1.4546,1.531,1.6182,1.7091,1.7841,1.8848,2.0313,2.1348,2.2367,2.3408,2.3949,2.4398,2.4769,2.4924,2.5157,2.5486,2.5363,2.5369,2.5505,2.537,2.5126,2.4804,2.4625,2.4351,2.3974,2.4063,2.3887,2.3516,2.3135,2.298,2.2905,2.227,2.2373,2.298,2.275,2.2877,2.3148,2.2818,2.2694,2.2603,2.1946,2.1677,2.1716,2.2234,2.2627,2.2936,2.3052,2.3365,2.3603,2.3185,2.3078,2.3215,2.3866,2.4004,2.4142,2.4695,2.5448,2.605,2.605,2.6332,2.6533,2.6533,2.6533,2.6533,2.6533,2.6533,2.6533,2.6533,2.6533,2.6533,2.6533,2.6533,2.6533,2.6533,2.6533,2.6533,2.6533,2.6202,2.6058,2.6058,2.5505,2.4921,2.4439,2.4205,2.3561,2.2327,2.2624,2.2207,2.0997,2.0583,2.0107,1.9626,1.915,1.918,1.3139,1.2075,1.0959,1.0683,1.0624,1.0624,1.0624,1.0681,1.0793,1.0739,1.0363,1.0123,1.0328,1.0354,1.0906,1.253,1.2956,1.3716,1.5353,1.6133,1.6773,1.7381,1.8769,1.9967,2.0671,2.1927,2.3047,2.3913,2.4335,2.4712,2.5022,2.5046,2.5198,2.5486,2.5391,2.5378,2.5486,2.539,2.5126,2.4804,2.4731,2.4353,2.371,2.3975,2.3798,2.3294,2.3335,2.3046,2.2573,2.2228,2.2174,2.2324,2.2409,2.248,2.2536,2.2688,2.2685,2.264,2.2197,2.1946,2.1938,2.2425,2.3026,2.3587,2.3404,2.3794,2.4176,2.3484,2.3185,2.3175,2.3315,2.364,2.3904,2.4092,2.4745,2.5372,2.5548,2.5975,2.6408,2.6508,2.6533,2.6533,2.6533,2.6533,2.6533,2.6533,2.6533,2.6533,2.6533,2.6533,2.6533,2.6533,2.6609,2.6672,2.6672,2.6672,2.6647,2.6665,2.6083,2.5716,2.5505,2.4715,2.3646,2.2214,2.2151,2.1756,2.0986,2.0801,2.035,1.9604,1.9468,1.9629,1.1169,1.0871,1.0634,1.0611,1.0624,1.0624,1.0624,1.117,1.1567,1.1278,1.046,0.9938,1.0521,1.0677,1.1167,1.258,1.3737,1.4732,1.5499,1.6489,1.7381,1.7947,1.9258,2.0322,2.0927,2.2265,2.3307,2.3784,2.4412,2.4896,2.5243,2.5264,2.5331,2.5486,2.5434,2.5424,2.5495,2.5428,2.5195,2.4804,2.4462,2.4077,2.3692,2.3453,2.3154,2.2763,2.2141,2.2143,2.2523,2.1585,2.1623,2.2269,2.1707,2.1645,2.1904,2.248,2.2718,2.275,2.3185,2.2995,2.2672,2.3183,2.3448,2.3675,2.4108,2.4252,2.4292,2.4176,2.3662,2.3303,2.4343,2.3929,2.3502,2.4481,2.4456,2.4469,2.5398,2.5649,2.5862,2.6433,2.6533,2.6533,2.6533,2.6533,2.6533,2.6533,2.6533,2.6533,2.6533,2.6533,2.6533,2.6533,2.6892,2.7168,2.7168,2.7168,2.7195,2.7181,2.6678,2.5977,2.5152,2.4985,2.4409,2.3297,2.3309,2.297,2.2434,2.1691,2.1176,2.0896,2.0188,2.0068,1.0759,1.0624,1.0681,1.117,1.0926,1.0744,1.117,1.1531,1.1789,1.1585,1.1203,1.1064,1.16,1.1834,1.2327,1.3632,1.463,1.5531,1.6446,1.7491,1.8324,1.8873,2.0309,2.1434,2.1859,2.2853,2.3728,2.4309,2.4625,2.4955,2.5274,2.5303,2.537,2.5505,2.5438,2.543,2.5505,2.5436,2.5195,2.4804,2.4512,2.4229,2.3976,2.3631,2.3189,2.2669,2.2198,2.2158,2.2365,2.1638,2.1424,2.156,2.1377,2.1225,2.1276,2.2293,2.2724,2.2813,2.3385,2.3421,2.326,2.3429,2.4077,2.4661,2.449,2.4627,2.4851,2.4408,2.3953,2.3653,2.3828,2.3753,2.3665,2.3841,2.3941,2.4217,2.4996,2.5385,2.5774,2.6352,2.6533,2.6533,2.6533,2.6533,2.6533,2.6533,2.6533,2.6533,2.6533,2.6533,2.6533,2.6533,2.6954,2.7155,2.6854,2.7155,2.7143,2.6848,2.6653,2.6308,2.5859,2.5294,2.4811,2.438,2.3207,2.2789,2.3143,2.2179,2.1711,2.1659,2.1808,2.1408,1.0683,1.0624,1.08,1.1586,1.1351,1.1108,1.1896,1.2258,1.2443,1.2443,1.2572,1.2797,1.3118,1.2965,1.3253,1.4687,1.541,1.6145,1.7146,1.8271,1.9163,1.9652,2.1113,2.2228,2.2574,2.327,2.3984,2.4629,2.4756,2.4955,2.5274,2.5303,2.5341,2.5466,2.5446,2.5444,2.5468,2.5354,2.513,2.4804,2.461,2.4393,2.419,2.3837,2.3414,2.2923,2.2554,2.2398,2.2371,2.194,2.1477,2.1007,2.1164,2.0891,2.0617,2.1934,2.2428,2.2547,2.3325,2.3595,2.3583,2.3518,2.4481,2.55,2.4875,2.5045,2.5287,2.4738,2.4313,2.3904,2.3464,2.3678,2.3891,2.3452,2.369,2.4192,2.487,2.5435,2.5937,2.6445,2.6533,2.6533,2.6533,2.6533,2.6533,2.6533,2.6533,2.6584,2.6722,2.6666,2.6798,2.6866,2.7243,2.7318,2.6917,2.7122,2.7122,2.6741,2.6553,2.6533,2.6533,2.5753,2.5387,2.5387,2.3672,2.2886,2.3134,2.2158,2.1626,2.1676,2.2435,2.1973,1.0618,1.0624,1.08,1.1586,1.1772,1.1958,1.2757,1.3545,1.4085,1.4085,1.453,1.4914,1.4945,1.3771,1.3375,1.5252,1.6003,1.6562,1.7216,1.8593,1.9652,1.995,2.1248,2.2228,2.2574,2.327,2.3868,2.429,2.4625,2.4955,2.5274,2.5303,2.5322,2.5409,2.5454,2.5471,2.5405,2.5148,2.4956,2.4804,2.461,2.4393,2.419,2.3837,2.3692,2.361,2.2972,2.2669,2.266,2.2371,2.1751,2.1007,2.1007,2.0494,1.9899,2.1246,2.1739,2.1919,2.3176,2.3595,2.361,2.3596,2.4492,2.5615,2.555,2.5451,2.5398,2.5342,2.4701,2.3991,2.3966,2.3979,2.3991,2.3966,2.3979,2.428,2.5322,2.6013,2.6496,2.6521,2.6533,2.6533,2.6533,2.6533,2.6533,2.6533,2.6533,2.6653,2.7168,2.7243,2.7444,2.7959,2.8047,2.8047,2.8021,2.757,2.7318,2.7226,2.6804,2.6533,2.6533,2.644,2.6427,2.6427,2.5391,2.3948,2.2092,2.1107,2.0663,2.0642,2.0698,2.0712,1.0434,1.0624,1.08,1.1586,1.1546,1.1632,1.2769,1.3175,1.3543,1.4105,1.4418,1.4858,1.5564,1.5097,1.4914,1.5959,1.6617,1.7395,1.8593,1.9453,2.0309,2.1234,2.2204,2.2937,2.327,2.3756,2.4192,2.4595,2.4723,2.4955,2.5274,2.5303,2.5341,2.5466,2.5492,2.5489,2.5464,2.5284,2.5061,2.4804,2.4731,2.4528,2.4208,2.4074,2.4016,2.3996,2.3323,2.2898,2.2669,2.2398,2.1945,2.1368,2.1086,2.0632,2.0238,2.1302,2.1695,2.1874,2.3161,2.3595,2.367,2.4118,2.4881,2.5689,2.6108,2.5856,2.5398,2.5398,2.4978,2.4443,2.4092,2.4506,2.5021,2.5021,2.477,2.482,2.5912,2.6382,2.6533,2.6533,2.6533,2.6533,2.6533,2.6753,2.6979,2.6979,2.6979,2.718,2.7745,2.7507,2.7356,2.7557,2.7896,2.7821,2.7105,2.7193,2.7143,2.6829,2.659,2.6533,2.6533,2.6533,2.6665,2.7023,2.5716,2.4968,2.4915,2.3242,2.2757,2.3402,2.2735,2.2098,0.9907,1.0364,1.0843,1.176,1.1647,1.1676,1.305,1.3323,1.3557,1.4326,1.473,1.5174,1.5946,1.6124,1.6275,1.6646,1.73,1.8207,1.9426,2.0307,2.1175,2.2156,2.2937,2.35,2.3855,2.4074,2.4357,2.4775,2.4804,2.4955,2.5312,2.5303,2.537,2.5506,2.5487,2.5505,2.5495,2.539,2.5179,2.4869,2.4814,2.4623,2.4303,2.4228,2.419,2.417,2.35,2.3069,2.2848,2.2453,2.2032,2.1552,2.115,2.0715,2.0416,2.1363,2.1695,2.1874,2.3161,2.3595,2.3714,2.4403,2.5076,2.5734,2.6393,2.6029,2.5439,2.5646,2.5269,2.4745,2.4368,2.4808,2.5385,2.5548,2.5335,2.5335,2.6264,2.6533,2.6533,2.6533,2.6533,2.6584,2.6703,2.6879,2.7067,2.7256,2.7281,2.7482,2.8034,2.7946,2.7908,2.8109,2.8273,2.8084,2.7356,2.7457,2.744,2.7056,2.6898,2.6842,2.7005,2.6867,2.7023,2.7528,2.6565,2.613,2.6253,2.4071,2.3323,2.3994,2.2938,2.2208,0.0,0.0,0.0,1.2047,1.2077,1.2253,1.3736,1.4157,1.4359,1.5014,1.5566,1.6058,1.6279,1.6848,1.7312,1.7312,1.8168,1.9016,1.957,2.1067,2.2228,2.2574,2.327,2.3837,2.417,2.4209,2.4375,2.4775,2.4804,2.4987,2.537,2.5341,2.5382,2.5503,2.5493,2.5508,2.5495,2.5438,2.5261,2.4991,2.4883,2.47,2.4495,2.4284,2.419,2.417,2.35,2.3212,2.3141,2.2561,2.2032,2.1598,2.115,2.0715,2.0416,2.1363,2.1695,2.1874,2.3161,2.3595,2.3714,2.4403,2.5076,2.5734,2.6393,2.6029,2.5522,2.6059,2.5546,2.4808,2.4833,2.4833,2.4958,2.5498,2.5598,2.5749,2.6339,2.6533,2.6533,2.6533,2.6546,2.6653,2.7193,2.6866,2.6716,2.7256,2.7331,2.7532,2.8084,2.8612,2.9139,2.9704,2.9264,2.8925,2.89,2.8411,2.8069,2.8071,2.7602,2.7557,2.8119,2.7608,2.7541,2.8088,2.8052,2.7271,2.5807,2.3306,2.206,2.2056,2.1106,2.0884,0.6785,0.0,0.0,0.0,0.0,0.0,1.387,1.4129,1.4382,1.5334,1.5523,1.5643,1.6209,1.6848,1.7422,1.7827,1.8707,1.9662,2.0501,2.1469,2.2327,2.2961,2.3437,2.3881,2.4374,2.4428,2.4556,2.4911,2.4937,2.5061,2.5322,2.5409,2.5476,2.5567,2.5566,2.5566,2.5576,2.5515,2.5351,2.5079,2.4885,2.4681,2.4495,2.4284,2.419,2.417,2.3753,2.3414,2.3141,2.2561,2.2209,2.2032,2.1291,2.0926,2.0872,2.1478,2.1695,2.1874,2.3161,2.3595,2.3714,2.4403,2.5076,2.5734,2.6393,2.6029,2.555,2.6226,2.5745,2.5231,2.5973,2.5869,2.5691,2.6123,2.59,2.5749,2.6339,2.6533,2.6533,2.6533,2.6779,2.7105,2.7256,2.7821,2.8298,2.8448,2.8473,2.8687,2.9252,2.9101,2.8988,2.9151,2.9026,2.8762,2.836,2.8192,2.8122,2.813,2.7961,2.7931,2.8112,2.7937,2.7786,2.7555,2.7167,2.6551,2.5667,2.4305,2.3666,2.3604,2.2891,2.2402,0.2951,0.5463,0.7555,0.9624,0.0,0.0,1.3471,1.3654,1.3699,1.4686,1.5092,1.5491,1.6224,1.7046,1.7854,1.8622,1.9652,2.0588,2.1133,2.1995,2.2788,2.3346,2.3692,2.4058,2.4461,2.4495,2.4651,2.4967,2.501,2.5088,2.5303,2.5452,2.5557,2.5557,2.5615,2.5625,2.5605,2.5566,2.5441,2.523,2.4943,2.4733,2.4607,2.4339,2.419,2.417,2.3855,2.3522,2.3165,2.2669,2.2398,2.2209,2.1323,2.0991,2.1005,2.1196,2.1455,2.1844,2.2862,2.3385,2.3714,2.4403,2.4836,2.533,2.5974,2.564,2.5162,2.6144,2.5935,2.5581,2.6104,2.6026,2.5897,2.6375,2.6201,2.605,2.6389,2.6533,2.6533,2.6533,2.6904,2.7356,2.7595,2.816,2.8662,2.89,2.8925,2.9038,2.9416,2.9327,2.9289,2.9289,2.9289,2.9164,2.8837,2.8836,2.8834,2.8834,2.8562,2.8524,2.8831,2.8571,2.8188,2.7603,2.7324,2.644,2.5016,2.4283,2.368,2.3266,2.3083,2.2822,-0.238,0.0942,0.4167,0.7871,0.9021,0.0,1.2905,1.3094,1.2967,1.3947,1.4993,1.5927,1.6641,1.7666,1.8736,1.9822,2.0862,2.1573,2.1573,2.2531,2.3369,2.3671,2.3996,2.4284,2.4512,2.4545,2.4682,2.501,2.5034,2.5111,2.5303,2.5472,2.5547,2.5493,2.5613,2.5664,2.5605,2.5605,2.5547,2.5415,2.503,2.4828,2.479,2.441,2.4228,2.417,2.3896,2.3544,2.3165,2.2873,2.2563,2.2209,2.1323,2.0991,2.099,2.0847,2.1201,2.1799,2.2517,2.3131,2.3699,2.4313,2.4522,2.4686,2.533,2.4969,2.4623,2.5734,2.5958,2.5805,2.565,2.563,2.5794,2.637,2.6533,2.6533,2.6533,2.6533,2.6533,2.6533,2.6954,2.7532,2.8021,2.821,2.8461,2.895,2.9026,2.9001,2.8975,2.9491,2.9792,2.9792,2.9792,2.9792,2.9792,2.9792,2.9792,2.9792,2.9282,2.9155,2.9549,2.9123,2.8494,2.7758,2.7606,2.6379,2.4103,2.3481,2.2755,2.1974,2.2386,2.2578,-1.0297,-0.5541,-0.0646,0.2628,0.6126,0.0,1.3275,1.4223,1.4785,1.5942,1.7264,1.8402,1.9098,1.9644,2.055,2.2096,2.2141,2.1967,2.1967,2.2919,2.3628,2.3692,2.3996,2.4339,2.47,2.4746,2.4883,2.5214,2.5234,2.5283,2.538,2.5415,2.5466,2.5508,2.5574,2.5605,2.5605,2.5644,2.5613,2.5473,2.5232,2.5003,2.479,2.4561,2.4339,2.4208,2.4113,2.3774,2.3189,2.3117,2.2798,2.2209,2.1323,2.0991,2.1053,2.1379,2.159,2.1859,2.3011,2.349,2.3625,2.3759,2.4178,2.4612,2.4777,2.4609,2.4422,2.4662,2.5057,2.5534,2.5752,2.5827,2.5973,2.6405,2.6533,2.6533,2.6533,2.6533,2.6533,2.6533,2.7268,2.7984,2.8084,2.8863,2.9503,2.9616,2.9616,2.9616,2.9591,2.9704,2.9792,2.9792,2.9792,2.9792,2.9792,2.9792,2.9792,2.9792,2.9664,2.9269,2.8484,2.8303,2.7339,2.5466,2.4518,2.3807,2.3327,2.2863,2.2563,2.2376,2.2842,2.3018,-1.6346,-1.2569,-0.8733,-0.5621,-0.1146,0.0,0.0,1.1567,1.446,1.7157,1.8969,2.0385,2.1301,2.1856,2.2538,2.3534,2.3493,2.3453,2.3759,2.3825,2.3906,2.4098,2.4338,2.4588,2.4877,2.4904,2.5005,2.5274,2.5303,2.5303,2.5341,2.539,2.5427,2.5444,2.5529,2.558,2.5605,2.5625,2.5622,2.5542,2.5321,2.5072,2.478,2.4588,2.4393,2.419,2.419,2.3917,2.3455,2.3259,2.2915,2.2419,2.1383,2.0991,2.1037,2.1135,2.141,2.1844,2.2802,2.334,2.3595,2.3595,2.4059,2.4537,2.4187,2.4213,2.4382,2.4184,2.4669,2.532,2.5688,2.573,2.5884,2.6388,2.6533,2.6533,2.6533,2.6533,2.6533,2.6533,2.7356,2.8109,2.8109,2.88,2.9453,2.9741,2.9792,2.9664,2.9397,2.9372,2.9372,2.9372,2.9372,2.9499,2.9779,2.9792,2.9537,2.9003,2.8978,2.8421,2.7392,2.7264,2.653,2.482,2.372,2.3135,2.3135,2.2911,2.2805,2.2832,2.3047,2.3135,-2.1563,-1.8993,-1.6395,-1.3334,-0.8718,-0.3615,0.0,0.0,0.0,1.6028,1.9654,2.2332,2.3188,2.3848,2.4477,2.5152,2.5264,2.5464,2.5997,2.5405,2.4955,2.5043,2.4888,2.4912,2.5215,2.5435,2.5485,2.5322,2.561,2.5649,2.5322,2.5341,2.539,2.539,2.5447,2.551,2.557,2.5584,2.5605,2.5605,2.5376,2.509,2.4784,2.4629,2.4428,2.4208,2.4113,2.3917,2.3566,2.3236,2.2898,2.2529,2.1428,2.0991,2.1006,2.0907,2.1246,2.1799,2.2577,2.3176,2.3595,2.3595,2.4059,2.4461,2.3693,2.3895,2.4313,2.394,2.431,2.4974,2.538,2.5523,2.5737,2.6395,2.6533,2.6533,2.6533,2.6533,2.6533,2.6533,2.7268,2.7984,2.8084,2.8649,2.9252,2.9729,2.9792,2.9549,2.8991,2.8889,2.8889,2.8889,2.8889,2.9142,2.9767,2.9608,2.9094,2.8192,2.7913,2.7265,2.6226,2.5932,2.5424,2.4466,2.3612,2.3135,2.3135,2.3135,2.3135,2.3135,2.3135,2.3135,-2.6517,-2.3236,-1.9451,-1.6719,-1.2631,-0.8364,-0.4842,0.0,0.529,0.9861,0.0,2.4721,2.4612,0.0,0.0,2.7993,2.7969,2.7801,2.8113,2.8212,2.7945,2.7077,2.5691,2.5158,2.6054,2.7002,2.6937,2.5399,2.6736,2.6928,2.538,2.5303,2.5303,2.5303,2.539,2.5438,2.5511,2.557,2.5605,2.5605,2.5512,2.5224,2.4797,2.4776,2.4561,2.417,2.3896,2.3566,2.3212,2.2898,2.259,2.2248,2.1354,2.0991,2.1069,2.144,2.1635,2.1859,2.3071,2.3535,2.3595,2.3595,2.4059,2.4443,2.3638,2.3868,2.4218,2.3454,2.3664,2.4255,2.4757,2.5247,2.5737,2.6395,2.6533,2.6533,2.6533,2.6533,2.6533,2.6533,2.6954,2.7532,2.8021,2.8988,2.9716,2.9779,2.9792,2.9549,2.8991,2.8889,2.8889,2.8889,2.8889,2.9142,2.9767,2.8855,2.8269,2.814,2.7189,2.6173,2.5047,2.3984,2.3398,2.3281,2.3154,2.3135,2.3135,2.3135,2.3135,2.3135,2.3135,2.3135,-2.78,-2.5896,-2.3971,-2.3467,-1.9093,-1.4136,-1.1089,-0.4883,0.2109,0.8729,0.0,0.0,0.0,0.0,0.0,0.0,2.7152,2.7998,2.8831,2.8398,2.8037,2.8164,2.7729,2.7379,2.7292,2.8151,2.7757,2.5466,2.6949,2.719,2.5409,2.5303,2.5303,2.5303,2.5322,2.539,2.5505,2.5537,2.5566,2.5607,2.5537,2.5239,2.4798,2.4808,2.4575,2.417,2.3855,2.361,2.3437,2.2923,2.2634,2.2429,2.1413,2.0991,2.1054,2.1358,2.1553,2.1829,2.2742,2.3295,2.3729,2.4507,2.4356,2.3971,2.444,2.4133,2.3625,2.3647,2.4042,2.4607,2.5134,2.5686,2.6163,2.6471,2.6533,2.6533,2.6533,2.6533,2.6533,2.6533,2.7168,2.7833,2.8059,2.8762,2.9402,2.9741,2.9792,2.9549,2.8991,2.8889,2.8664,2.808,2.7983,2.7964,2.7926,2.7452,2.6869,2.6236,2.5183,2.4328,2.3847,2.3378,2.3135,2.3135,2.3135,2.3135,2.3135,2.3135,2.3135,2.3135,2.3135,2.3135,-2.7447,-2.664,-2.6109,-2.7093,-2.3503,-1.9104,-1.668,-1.0611,-0.3245,0.4622,0.8867,0.0,0.0,0.0,2.1918,2.4046,0.0,2.7081,2.8146,2.8043,2.833,2.9567,2.9785,2.955,2.8759,2.9469,2.8902,2.6279,2.7499,2.7479,2.5447,2.5322,2.5322,2.5303,2.5303,2.537,2.5466,2.5493,2.5527,2.5567,2.5524,2.5283,2.4885,2.4832,2.4607,2.4266,2.3777,2.3566,2.3522,2.2865,2.2599,2.252,2.1672,2.1197,2.1038,2.1306,2.1538,2.1814,2.2637,2.3221,2.3789,2.4956,2.4742,2.4165,2.4872,2.4477,2.3765,2.3952,2.4393,2.4946,2.546,2.6025,2.6533,2.6533,2.6533,2.6533,2.6533,2.6533,2.6533,2.6533,2.7356,2.8109,2.8109,2.8699,2.9315,2.9729,2.9792,2.9549,2.8991,2.8623,2.8155,2.7347,2.7042,2.6779,2.6474,2.6174,2.5581,2.4405,2.3515,2.3135,2.3135,2.3135,2.3135,2.3135,2.3135,2.3135,2.3135,2.3135,2.3135,2.3135,2.3135,2.3135,-2.5681,-2.4933,-2.4184,-2.5004,-2.4043,-2.2548,-2.135,-1.7954,-1.2946,-0.5542,0.0395,0.659,1.4353,1.5703,1.7426,2.2773,2.438,0.0,0.0,2.7654,2.9782,3.1758,3.1551,3.1028,3.0478,3.1201,3.0689,2.8194,2.88,2.8137,2.5543,2.5409,2.537,2.5303,2.5303,2.5322,2.5409,2.5473,2.5499,2.5503,2.5506,2.5354,2.5082,2.4898,2.4685,2.4442,2.3595,2.323,2.3183,2.2544,2.2293,2.231,2.2265,2.1751,2.1069,2.1523,2.168,2.1874,2.3131,2.358,2.3714,2.4433,2.5045,2.5372,2.4661,2.486,2.5129,2.4246,2.4393,2.4946,2.546,2.6025,2.6533,2.6533,2.6533,2.6533,2.6533,2.6533,2.6533,2.6533,2.7356,2.8109,2.8109,2.9026,2.9779,2.9792,2.9792,2.9549,2.8991,2.7992,2.7369,2.7325,2.6301,2.5893,2.6444,2.5518,2.4382,2.3242,2.3144,2.3135,2.3135,2.3135,2.3135,2.3135,2.3135,2.3135,2.3135,2.3135,2.3135,2.3135,2.3135,2.3135,-2.3825,-2.3008,-2.255,-2.3342,-2.2765,-2.1849,-2.1169,-1.8636,-1.5213,-1.1016,-0.6053,-0.1268,0.2498,0.6974,1.1158,1.4561,1.8058,2.1141,0.0,2.6541,2.9223,3.1029,3.1836,3.2158,3.1968,3.1737,3.0618,2.8207,2.8851,2.8462,2.6362,2.6217,2.6178,2.6159,2.5591,2.5322,2.5409,2.5473,2.5477,2.5426,2.5484,2.5327,2.5031,2.4874,2.4685,2.4442,2.3577,2.3189,2.3141,2.2561,2.231,2.2282,2.1974,2.1477,2.1086,2.1686,2.1796,2.1874,2.3161,2.3595,2.3789,2.4911,2.4761,2.4253,2.4884,2.4788,2.4387,2.4066,2.4644,2.5372,2.5548,2.6025,2.6533,2.6533,2.6533,2.6533,2.6533,2.6533,2.6533,2.6533,2.7356,2.8109,2.8109,2.9051,2.9792,2.9792,2.9792,2.9767,2.9524,2.9155,2.8633,2.7885,2.7504,2.7049,2.6546,2.5432,2.4628,2.4211,2.3551,2.3474,2.4211,2.3464,2.3135,2.3135,2.3135,2.3135,2.3135,2.3135,2.3135,2.3135,2.3135,2.3135,-2.2493,-2.1614,-2.118,-2.2088,-2.1562,-2.079,-2.0722,-1.8638,-1.6067,-1.3798,-1.0306,-0.7248,-0.5707,-0.0615,0.4554,0.8009,1.1909,1.6217,0.0,2.438,2.7154,2.9501,3.1528,3.277,3.2897,3.2569,3.1406,2.9136,2.9523,2.9079,2.7293,2.7171,2.6965,2.6621,2.6063,2.564,2.537,2.5447,2.5446,2.5371,2.5464,2.5369,2.5099,2.4896,2.4731,2.454,2.362,2.3189,2.3141,2.2561,2.2209,2.2032,2.1899,2.1399,2.0875,2.1755,2.2216,2.2488,2.331,2.3595,2.3819,2.5166,2.4791,2.3989,2.5079,2.4776,2.4045,2.3752,2.4481,2.5322,2.5322,2.5887,2.6533,2.6533,2.6533,2.6533,2.6533,2.6533,2.6584,2.6716,2.7494,2.8172,2.836,2.9176,2.9792,2.9792,2.9792,2.9792,2.9792,2.9422,2.8917,2.817,2.7742,2.7267,2.6554,2.5808,2.5378,2.5378,2.4296,2.4049,2.4787,2.3714,2.3135,2.3135,2.3135,2.3135,2.3135,2.3135,2.3135,2.3135,2.3135,2.3135]},{"header":{"parameterUnit":"m.s-1","parameterCategory":1,"la1":30.6,"la2":29.2853,"lo1":-89.7004,"lo2":-87.6739,"dy":0.0162,"dx":0.0183,"nx":112,"ny":82,"refTime":"2023-07-29T12:00:00:Z","depth":0,"parameterNumber":3,"parameterNumberName":"V-component_of_WINDS"},"data":[0.0,0.0,0.0,0.0,0.0,0.0,0.0,0.0,0.0,0.0,0.0,0.0,0.0,0.0,0.0,0.0,0.0,0.0,0.0,0.0,0.0,0.0,0.0,0.0,0.0,0.0,0.0,0.0,0.0,0.0,0.0,0.0,0.0,0.0,0.0,0.0,0.0,0.0,0.0,0.0,0.0,0.0,0.0,0.0,0.0,0.0,0.0,0.0,0.0,0.0,0.0,0.0,0.0,0.0,0.0,0.0,0.0,0.0,0.0,0.0,0.0,0.0,0.0,0.0,0.0,0.0,0.0,0.0,0.0,0.0,0.0,0.0,0.0,0.0,0.0,0.0,0.0,0.0,0.0,0.0,0.0,0.0,0.0,0.0,0.0,0.0,0.0,0.0,0.0,0.0,-2.3532,-2.4664,-2.4783,-2.4626,-2.4166,-2.521,-2.5799,-2.5572,0.0,0.0,0.0,0.0,0.0,0.0,0.0,0.0,0.0,0.0,0.0,0.0,0.0,0.0,0.0,0.0,0.0,0.0,0.0,0.0,0.0,0.0,0.0,0.0,0.0,0.0,0.0,0.0,0.0,0.0,0.0,0.0,0.0,0.0,0.0,0.0,0.0,0.0,0.0,0.0,0.0,0.0,0.0,0.0,0.0,0.0,0.0,0.0,0.0,0.0,0.0,0.0,0.0,0.0,0.0,0.0,0.0,0.0,0.0,0.0,0.0,0.0,0.0,0.0,0.0,0.0,0.0,0.0,0.0,0.0,0.0,0.0,0.0,0.0,0.0,0.0,0.0,0.0,0.0,0.0,0.0,0.0,0.0,0.0,0.0,0.0,0.0,0.0,0.0,0.0,0.0,0.0,0.0,0.0,0.0,0.0,0.0,0.0,0.0,0.0,0.0,0.0,0.0,0.0,-2.3765,-2.2923,-2.3204,-2.3214,-2.2508,-2.3806,-2.4494,-2.4059,0.0,0.0,0.0,0.0,0.0,0.0,0.0,0.0,0.0,0.0,0.0,0.0,0.0,0.0,0.0,0.0,0.0,0.0,0.0,0.0,0.0,0.0,0.0,0.0,0.0,0.0,0.0,0.0,0.0,0.0,0.0,0.0,0.0,0.0,0.0,0.0,0.0,0.0,0.0,0.0,0.0,0.0,0.0,0.0,0.0,0.0,0.0,0.0,0.0,0.0,0.0,0.0,0.0,0.0,0.0,0.0,0.0,0.0,0.0,0.0,0.0,0.0,0.0,0.0,0.0,0.0,0.0,0.0,0.0,0.0,0.0,0.0,0.0,0.0,0.0,0.0,0.0,0.0,0.0,0.0,0.0,0.0,0.0,0.0,0.0,0.0,0.0,0.0,0.0,0.0,0.0,0.0,0.0,0.0,0.0,0.0,0.0,0.0,0.0,0.0,0.0,0.0,0.0,-2.3074,-2.2759,-2.2271,-2.2091,-2.1964,-2.1841,-2.2841,-2.338,-2.3162,-2.5032,0.0,0.0,0.0,0.0,0.0,0.0,0.0,0.0,0.0,0.0,0.0,0.0,0.0,0.0,0.0,0.0,0.0,0.0,0.0,0.0,0.0,0.0,0.0,0.0,0.0,0.0,0.0,0.0,0.0,0.0,0.0,0.0,0.0,0.0,0.0,0.0,0.0,0.0,0.0,0.0,0.0,0.0,0.0,0.0,0.0,0.0,0.0,0.0,0.0,0.0,0.0,0.0,0.0,0.0,0.0,0.0,0.0,0.0,0.0,0.0,0.0,0.0,0.0,0.0,0.0,0.0,0.0,0.0,0.0,0.0,0.0,0.0,0.0,0.0,0.0,0.0,0.0,0.0,0.0,0.0,0.0,0.0,0.0,0.0,0.0,0.0,0.0,0.0,0.0,0.0,0.0,0.0,0.0,0.0,0.0,0.0,0.0,0.0,0.0,0.0,0.0,0.0,-2.2281,-2.1725,-2.1674,-2.1164,-2.0959,-2.1259,-2.192,-2.2368,-2.2556,-2.3642,0.0,0.0,0.0,0.0,0.0,0.0,0.0,0.0,0.0,0.0,0.0,0.0,0.0,0.0,0.0,0.0,0.0,0.0,0.0,0.0,0.0,0.0,0.0,0.0,0.0,0.0,0.0,0.0,0.0,0.0,0.0,0.0,0.0,0.0,0.0,0.0,0.0,0.0,0.0,0.0,0.0,0.0,0.0,0.0,0.0,0.0,0.0,0.0,0.0,0.0,0.0,0.0,0.0,0.0,0.0,0.0,0.0,0.0,0.0,0.0,0.0,0.0,0.0,0.0,0.0,0.0,0.0,0.0,0.0,0.0,0.0,0.0,0.0,0.0,0.0,0.0,0.0,0.0,0.0,0.0,0.0,0.0,0.0,0.0,0.0,0.0,0.0,0.0,0.0,0.0,0.0,0.0,0.0,0.0,0.0,0.0,0.0,0.0,0.0,0.0,0.0,0.0,-2.1702,-2.1254,-2.0485,-2.0366,-2.0348,-2.0382,-2.0828,-2.1415,-2.2096,-2.2865,0.0,0.0,0.0,0.0,0.0,0.0,0.0,0.0,0.0,0.0,0.0,0.0,0.0,0.0,0.0,0.0,0.0,0.0,0.0,0.0,0.0,0.0,0.0,0.0,0.0,0.0,0.0,0.0,0.0,0.0,0.0,0.0,0.0,0.0,0.0,0.0,0.0,0.0,0.0,0.0,0.0,0.0,0.0,0.0,0.0,0.0,0.0,0.0,0.0,0.0,0.0,0.0,0.0,0.0,0.0,0.0,0.0,0.0,0.0,0.0,0.0,0.0,0.0,0.0,0.0,0.0,0.0,0.0,0.0,0.0,0.0,0.0,0.0,0.0,0.0,0.0,0.0,0.0,0.0,0.0,0.0,0.0,0.0,0.0,0.0,0.0,0.0,0.0,0.0,0.0,0.0,0.0,0.0,0.0,0.0,0.0,0.0,0.0,0.0,0.0,0.0,0.0,-2.0974,-2.0635,-2.0333,-2.007,-2.0139,-2.0682,-2.0894,-2.1337,-2.2169,0.0,0.0,0.0,0.0,0.0,0.0,0.0,0.0,0.0,0.0,0.0,0.0,0.0,0.0,0.0,0.0,0.0,0.0,0.0,0.0,0.0,0.0,0.0,0.0,0.0,0.0,0.0,0.0,0.0,0.0,0.0,0.0,0.0,0.0,0.0,0.0,0.0,0.0,0.0,0.0,0.0,0.0,0.0,0.0,0.0,0.0,0.0,0.0,0.0,0.0,0.0,0.0,0.0,0.0,0.0,0.0,0.0,0.0,0.0,0.0,0.0,0.0,0.0,0.0,0.0,0.0,0.0,0.0,0.0,0.0,0.0,0.0,0.0,0.0,0.0,0.0,0.0,0.0,0.0,0.0,0.0,0.0,0.0,0.0,0.0,0.0,0.0,0.0,0.0,0.0,0.0,0.0,0.0,0.0,0.0,0.0,0.0,0.0,0.0,0.0,0.0,0.0,-2.0909,-2.0616,-2.0483,-2.0314,-2.0054,-2.0208,-2.0942,-2.0991,-2.1354,-2.2237,0.0,0.0,0.0,0.0,0.0,0.0,0.0,0.0,0.0,0.0,0.0,0.0,0.0,0.0,0.0,0.0,0.0,0.0,0.0,0.0,0.0,0.0,0.0,0.0,0.0,0.0,0.0,0.0,0.0,0.0,0.0,0.0,0.0,0.0,0.0,0.0,0.0,0.0,0.0,0.0,0.0,0.0,0.0,0.0,0.0,0.0,0.0,0.0,0.0,0.0,0.0,0.0,0.0,0.0,0.0,0.0,0.0,0.0,0.0,0.0,0.0,0.0,0.0,0.0,0.0,0.0,0.0,0.0,0.0,0.0,0.0,0.0,0.0,0.0,0.0,0.0,0.0,0.0,0.0,0.0,0.0,0.0,0.0,0.0,0.0,0.0,0.0,0.0,0.0,0.0,0.0,0.0,0.0,0.0,0.0,0.0,0.0,0.0,0.0,0.0,0.0,0.0,-2.0348,-2.0731,-2.0829,-2.0348,-2.0314,-2.0483,-2.0959,-2.1007,-2.1401,0.0,0.0,0.0,0.0,0.0,0.0,0.0,0.0,0.0,0.0,0.0,0.0,0.0,0.0,0.0,0.0,0.0,0.0,0.0,0.0,0.0,0.0,0.0,0.0,0.0,0.0,0.0,0.0,0.0,0.0,0.0,0.0,0.0,0.0,0.0,0.0,0.0,0.0,0.0,0.0,0.0,0.0,0.0,0.0,0.0,0.0,0.0,0.0,0.0,0.0,0.0,0.0,0.0,0.0,0.0,0.0,0.0,0.0,0.0,0.0,0.0,0.0,0.0,0.0,0.0,0.0,0.0,0.0,0.0,0.0,0.0,0.0,0.0,0.0,0.0,0.0,0.0,0.0,0.0,0.0,0.0,0.0,0.0,0.0,0.0,0.0,0.0,0.0,0.0,0.0,0.0,0.0,0.0,0.0,0.0,0.0,0.0,0.0,0.0,0.0,0.0,0.0,0.0,-2.0,-2.0532,-2.0829,-2.0348,-2.0314,-2.0601,-2.1368,-2.143,-2.1658,-2.2254,0.0,0.0,0.0,0.0,0.0,0.0,0.0,0.0,0.0,0.0,0.0,0.0,0.0,0.0,0.0,0.0,0.0,0.0,0.0,0.0,0.0,0.0,0.0,0.0,0.0,0.0,0.0,0.0,0.0,0.0,0.0,0.0,0.0,0.0,0.0,0.0,0.0,0.0,0.0,0.0,0.0,0.0,0.0,0.0,0.0,0.0,0.0,0.0,0.0,0.0,0.0,0.0,0.0,0.0,0.0,0.0,0.0,0.0,0.0,0.0,0.0,0.0,0.0,0.0,0.0,0.0,0.0,0.0,0.0,0.0,0.0,0.0,0.0,0.0,0.0,0.0,0.0,0.0,0.0,0.0,0.0,0.0,0.0,0.0,0.0,0.0,0.0,0.0,0.0,0.0,0.0,0.0,0.0,0.0,0.0,0.0,0.0,0.0,0.0,0.0,0.0,0.0,-2.0401,-2.0738,-2.0894,-2.0616,-2.0583,-2.0846,-2.1552,-2.1582,-2.1794,-2.2282,0.0,0.0,0.0,0.0,0.0,0.0,0.0,0.0,0.0,0.0,0.0,0.0,0.0,0.0,0.0,0.0,0.0,0.0,0.0,0.0,0.0,0.0,0.0,0.0,0.0,0.0,0.0,0.0,0.0,0.0,0.0,0.0,0.0,0.0,0.0,0.0,0.0,0.0,0.0,0.0,0.0,0.0,0.0,0.0,0.0,0.0,0.0,0.0,0.0,0.0,0.0,0.0,0.0,0.0,0.0,0.0,0.0,0.0,0.0,0.0,0.0,0.0,0.0,0.0,0.0,0.0,0.0,0.0,0.0,0.0,0.0,0.0,0.0,0.0,0.0,0.0,0.0,0.0,0.0,0.0,0.0,0.0,0.0,0.0,0.0,0.0,0.0,0.0,0.0,0.0,0.0,0.0,0.0,0.0,0.0,0.0,0.0,0.0,0.0,0.0,0.0,0.0,-2.1301,-2.1219,-2.1103,-2.1151,-2.1103,-2.1213,-2.1628,-2.1658,-2.1853,-2.2321,0.0,0.0,0.0,0.0,0.0,0.0,0.0,0.0,0.0,0.0,0.0,0.0,0.0,0.0,0.0,0.0,0.0,0.0,0.0,0.0,0.0,0.0,0.0,0.0,0.0,0.0,0.0,0.0,0.0,0.0,0.0,0.0,0.0,0.0,0.0,0.0,0.0,0.0,0.0,0.0,0.0,0.0,0.0,0.0,0.0,0.0,0.0,0.0,0.0,0.0,0.0,0.0,0.0,0.0,0.0,0.0,0.0,0.0,0.0,0.0,-1.8387,-1.8489,0.0,0.0,0.0,0.0,0.0,0.0,0.0,0.0,0.0,0.0,0.0,0.0,0.0,0.0,0.0,0.0,0.0,0.0,0.0,0.0,0.0,0.0,0.0,0.0,0.0,0.0,0.0,0.0,0.0,0.0,0.0,0.0,0.0,0.0,0.0,0.0,0.0,0.0,0.0,0.0,-2.2164,-2.1929,-2.1922,-2.2295,-2.1818,-2.1675,-2.2106,-2.2135,-2.2271,-2.2599,-2.2923,0.0,0.0,0.0,0.0,0.0,0.0,0.0,0.0,0.0,0.0,0.0,0.0,0.0,0.0,0.0,0.0,0.0,0.0,0.0,0.0,0.0,0.0,0.0,0.0,0.0,0.0,0.0,0.0,0.0,0.0,0.0,0.0,0.0,0.0,0.0,0.0,0.0,0.0,0.0,0.0,0.0,0.0,0.0,0.0,0.0,0.0,0.0,0.0,0.0,0.0,0.0,0.0,0.0,0.0,0.0,0.0,0.0,0.0,0.0,-1.8246,-1.828,0.0,0.0,0.0,0.0,0.0,0.0,0.0,0.0,0.0,0.0,0.0,0.0,0.0,0.0,0.0,0.0,0.0,0.0,0.0,0.0,0.0,0.0,0.0,0.0,0.0,0.0,0.0,0.0,0.0,0.0,0.0,0.0,0.0,0.0,0.0,0.0,0.0,0.0,0.0,0.0,-2.2847,-2.239,-2.2231,-2.2635,-2.204,-2.1794,-2.2254,-2.231,-2.2398,-2.2669,-2.2855,0.0,0.0,0.0,0.0,0.0,0.0,0.0,0.0,0.0,0.0,0.0,0.0,0.0,0.0,0.0,0.0,0.0,0.0,0.0,0.0,0.0,0.0,0.0,0.0,0.0,0.0,0.0,0.0,0.0,0.0,0.0,0.0,0.0,0.0,0.0,0.0,0.0,0.0,0.0,0.0,0.0,0.0,0.0,0.0,0.0,0.0,0.0,0.0,0.0,0.0,0.0,0.0,0.0,-1.6046,-1.6685,-1.8087,-1.8923,-1.8984,-1.8435,-1.887,-1.8928,-1.8874,-2.042,0.0,0.0,0.0,0.0,0.0,0.0,0.0,0.0,0.0,0.0,0.0,0.0,0.0,0.0,0.0,0.0,0.0,0.0,0.0,0.0,0.0,0.0,-2.8806,-2.7375,-2.5633,-2.3703,-2.152,0.0,0.0,0.0,0.0,0.0,0.0,0.0,0.0,0.0,0.0,0.0,-2.3763,-2.3,-2.2524,-2.2959,-2.2261,-2.1899,-2.2282,-2.2349,-2.249,-2.2772,-2.297,-2.3707,0.0,0.0,0.0,0.0,0.0,0.0,0.0,0.0,0.0,0.0,0.0,0.0,0.0,0.0,0.0,0.0,0.0,0.0,0.0,0.0,0.0,0.0,0.0,0.0,0.0,0.0,0.0,0.0,0.0,0.0,0.0,0.0,0.1338,0.5012,0.0,0.0,0.0,0.0,0.0,0.0,0.0,0.0,0.0,0.0,0.0,0.0,0.0,-1.2915,-1.4054,-1.403,-1.4384,-1.5211,-1.6723,-1.8255,-1.9698,-1.9451,-1.9968,-2.0912,-2.1,0.0,-1.8192,-1.9203,0.0,0.0,0.0,0.0,0.0,0.0,0.0,0.0,0.0,0.0,0.0,0.0,0.0,0.0,0.0,0.0,0.0,0.0,0.0,0.0,0.0,0.0,-2.961,-2.8538,-2.7643,-2.6969,-2.6627,-2.4972,-2.4298,-2.6632,-2.4905,-2.3069,0.0,0.0,0.0,0.0,0.0,0.0,-2.5587,-2.4374,-2.3687,-2.4231,-2.3017,-2.2237,-2.2282,-2.2527,-2.2789,-2.3117,-2.4057,-2.4972,-2.5811,-2.6854,0.0,0.0,0.0,0.0,0.0,0.0,0.0,0.0,0.0,0.0,0.0,0.0,0.0,0.0,0.0,0.0,0.0,0.0,0.0,0.0,0.0,0.0,0.0,0.0,0.0,0.0,0.0,0.0,0.0,0.5792,0.3359,0.2817,0.1093,0.0,0.0,0.0,0.0,0.0,0.0,0.0,0.0,0.0,0.0,-1.0552,-1.2982,-1.4225,-1.4111,-1.4104,-1.4648,-1.5695,-1.6742,-1.8581,-2.108,-2.091,-2.1091,-2.1712,-2.1685,-2.1379,-2.0891,-2.1298,-2.1178,-2.0815,0.0,0.0,0.0,0.0,-2.6114,-2.7811,-2.9253,-3.056,-3.146,-3.1212,0.0,0.0,0.0,0.0,0.0,0.0,0.0,-2.7668,-2.7146,-2.8089,-2.9088,-2.8762,-2.8669,-2.8451,-2.7722,-2.6684,-2.6204,-2.7379,-2.5436,-2.3955,-2.5153,-2.5983,0.0,0.0,0.0,-2.5782,-2.5974,-2.493,-2.4072,-2.3917,-2.2936,-2.236,-2.25,-2.2634,-2.2923,-2.3437,-2.4365,-2.533,-2.6304,-2.7281,-2.7922,0.0,0.0,0.0,0.0,0.0,0.0,0.0,0.0,0.0,0.0,0.0,0.0,0.0,0.0,0.0,0.0,0.0,0.0,0.0,0.0,0.0,0.0,0.0,0.0,0.0,0.0,0.0,0.0,0.6328,0.516,0.1948,0.1639,0.1164,0.0,0.0,0.0,0.0,0.0,0.0,-0.1779,-0.4779,-0.8817,-1.3919,-1.4892,-1.4949,-1.4151,-1.4065,-1.4594,-1.5654,-1.6491,-1.8347,-2.0912,-2.0919,-2.137,-2.2165,-2.1728,-2.189,-2.2454,-2.2457,-2.309,-2.3758,-2.1149,-2.1731,-2.4195,-2.5845,-2.74,-2.8902,-3.0827,-3.1479,-3.1183,-2.9227,-2.9614,-3.0417,-2.8061,0.0,0.0,0.0,0.0,-2.7471,-2.7503,-2.7764,-2.8086,-2.8396,-2.8541,-2.8415,-2.7735,-2.7625,-2.7573,-2.7592,-2.6,-2.5304,-2.7489,-2.779,0.0,-2.913,-2.7741,-2.6545,-2.6455,-2.548,-2.4492,-2.3748,-2.3107,-2.2713,-2.2686,-2.2873,-2.3165,-2.3671,-2.4556,-2.5503,-2.6554,-2.7365,-2.8172,-2.8975,0.0,0.0,0.0,0.0,0.0,0.0,0.0,0.0,0.0,0.0,0.0,0.0,0.0,0.0,0.0,0.0,0.0,0.0,0.0,0.0,0.0,0.0,0.0,0.0,0.0,0.0,0.0,0.0,0.0,0.5977,0.6002,0.0,0.0,0.0,0.0,-0.0322,-0.3806,-0.6241,-0.6698,-0.6968,-0.9186,-1.3946,-1.4156,-1.4196,-1.4082,-1.4126,-1.4135,-1.4215,-1.6293,-1.7644,-1.8423,-1.8394,-2.007,-2.2928,-2.1379,-2.0693,-2.0707,-2.0754,-2.2961,-2.6346,-2.6161,-2.6161,-2.6367,-2.6449,-2.8549,-3.1325,-3.1435,-3.147,-3.1485,-3.1357,-3.0276,-2.8836,-2.7895,-2.7585,0.0,0.0,-2.7535,-2.7565,-2.7565,-2.713,-2.6846,-2.7525,-2.7022,-2.6652,-2.7428,-2.759,-2.7578,-2.7616,-2.7488,-2.8164,-3.0564,0.0,-2.9222,-2.9042,-2.8418,-2.7942,-2.7735,-2.6438,-2.527,-2.454,-2.407,-2.3517,-2.2764,-2.3282,-2.3671,-2.3692,-2.4764,-2.575,-2.6576,-2.7365,-2.8172,-2.8975,-2.8994,0.0,0.0,0.0,0.0,0.0,0.0,0.0,0.0,0.0,0.0,0.0,0.0,0.0,0.0,0.0,0.0,0.0,0.0,0.0,0.0,0.0,0.0,0.0,0.0,0.0,0.0,0.0,0.0,0.2575,0.2271,0.0,0.0153,0.0,0.0,0.0,-0.4232,-0.6881,-0.7109,-0.7121,-0.8517,-1.1721,-1.3322,-1.4137,-1.4143,-1.4062,-1.4822,-1.6226,-1.8364,-1.9552,-1.9764,-1.9773,-2.0352,-2.1494,-2.0856,-2.0616,-2.0828,-2.3329,-2.5247,-2.6494,-2.6488,-2.6506,-2.6486,-2.6498,-2.8615,-3.1515,-3.1475,-3.0413,-2.9049,-2.9659,-2.9053,-2.8106,-2.8218,-2.7919,-2.7625,-2.7625,-2.7625,-2.752,-2.7051,-2.6767,-2.6542,-2.6363,-2.6311,-2.6287,-2.6305,-2.5637,-2.5046,-2.5017,-2.6424,-2.8367,-3.0789,-3.0824,-3.0179,-2.9164,-2.8522,-2.79,-2.7164,-2.6002,-2.494,-2.4185,-2.372,-2.3411,-2.3341,-2.3566,-2.3795,-2.4016,-2.4884,-2.5832,-2.6747,-2.7435,-2.8261,-2.9228,-2.9089,-2.8847,0.0,0.0,0.0,0.0,0.0,0.0,0.0,0.0,0.0,0.0,0.0,0.0,0.0,0.0,0.0,0.0,0.0,0.0,0.0,0.0,0.0,0.0,0.0,0.0,0.0,0.4139,0.3124,0.0312,0.0,0.0,0.0,0.0,-0.0628,-0.205,-0.5246,-0.7017,-0.6848,-0.7007,-0.821,-1.0499,-1.2845,-1.3992,-1.3838,-1.4434,-1.5661,-1.7553,-1.8993,-1.986,-2.0171,-1.9871,-1.9738,-1.975,-1.9696,-2.0372,-2.1627,-2.4304,-2.5326,-2.5444,-2.6198,-2.6514,-2.6673,-2.779,-2.9049,-3.0176,-3.0188,-2.905,-2.7729,-2.8272,-2.8226,-2.7919,-2.7919,-2.7754,-2.7535,-2.7036,-2.7066,-2.7096,-2.6437,-2.6093,-2.5869,-2.5659,-2.5621,-2.5635,-2.5599,-2.4207,-2.2994,-2.3157,-2.5392,-2.781,-2.9394,-3.0118,-3.0279,-2.9828,-2.8811,-2.798,-2.7674,-2.6564,-2.5426,-2.4539,-2.4254,-2.4009,-2.3747,-2.4052,-2.4399,-2.469,-2.5466,-2.6358,-2.7397,-2.775,-2.8373,-2.9373,-2.8879,-2.8741,-2.8994,0.0,0.0,0.0,0.0,0.0,0.0,0.0,0.0,0.0,0.0,0.0,0.0,0.0,0.0,0.0,0.0,0.0,0.0,0.0,0.0,0.0,0.0,0.0,-0.0622,-0.0156,-0.0078,0.0,0.0,0.0,0.0,-0.0157,-0.1895,-0.6003,-0.6801,-0.6878,-0.6357,-0.688,-0.8182,-1.0543,-1.2802,-1.377,-1.3274,-1.5098,-1.6669,-1.7979,-1.7981,-1.8474,-1.9238,-1.8392,-1.8007,-1.7979,-1.8014,-1.9916,-2.3097,-2.3065,-2.3135,-2.3319,-2.5525,-2.6396,-2.6795,-3.0172,-2.9755,-2.7598,-2.7541,-2.7559,-2.7569,-2.7571,-2.8033,-2.8314,-2.6995,-2.7055,-2.7345,-2.6006,-2.6111,-2.6456,-2.5749,-2.5106,-2.4777,-2.5405,-2.4965,-2.4626,-2.5419,-2.356,-2.1872,-2.2366,-2.4742,-2.6711,-2.6714,-2.7956,-2.942,-3.0861,-2.9236,0.0,-2.9299,-2.8187,-2.6859,-2.5676,-2.5821,-2.5402,-2.3876,-2.4766,-2.5503,-2.5702,-2.6449,-2.7379,-2.8501,-2.8277,-2.8519,-2.9394,-2.8384,-2.8231,-2.9017,0.0,0.0,0.0,0.0,0.0,0.0,0.0,0.0,0.0,0.0,0.0,0.0,0.0,0.0,0.0,0.0,0.0,0.0,0.0,0.0,0.0,-0.5062,-0.4826,-0.4631,-0.3249,-0.1672,-0.0156,0.0,0.0,0.0,-0.2733,-0.5061,-0.6247,-0.6441,-0.6502,-0.6609,-0.7609,-0.8862,-1.0439,-1.1723,-1.3144,-1.4574,-1.5108,-1.597,-1.7096,-1.7685,-1.8104,-1.8369,-1.8123,-1.797,-1.7978,-1.7982,-1.9966,-2.3071,-2.3071,-2.3097,-2.3175,-2.3815,-2.4045,-2.4411,-2.7513,-2.8209,-2.7437,-2.6518,-2.6662,-2.7255,-2.6855,-2.7134,-2.7512,-2.7165,-2.718,-2.7243,-2.6867,-2.6605,-2.629,-2.5617,-2.5016,-2.4627,-2.4716,-2.4544,-2.4576,-2.5189,-2.3914,-2.3215,-2.5107,-2.6151,-2.6707,-2.669,-2.705,-2.7653,-2.8665,-2.9194,-2.9184,-2.8451,-2.7688,-2.7102,-2.6774,-2.6558,-2.6093,-2.5207,-2.5449,-2.5706,-2.5901,-2.6142,-2.727,-2.9584,-2.8836,-2.8796,-2.9607,-2.9345,-2.9212,0.0,0.0,0.0,0.0,0.0,0.0,0.0,0.0,0.0,0.0,0.0,0.0,0.0,0.0,0.0,0.0,0.0,0.0,0.0,0.0,0.0,0.0,-0.7065,-0.6723,-0.6448,-0.5297,-0.3371,-0.039,-0.1561,-0.2657,-0.265,-0.4849,-0.6312,-0.6314,-0.6281,-0.6391,-0.6488,-0.7845,-0.9164,-1.0303,-1.1618,-1.3087,-1.4736,-1.5543,-1.6207,-1.667,-1.7586,-1.7977,-1.8008,-1.8231,-1.8225,-1.8096,-1.9539,-2.1263,-2.3113,-2.3102,-2.3839,-2.5009,0.0,0.0,0.0,0.0,-2.6264,-2.6693,-2.5993,-2.6184,-2.6681,-2.6717,-2.6945,-2.7137,-2.6892,-2.6962,-2.7073,-2.6509,-2.635,-2.6177,-2.5472,-2.5077,-2.4817,-2.4766,-2.4634,-2.467,-2.5127,-2.4861,-2.4978,-2.6409,-2.6688,0.0,-2.6715,-2.6689,-2.6959,-2.7771,-2.8316,-2.8505,-2.8136,-2.7277,-2.6669,-2.6575,-2.636,-2.6116,-2.5864,-2.6143,0.0,0.0,0.0,-2.8388,-3.0004,-2.9467,0.0,0.0,0.0,-2.9607,-2.9412,-2.9172,0.0,0.0,-3.0919,-3.1707,0.0,0.0,0.0,0.0,0.0,0.0,0.0,0.0,0.0,0.0,0.0,0.0,0.0,0.0,0.0,0.0,-0.9068,-0.8852,-0.7358,-0.6871,-0.5209,-0.1167,-0.3589,-0.5802,-0.6254,-0.6268,-0.6264,-0.6307,-0.6277,-0.6284,-0.627,-0.7907,0.0,0.0,0.0,-1.3495,-1.4313,-1.6083,-1.6902,-1.6784,-1.7706,-1.8114,-1.8055,-1.8802,-1.8797,-1.8417,-2.1365,-2.282,-2.316,-2.3301,-2.5025,-2.763,-2.7607,-2.7432,-2.6841,-2.449,-2.4283,-2.5255,-2.5696,0.0,0.0,-2.6798,-2.7128,-2.704,-2.6455,-2.6655,-2.6896,-2.5689,-2.5763,-2.6038,-2.542,-2.5259,-2.5189,-2.5147,-2.498,-2.4842,-2.5079,-2.5817,-2.6402,-2.6247,-2.6615,-2.6947,-2.6961,-2.6958,-2.7135,-2.766,-2.7088,-2.6961,-2.7982,-2.6922,-2.6012,-2.5857,-2.593,0.0,-2.6159,-2.6911,-2.7797,-2.8771,-2.9693,-3.0157,-3.0061,-3.0138,-3.0049,-2.9782,-2.9782,-2.968,-2.9434,-2.9434,-2.9697,-3.0186,-3.0284,-3.1333,0.0,0.0,0.0,0.0,0.0,0.0,0.0,0.0,0.0,0.0,0.0,0.0,0.0,0.0,0.0,-1.0293,-1.0333,-1.0304,-1.0308,-0.9597,-0.8034,-0.5428,-0.2791,-0.2547,-0.5937,-0.627,-0.6273,-0.6264,-0.6315,-0.629,-0.6294,-0.8604,-1.0051,-1.0263,-1.2656,-1.4359,-1.5331,-1.6448,-1.7275,-1.7725,-1.8643,0.0,-1.8441,-1.9694,-2.0102,-1.986,-1.995,-2.1243,-2.3418,-2.4611,-2.6089,-2.7595,-2.7578,-2.6293,-2.4312,-2.38,-2.312,-2.2703,-2.4379,-2.4864,-2.4894,-2.5896,-2.6498,-2.6751,-2.6652,-2.6703,0.0,-2.6468,-2.6239,-2.5995,-2.5885,-2.5524,-2.5153,-2.4938,-2.4835,-2.4762,-2.4645,-2.4797,-2.4551,-2.3367,-2.6086,-2.8558,-2.855,-2.8548,-2.8159,-2.7012,-2.6724,-2.6693,-2.6899,-2.667,-2.6523,-2.6656,-2.7252,-2.7526,-2.7229,-2.8013,-2.8649,-2.9017,-3.0496,-3.1053,-3.0362,-3.0996,-3.1021,-3.0292,-3.0273,-3.0071,-2.9643,-2.9643,-2.9827,-3.0228,-3.0874,-3.1725,0.0,0.0,0.0,0.0,0.0,0.0,0.0,0.0,0.0,0.0,0.0,-1.4909,-1.4566,0.0,-1.2819,-1.2733,-1.2301,-1.1803,-1.0994,-1.0982,-0.9854,-0.6674,-0.4434,-0.4009,-0.6081,-0.6064,-0.5982,-0.6313,-0.8182,-0.9316,-0.9316,-1.1496,-1.2729,-1.275,-1.4491,-1.5643,-1.6065,-1.7488,-1.8301,-1.8654,-1.9263,-1.9392,-1.9091,-1.9704,-2.0382,-2.0962,-2.0753,-2.1406,-2.2647,-2.4042,-2.5305,-2.6426,-2.6699,-2.5774,-2.4268,-2.3768,-2.3392,-2.3167,-2.411,-2.4471,-2.4726,-2.5544,-2.5967,-2.615,-2.615,-2.6404,-2.6539,-2.5795,-2.595,-2.6283,-2.5898,-2.5857,-2.5818,-2.5329,-2.506,-2.4825,-2.4557,-2.4143,-2.3746,-2.3325,-2.6376,-2.8996,-2.8998,-2.9015,-2.8456,-2.6848,-2.5896,-2.5576,-2.6093,-2.5799,-2.5652,-2.5916,-2.6302,-2.6873,-2.7637,-2.8868,-2.9653,-2.9725,-3.016,-3.041,-3.0398,-3.0006,-2.9775,-2.9756,-2.9756,-2.9577,-2.9238,-2.9637,-2.9832,-2.981,-3.0627,-3.1365,0.0,0.0,0.0,0.0,0.0,0.0,0.0,-2.1156,-1.9778,-1.8121,-1.7376,-1.7151,-1.7439,-1.6242,-1.5182,-1.5016,-1.4188,-1.2914,-1.1335,-1.1799,-1.1071,-0.7829,-0.6805,-0.6239,-0.6134,-0.6309,-0.6687,-0.7394,-1.0433,-1.2287,-1.2337,-1.4058,-1.4976,-1.5041,-1.6017,-1.6636,-1.6636,-1.8412,-1.9299,-1.9299,-1.995,-2.0141,-2.0004,-2.0112,-2.0749,-2.1799,-2.228,-2.2317,-2.2151,-2.3264,-2.4418,-2.5415,-2.5713,-2.5601,-2.5168,-2.4373,-2.4219,-2.4366,-2.4457,-2.4538,-2.4744,-2.5379,-2.5507,-2.5423,-2.5654,-2.6128,-2.6415,-2.5436,-2.5999,-2.6802,-2.6204,-2.6495,-2.6717,-2.5797,-2.5372,-2.5007,-2.4374,-2.3586,-2.3443,-2.486,-2.6717,-2.8084,-2.8067,-2.8594,-2.8334,-2.6408,-2.5106,-2.4598,-2.5388,-2.4954,-2.4682,-2.4974,-2.5144,-2.5968,-2.7745,-2.914,-2.991,-2.991,-2.9256,-2.9179,-2.989,-2.8621,-2.8198,-2.8852,-2.8871,-2.8763,-2.8564,-2.937,-2.9566,-2.9211,-2.999,-3.0635,-3.3693,-3.1535,-3.0166,-3.1187,-2.9078,-2.7073,0.0,-2.6258,-2.4013,-2.3401,-2.1757,-2.0345,-2.0303,-1.8199,-1.6608,-1.652,-1.4867,-1.3404,-1.3002,-1.256,-1.2149,-1.1714,-0.8503,-0.6071,-0.5577,-0.8236,-1.0507,-1.1546,-1.205,-1.2337,-1.2318,-1.3601,-1.4279,-1.4343,-1.5833,-1.6636,-1.6636,-1.8412,-1.9299,-1.9299,-2.0981,-2.1494,-2.1063,-2.2365,-2.2753,-2.2506,-2.3083,-2.3334,-2.336,-2.4021,-2.4994,-2.6036,-2.5512,-2.5616,-2.605,-2.5955,-2.5163,-2.4356,-2.5415,-2.5022,-2.4166,-2.526,-2.5152,-2.4822,-2.5837,-2.6187,-2.6432,-2.7291,-2.7642,-2.7765,-2.7659,-2.7712,-2.7395,-2.5869,-2.5703,-2.5409,-2.3714,-2.2851,-2.3602,-2.7677,-2.6448,-2.4744,-2.4743,-2.7111,-2.7971,-2.493,-2.463,-2.4732,-2.4712,-2.4741,-2.4828,-2.4986,-2.5697,-2.6637,-2.7802,-2.8063,-2.8179,-2.8179,-2.8082,-2.8082,-2.8179,-2.8005,-2.7928,-2.8025,-2.8025,-2.7908,-2.7655,-2.8512,-2.8791,-2.8532,-2.9213,-2.982,-3.4241,-3.2992,-3.2204,-3.2798,-3.1545,-3.0068,-2.9899,-2.8567,-2.6887,-2.4977,-2.4252,-2.3348,-2.1374,-1.9411,-1.7866,-1.6969,-1.5035,-1.354,-1.3253,-1.3134,-1.2893,-1.2351,-1.1205,-1.0047,-0.9005,-1.0551,-1.2473,-1.4544,-1.4696,-1.4469,-1.4043,-1.5875,-1.675,-1.6422,-1.7529,-1.8142,-1.8142,-1.9957,-2.088,-2.0868,-2.1886,-2.2234,-2.1996,-2.2274,-2.2656,-2.318,-2.4068,-2.4482,-2.4505,-2.4776,-2.5358,-2.6054,-2.5782,-2.5979,-2.6405,-2.5825,-2.5454,-2.5268,-2.528,-2.4979,-2.4683,-2.5634,-2.5552,-2.5279,-2.6251,-2.6841,-2.708,-2.6676,-2.7199,-2.7685,-2.6747,-2.7207,-2.749,-2.5879,-2.6229,-2.624,-2.3728,-2.4034,-2.5616,-2.8449,-2.6756,-2.5461,-2.7471,-2.892,-2.9355,-2.8013,-2.6261,-2.5001,-2.4796,-2.4822,-2.4943,-2.5152,-2.5959,-2.6653,-2.7121,-2.7601,-2.789,-2.789,-2.7409,-2.7371,-2.7871,-2.6928,-2.664,-2.7121,-2.714,-2.7089,-2.6983,-2.7846,-2.8141,-2.7888,-2.8156,-2.8366,-3.3858,-3.3598,-3.3482,-3.4163,-3.3645,-3.264,-3.166,-3.0653,-2.931,-2.7003,-2.6554,-2.5758,-2.2717,-2.0992,-1.9417,-1.7509,-1.5693,-1.4429,-1.4281,-1.4141,-1.3842,-1.3229,-1.3568,-1.336,-1.2133,-1.2311,-1.3601,-1.6201,-1.6271,-1.6096,-1.5691,-1.7668,-1.8511,-1.7967,-1.9073,-1.9705,-1.9716,-2.1235,-2.2009,-2.2053,-2.2582,-2.293,-2.3082,-2.2775,-2.3142,-2.3998,-2.4839,-2.5357,-2.555,-2.555,-2.595,-2.6522,-2.6522,-2.674,-2.692,-2.5963,-2.5775,-2.5931,-2.538,-2.5006,-2.4903,-2.5505,-2.5472,-2.5374,-2.6338,-2.7121,-2.7558,-2.6767,-2.7358,-2.7879,-2.6483,-2.7002,-2.7494,-2.5919,-2.6644,-2.6997,-2.4652,-2.5259,-2.6865,-2.8974,-2.7161,-2.639,-2.9799,-2.9621,-2.8989,-2.8989,-2.6879,-2.524,-2.5046,-2.5011,-2.5083,-2.5274,-2.589,-2.6255,-2.6236,-2.6832,-2.7198,-2.7178,-2.6601,-2.6524,-2.7159,-2.5967,-2.5591,-2.6236,-2.6236,-2.6236,-2.6236,-2.7121,-2.7451,-2.7262,-2.742,-2.7419,-3.2068,-3.2304,-3.2724,-3.5512,-3.5223,-3.4343,-3.4697,-3.3172,-3.1536,-3.0924,-2.9235,-2.7143,-2.4751,-2.3291,-2.1532,-1.8801,-1.7491,-1.6764,-1.6756,-1.5832,-1.5194,-1.5212,-1.4818,-1.4288,-1.3561,-1.334,-1.408,-1.6252,-1.5971,-1.6092,-1.6884,-1.7924,-1.833,-1.7948,-1.9714,-2.0651,-2.0674,-2.1612,-2.2098,-2.2098,-2.3034,-2.3743,-2.4253,-2.4842,-2.5128,-2.5128,-2.5182,-2.568,-2.6472,-2.6472,-2.6994,-2.784,-2.784,-2.7869,-2.778,-2.6936,-2.6417,-2.6092,-2.6074,-2.5314,-2.4335,-2.4353,-2.4403,-2.4651,-2.5769,-2.6682,-2.755,-2.8589,-2.8915,-2.8769,-2.7948,-2.7765,-2.7463,-2.6042,-2.6767,-2.7564,-2.6685,-2.5894,-2.6344,-2.9696,-2.763,-2.6397,-2.9811,-2.7648,-2.5458,-2.5452,-2.5365,-2.5299,-2.5293,-2.5284,-2.5284,-2.5303,-2.538,-2.5409,-2.5341,-2.5428,-2.5447,-2.538,-2.5341,-2.5341,-2.538,-2.5322,-2.5303,-2.5341,-2.5341,-2.5341,-2.5341,-2.6217,-2.664,-2.6649,-2.7236,-2.7489,-2.8608,-2.9836,-3.1281,-3.36,-3.4128,-3.4259,-3.4766,-3.4432,-3.345,-3.1482,-3.0611,-2.8678,-2.3525,-2.2412,-2.1045,-1.7242,-1.6215,-1.5841,-1.5841,-1.5389,-1.5005,-1.4517,-1.5997,-1.6653,-1.584,-1.4379,-1.4372,-1.6604,-1.6587,-1.7319,-1.9318,-1.9738,-2.0081,-2.0392,-2.1594,-2.225,-2.2299,-2.3203,-2.3659,-2.3569,-2.4307,-2.4725,-2.4914,-2.5709,-2.5933,-2.5799,-2.6622,-2.6997,-2.7046,-2.7326,-2.7613,-2.7897,-2.7897,-2.7897,-2.7862,-2.7614,-2.7335,-2.7047,-2.6629,-2.6375,-2.6319,-2.6856,-2.6483,-2.6023,-2.6954,-2.7031,-2.6929,-2.7461,-2.7596,-2.7451,-2.6785,-2.74,-2.781,-2.627,-2.722,-2.8116,-2.6873,-2.7102,-2.7452,-2.7086,-2.6094,-2.5657,-2.6823,-2.6071,-2.615,-2.8643,-2.6898,-2.5745,-2.7007,-2.616,-2.564,-2.6237,-2.5803,-2.5455,-2.5421,-2.5443,-2.5466,-2.5428,-2.5428,-2.5409,-2.537,-2.537,-2.5341,-2.5303,-2.5303,-2.5303,-2.5303,-2.5591,-2.5736,-2.5745,-2.5943,-2.6036,-2.5278,-2.6899,-2.8631,-3.0608,-3.1535,-3.2108,-3.2626,-3.3393,-3.338,-3.1214,-3.1657,-3.0741,-2.5114,-2.4061,-2.2433,-1.7343,-1.679,-1.6442,-1.4961,-1.5662,-1.6181,-1.572,-1.7427,-1.8324,-1.7707,-1.6372,-1.6223,-1.7746,-1.818,-1.904,-2.0502,-2.1461,-2.2053,-2.2128,-2.3514,-2.4232,-2.4251,-2.4863,-2.4957,-2.4625,-2.5203,-2.5503,-2.5524,-2.6387,-2.6673,-2.6539,-2.7482,-2.7823,-2.7718,-2.7974,-2.8156,-2.8281,-2.8281,-2.8281,-2.8264,-2.7976,-2.7967,-2.7999,-2.7283,-2.7139,-2.7334,-2.7827,-2.768,-2.7379,-2.788,-2.7676,-2.7269,-2.7401,-2.7232,-2.6856,-2.6164,-2.6965,-2.7657,-2.6412,-2.7286,-2.8082,-2.6892,-2.7624,-2.8046,-2.6524,-2.6266,-2.6515,-2.7183,-2.7306,-2.8125,-3.0545,-2.8845,-2.7295,-2.7257,-2.6823,-2.6467,-2.6389,-2.5879,-2.5528,-2.5498,-2.5529,-2.5531,-2.5503,-2.5495,-2.5476,-2.5437,-2.5437,-2.5428,-2.537,-2.537,-2.537,-2.537,-2.537,-2.537,-2.537,-2.537,-2.537,-2.2014,-2.3509,-2.474,-2.6569,-2.7471,-2.7999,-2.837,-3.003,-3.1158,-3.0049,-3.1981,-3.2668,-2.8729,-2.7797,-2.5646,-1.9361,-1.9329,-1.8805,-1.4956,-1.6968,-1.8723,-1.8498,-1.9178,-1.9424,-1.9125,-1.928,-1.9488,-1.9825,-2.0694,-2.1078,-2.1002,-2.3195,-2.4117,-2.3242,-2.5327,-2.6456,-2.6474,-2.645,-2.6053,-2.5346,-2.5885,-2.6137,-2.6158,-2.6985,-2.7361,-2.7391,-2.7805,-2.8166,-2.8453,-2.8453,-2.8688,-2.904,-2.904,-2.904,-2.8929,-2.8125,-2.8309,-2.8842,-2.7963,-2.755,-2.7406,-2.7365,-2.7856,-2.8426,-2.8388,-2.8299,-2.8225,-2.8225,-2.7716,-2.6984,-2.6242,-2.6673,-2.7165,-2.6536,-2.7109,-2.7606,-2.6927,-2.7499,-2.8126,-2.795,-2.8097,-2.8812,-3.0594,-3.0897,-3.0843,-3.0658,-3.0789,-2.9693,-2.6383,-2.7322,-2.7634,-2.5872,-2.5638,-2.558,-2.5527,-2.5574,-2.5579,-2.5507,-2.5503,-2.5503,-2.5503,-2.5507,-2.5495,-2.5505,-2.5505,-2.5505,-2.5505,-2.5505,-2.5505,-2.5505,-2.5505,-2.5505,-1.7621,-1.9051,-2.0415,-2.0512,-2.1553,-2.2484,-2.258,-2.359,-2.4555,-2.4535,-2.6613,-2.7133,-2.2982,-2.7298,-2.9332,-2.2673,-2.2511,-2.3048,-2.2491,-2.2174,-2.153,-2.0123,-2.114,-2.1351,-1.9889,-2.1826,-2.3102,-2.2857,-2.2345,-2.3108,-2.5774,-2.5563,-2.5674,-2.6329,-2.6872,-2.7161,-2.7226,-2.7891,-2.7824,-2.7,-2.7887,-2.8057,-2.7649,-2.818,-2.8366,-2.83,-2.896,-2.9105,-2.8944,-2.9245,-2.9419,-2.9514,-2.9514,-2.9514,-2.942,-2.8558,-2.8496,-2.8817,-2.8588,-2.8664,-2.8783,-2.8286,-2.7846,-2.7412,-2.6811,-2.6223,-2.5763,-2.5906,-2.6265,-2.6605,-2.6596,-2.77,-2.8637,-2.7827,-2.8322,-2.8725,-2.7918,-2.8437,-2.887,-2.8184,-2.9216,-3.0347,-3.0816,-3.0905,-3.0023,-2.7415,-2.9233,-3.0581,-2.9682,-2.8823,-2.7944,-2.7044,-2.6175,-2.5664,-2.5657,-2.5663,-2.5663,-2.5658,-2.5658,-2.5638,-2.558,-2.5568,-2.5551,-2.5492,-2.5492,-2.5492,-2.5492,-2.5492,-2.5492,-2.5492,-2.5492,-2.5492,-1.3695,-1.4626,-1.5581,-1.6118,-1.6313,-1.6396,-1.6668,-1.8946,-2.0201,-1.7506,-1.9081,-1.9932,-1.67,-2.1439,-2.3721,-1.7302,-2.1737,-2.4854,-2.1614,-2.2738,-2.332,-2.1714,-2.1714,-2.1569,-2.0914,-2.3649,-2.6049,-2.7365,-2.5843,-2.5566,-2.7149,-2.7244,-2.7413,-2.7839,-2.8186,-2.8512,-2.8665,-2.9553,-2.9449,-2.8394,-2.8976,-2.8936,-2.8391,-2.875,-2.8904,-2.8852,-2.9458,-2.9568,-2.9383,-2.9605,-2.9696,-2.9696,-2.9696,-2.947,-2.9074,-2.8584,-2.8272,-2.8169,-2.8651,-2.8688,-2.8642,-2.9167,-2.9046,-2.854,-2.7706,-2.6892,-2.6181,-2.5925,-2.6203,-2.6611,-2.6765,-2.8082,-2.928,-2.8791,-2.9332,-2.9751,-2.8902,-2.9416,-2.9904,-2.9416,-3.0172,-3.0898,-3.0898,-3.0898,-3.0234,-2.8281,-2.834,-2.8627,-2.8627,-2.7756,-2.7031,-2.6699,-2.6074,-2.5703,-2.5703,-2.5703,-2.5703,-2.5703,-2.5703,-2.5684,-2.5644,-2.5644,-2.5622,-2.5595,-2.5595,-2.5595,-2.5595,-2.5595,-2.5595,-2.5595,-2.5595,-2.5595,-1.0412,-1.0601,-1.0882,-1.2143,-1.1082,-0.9867,-1.0422,-1.403,-1.5624,-0.9816,-1.0337,-1.1178,-0.9322,-1.2094,-1.2768,-0.7145,-1.6641,-2.2172,-1.4861,-1.8341,-2.1117,-1.9698,-1.8476,-1.7961,-1.8481,-2.1954,-2.5553,-2.8975,-2.9261,-2.8856,-2.7914,-2.9049,-2.9473,-2.8819,-2.9619,-3.0231,-3.0599,-3.1367,-3.1056,-2.9678,-2.973,-2.9436,-2.879,-2.9094,-2.9269,-2.9308,-2.9657,-2.9817,-2.9817,-2.9817,-2.9817,-2.9817,-2.9817,-2.9363,-2.8666,-2.8439,-2.7913,-2.7453,-2.8251,-2.8128,-2.7873,-2.9613,-3.0125,-2.9938,-2.9187,-2.8492,-2.7807,-2.7159,-2.7066,-2.7157,-2.7171,-2.8372,-2.9604,-2.9604,-3.0191,-3.054,-2.9842,-3.0313,-3.0871,-3.0896,-3.0897,-3.0897,-3.0897,-3.0897,-3.074,-3.0272,-2.8025,-2.6383,-2.639,-2.5993,-2.5698,-2.5703,-2.5703,-2.5703,-2.5703,-2.5681,-2.5699,-2.5703,-2.5684,-2.5684,-2.5703,-2.5703,-2.5703,-2.5703,-2.5703,-2.5703,-2.5703,-2.5703,-2.5703,-2.5703,-2.5703,-2.5762,-0.8495,-0.8495,-0.8022,-0.5811,-0.4185,-0.2945,-0.2412,-0.3511,-0.4377,-0.3295,-0.1766,-0.0224,0.1145,-0.1174,-0.1992,0.1899,-0.3221,-0.671,-0.3962,-0.4471,-0.4473,-0.2683,-0.2728,-0.2388,-0.1032,-0.7269,-1.2505,-1.517,-2.7448,-3.4682,-3.4406,-3.3353,-3.2317,-3.1393,-3.1721,-3.2193,-3.2757,-3.3294,-3.2741,-3.1139,-3.153,-3.1035,-2.975,-2.994,-3.0106,-3.0266,-3.0388,-3.0439,-3.0439,-3.0439,-3.0439,-3.0439,-3.0439,-3.0343,-3.0056,-2.8656,-2.8061,-2.7881,-2.733,-2.7554,-2.8123,-2.836,-2.7956,-2.7354,-2.7265,-2.7134,-2.7168,-2.7788,-2.8483,-2.9047,-2.9103,-2.9861,-3.0642,-3.0642,-3.0754,-3.0839,-3.0685,-3.0692,-3.077,-3.0876,-3.0896,-3.0896,-3.0896,-3.0896,-2.9917,-2.7036,-2.8544,-3.0,-2.9998,-2.7475,-2.5703,-2.5701,-2.5703,-2.5703,-2.5703,-2.5639,-2.5646,-2.5703,-2.5644,-2.5644,-2.5703,-2.5703,-2.5703,-2.5703,-2.5703,-2.5703,-2.5703,-2.5703,-2.5703,-2.5703,-2.5703,-2.6094,-0.3838,-0.3838,-0.3506,-0.2054,-0.1148,-0.0069,0.2385,0.1622,0.0946,0.2904,0.4947,0.67,0.8023,0.8139,0.8806,1.1135,1.333,1.5049,1.5786,1.5343,1.4997,1.5209,1.4939,1.4432,1.3618,0.3654,-0.5244,-1.1309,-2.1889,-2.9558,-3.2976,-3.296,-3.2564,-3.1912,-3.1988,-3.2059,-3.2147,-3.2836,-3.2806,-3.208,-3.2311,-3.2131,-3.1601,-3.1215,-3.1321,-3.1802,-3.0928,-3.0792,-3.1129,-3.0675,-3.0495,-3.0495,-3.0495,-3.0222,-2.9722,-2.8914,-2.8072,-2.7313,-2.7357,-2.7065,-2.6763,-2.719,-2.8037,-2.8729,-2.78,-2.7871,-2.8254,-2.8251,-2.8885,-2.9556,-2.9585,-3.0179,-3.0808,-3.0808,-3.0769,-3.0743,-3.0742,-3.0693,-3.0667,-3.0742,-3.0741,-3.0722,-3.0645,-3.0645,-3.0074,-2.8394,-2.9582,-3.0645,-3.0645,-2.9184,-2.8163,-2.8139,-2.6677,-2.5698,-2.5698,-2.5643,-2.5602,-2.559,-2.5577,-2.5559,-2.5601,-2.5601,-2.5601,-2.5601,-2.5601,-2.5601,-2.5601,-2.6041,-2.6272,-2.6272,-2.6741,-2.717,0.1131,0.1202,0.1208,0.1209,0.1488,0.2515,0.5363,0.4795,0.4556,0.7769,0.9581,1.1124,1.2804,1.4712,1.6786,1.9023,2.5214,3.0077,3.1151,3.0213,2.9025,2.8124,2.7894,2.6661,2.3576,1.3034,0.2569,-0.6674,-1.4982,-2.3073,-3.0954,-3.1436,-3.1538,-3.1692,-3.1729,-3.1654,-3.1426,-3.2333,-3.2737,-3.2674,-3.285,-3.2986,-3.3029,-3.2363,-3.2337,-3.2753,-3.1585,-3.122,-3.1438,-3.0933,-3.0604,-3.0448,-3.0448,-2.9918,-2.9135,-2.8959,-2.7923,-2.6713,-2.7208,-2.6603,-2.5705,-2.6257,-2.7926,-2.9551,-2.8516,-2.8594,-2.9003,-2.8852,-2.9177,-2.9616,-2.9766,-3.0248,-3.0681,-3.0671,-3.0636,-3.0605,-3.0586,-3.0588,-3.0564,-3.0564,-3.0564,-3.0525,-3.0417,-3.0398,-3.0398,-3.0398,-3.0398,-3.0398,-3.0398,-3.0398,-3.0398,-3.0398,-2.8189,-2.6411,-2.5686,-2.5822,-2.5827,-2.5515,-2.5657,-2.5679,-2.5504,-2.5504,-2.5504,-2.5504,-2.5673,-2.5789,-2.5789,-2.6476,-2.6909,-2.7089,-2.76,-2.8015,0.4879,0.5073,0.5243,0.5161,0.6347,0.7428,0.6932,0.7744,0.8847,0.9631,1.1003,1.2818,1.5531,1.6517,1.8513,2.3588,2.4223,2.5597,2.9957,2.9478,2.8887,2.9348,2.8887,2.7596,2.5242,2.1632,1.5847,0.7097,-0.7854,-2.1774,-3.3584,-3.0754,-2.955,-3.1298,-3.1749,-3.2124,-3.2461,-3.3509,-3.3643,-3.2889,-3.3671,-3.3652,-3.2929,-3.291,-3.2539,-3.1952,-3.2656,-3.21,-3.0758,-3.1474,-3.13,-3.0584,-3.0584,-3.0085,-2.9274,-2.8483,-2.7586,-2.6689,-2.5976,-2.6129,-2.6543,-2.5772,-2.5746,-2.6269,-2.7754,-2.7754,-2.7687,-2.987,-3.0015,-2.966,-3.0326,-3.0562,-3.0618,-3.0612,-3.0606,-3.0579,-3.0521,-3.0498,-3.0487,-3.0417,-3.0417,-3.0398,-3.0398,-3.0398,-3.0398,-3.0398,-3.0398,-3.0398,-3.0398,-3.0398,-3.0398,-3.0398,-3.0133,-2.8709,-2.559,-2.6388,-2.661,-2.5563,-2.6179,-2.6256,-2.5524,-2.5505,-2.5505,-2.5505,-2.6275,-2.6688,-2.6688,-2.6766,-2.7209,-2.7961,-2.7248,-2.775,0.5633,0.5684,0.5803,0.5796,0.6592,0.7351,0.6975,0.7901,0.9262,1.0698,1.2066,1.3772,1.6327,1.8117,2.0125,2.285,2.4377,2.6056,2.8382,2.8967,2.9118,2.9004,2.8743,2.7473,2.4855,2.2674,1.839,1.117,0.0,-1.0017,-1.8226,-2.3983,-2.7247,-2.7788,-2.8187,-2.8684,-2.9279,-3.0385,-3.1115,-3.1451,-3.1809,-3.2199,-3.2578,-3.2085,-3.1976,-3.2127,-3.1618,-3.125,-3.1019,-3.0989,-3.0794,-3.0456,-3.0299,-3.0132,-2.9929,-2.9436,-2.849,-2.7407,-2.6926,-2.6623,-2.635,-2.5914,-2.6217,-2.6928,-2.7805,-2.8595,-2.9371,-3.0358,-3.0404,-3.0229,-3.053,-3.0578,-3.053,-3.0491,-3.0363,-3.024,-3.0188,-3.0104,-2.9996,-2.9977,-2.9977,-3.006,-3.036,-3.0393,-3.0414,-3.0405,-3.0386,-3.0405,-3.0398,-3.0386,-3.0405,-3.0398,-3.0402,-2.9844,-2.8486,-2.8824,-2.8923,-2.8471,-2.7468,-2.6736,-2.6418,-2.6245,-2.6409,-2.6928,-2.6764,-2.6937,-2.7456,-2.7958,-2.8352,-2.8714,-2.8883,-2.9317,0.6553,0.6647,0.6797,0.6797,0.7293,0.7834,0.8098,0.9044,1.0448,1.2476,1.3779,1.5317,1.754,1.9392,2.1058,2.2596,2.4405,2.6197,2.7613,2.8456,2.8996,2.9167,2.8943,2.7739,2.5057,2.196,1.8278,1.3743,0.6698,0.0192,-0.5409,-1.472,-2.1042,-2.3539,-2.4401,-2.5206,-2.61,-2.7579,-2.8753,-2.9548,-3.0174,-3.0895,-3.175,-3.1318,-3.1355,-3.1767,-3.0977,-3.0717,-3.0814,-3.0643,-3.0431,-3.0169,-2.9988,-2.9865,-2.9767,-2.9322,-2.8393,-2.7318,-2.7184,-2.6678,-2.6162,-2.6299,-2.7044,-2.7872,-2.8065,-2.8934,-2.9916,-3.0118,-3.0308,-3.0401,-3.0349,-3.0297,-3.0316,-3.0494,-3.0395,-3.0326,-3.0557,-3.0499,-3.0413,-3.0413,-3.0413,-3.0447,-3.0519,-3.0383,-3.0278,-3.0398,-3.0404,-3.0781,-3.1788,-3.1024,-3.039,-3.0393,-3.04,-3.0394,-3.0394,-3.0398,-3.0409,-3.04,-2.8893,-2.7852,-2.7514,-2.7178,-2.7274,-2.789,-2.7525,-2.764,-2.8255,-2.8813,-2.9217,-2.9486,-2.9852,-3.016,0.8419,0.8684,0.9098,0.9098,0.9499,1.0077,1.0878,1.1995,1.3449,1.5557,1.6515,1.7614,1.9772,2.0256,2.1202,2.4025,2.407,2.4873,2.8114,2.8008,2.8344,3.0339,2.9921,2.8621,2.6381,2.0569,1.6763,1.6272,1.1585,0.6133,0.0251,-0.3398,-0.9577,-1.8976,-2.0995,-2.2516,-2.3731,-2.6109,-2.7313,-2.7377,-2.9359,-3.0319,-3.0345,-3.0864,-3.0861,-3.048,-3.1325,-3.094,-2.9789,-3.0637,-3.0486,-2.9713,-2.9713,-2.9168,-2.832,-2.7525,-2.6717,-2.6023,-2.6023,-2.6004,-2.6136,-2.693,-2.7738,-2.8395,-2.8395,-2.8265,-2.8276,-2.9006,-2.9609,-2.9954,-2.9765,-2.9713,-2.9921,-3.0714,-3.0903,-3.1111,-3.1921,-3.2071,-3.2071,-3.2071,-3.2071,-3.1827,-3.1016,-3.0339,-3.0037,-3.0352,-3.0394,-3.1617,-3.5015,-3.2502,-3.0394,-3.039,-3.039,-3.0386,-3.0393,-3.0398,-3.0402,-3.0398,-3.0378,-2.9847,-2.872,-2.817,-2.789,-2.789,-2.8659,-2.9083,-2.9083,-2.9102,-2.9544,-3.0359,-2.9506,-2.9583,0.8418,0.8878,0.9471,0.9471,1.0172,1.0989,1.1514,1.2277,1.3434,1.5556,1.6282,1.7338,1.9805,2.1024,2.23,2.4332,2.5553,2.6682,2.776,2.8842,2.942,2.9195,2.8171,2.6268,2.3349,2.0849,1.8363,1.5811,1.2761,0.9432,0.5672,-0.0195,-0.7116,-1.5269,-1.6905,-1.891,-2.1487,-2.3058,-2.4225,-2.5001,-2.6044,-2.6708,-2.6987,-2.7929,-2.8294,-2.8191,-2.8978,-2.9051,-2.87,-2.9185,-2.9316,-2.9288,-2.9145,-2.9174,-2.9245,-2.8858,-2.8257,-2.7608,-2.749,-2.7437,-2.7438,-2.7563,-2.8274,-2.897,-2.839,-2.8645,-2.9235,-2.9494,-2.9655,-2.978,-2.9731,-2.9696,-2.9903,-3.0714,-3.079,-3.0914,-3.1717,-3.1753,-3.1617,-3.1617,-3.1617,-3.1611,-3.1526,-3.087,-3.0501,-3.0829,-3.0998,-3.1883,-3.4055,-3.1468,-2.9438,-2.9439,-2.9438,-2.9713,-3.0364,-3.0399,-3.0399,-3.0396,-3.0396,-3.0243,-2.9886,-2.9483,-2.9258,-2.9266,-2.8848,-2.8905,-2.9513,-2.9513,-2.9646,-2.9912,-2.9646,-2.9665,1.0233,1.0638,1.0988,1.1167,1.1461,1.1905,1.2798,1.3392,1.4451,1.6539,1.7435,1.8471,2.0473,2.195,2.3303,2.4786,2.6221,2.7517,2.855,2.9515,2.9959,2.9609,2.8189,2.6257,2.3679,2.1724,1.9572,1.7159,1.3794,1.0807,0.8395,0.2411,-0.3903,-1.0336,-1.3406,-1.6121,-1.8438,-2.0325,-2.1749,-2.2746,-2.3779,-2.4438,-2.4722,-2.6082,-2.6751,-2.6894,-2.7362,-2.7632,0.0,-2.7976,-2.8146,-2.8379,-2.8567,-2.8792,-2.8978,-2.8673,-2.823,-2.7756,-2.7769,-2.7745,-2.7816,-2.8158,-2.8688,-2.9153,-2.8595,-2.8801,-2.9264,-2.9513,-2.9589,-2.957,-2.9475,-2.9436,-2.9642,-3.0445,-3.0785,-3.1117,-3.1932,-3.2207,-3.2302,-3.2302,-3.2302,-3.2268,-3.2125,-3.17,-3.139,-3.1502,-3.1426,-3.164,-3.2378,-3.0748,-2.9811,-3.0717,-3.0801,-3.0546,-2.9938,-2.987,-2.9864,-2.9864,-2.9864,-2.9864,-2.9864,-2.9787,-2.975,-2.9751,-2.9168,-2.9149,-2.9696,-2.9696,-2.9696,-2.9696,-2.9696,-2.9696,0.0,1.3441,1.3387,1.3762,1.3277,1.3008,1.4461,1.525,0.0,1.8254,1.9536,2.0615,2.1712,2.3032,2.4356,2.5663,2.6527,2.7854,3.0225,3.0085,3.0117,3.1068,2.9567,2.7876,2.6451,2.2894,2.039,1.9698,1.4706,1.0809,0.881,0.4484,-0.0,-0.457,-1.0272,-1.374,-1.4907,-1.7905,-1.9762,-2.057,-2.2398,-2.3259,-2.336,-2.5041,-2.5986,-2.6269,-2.6354,-2.6604,-2.6971,-2.702,-2.7051,-2.7126,-2.8004,-2.8156,-2.7865,-2.742,-2.7066,-2.6835,-2.7125,-2.7252,-2.7428,-2.856,-2.8929,-2.8929,-2.8929,-2.8695,-2.8574,-2.919,-2.9372,-2.9328,-2.914,-2.9085,-2.931,-3.0173,-3.0944,-3.1715,-3.2522,-3.3275,-3.3807,-3.3807,-3.3807,-3.3587,-3.2837,-3.2672,-3.257,-3.232,-3.1783,-3.1139,-3.055,-3.0362,-3.1124,-3.3332,-3.3688,-3.259,-2.9591,-2.9124,-2.8987,-2.8987,-2.8987,-2.9005,-2.9005,-2.9305,-2.9455,-2.9455,-2.9586,-2.9661,-2.9661,-2.9661,-2.9661,-2.9661,-2.9661,-2.9661,1.4928,0.0,1.3934,1.374,1.4383,1.5245,0.0,1.6374,1.7193,1.9083,1.9643,2.0669,2.3497,2.5066,2.6602,2.8365,3.0037,3.1189,3.134,3.1137,3.0482,2.9178,2.8233,2.6741,2.4435,2.2555,2.0713,1.8964,1.5445,1.1991,0.8838,0.6039,0.2788,-0.106,-0.522,-0.927,-1.3296,-1.531,-1.7004,-1.8265,-1.9826,-2.0886,-2.1472,-2.3273,-2.4117,-2.425,-2.5141,-2.557,-2.5664,-2.6108,-2.6421,-2.6686,-2.7326,-2.7707,-2.788,-2.7769,-2.767,-2.7632,-2.7698,-2.7753,-2.7771,-2.8066,-2.8147,-2.8147,-2.8147,-2.8469,-2.8901,-2.9056,-2.9089,-2.9214,-2.9751,-2.9934,-3.0283,-3.1715,-3.2192,-3.254,-3.3348,-3.3678,-3.3807,-3.3807,-3.3807,-3.3808,-3.3894,-3.3429,-3.3105,-3.3251,-3.2645,-3.2168,-3.2005,-3.0995,-3.0504,-3.1057,-3.2726,-3.3484,-3.2718,-3.041,-2.9003,-2.8993,-2.8997,-2.9001,-2.9012,-2.9067,-2.9126,-2.9126,-2.9163,-2.9163,-2.9163,-2.9163,-2.9163,-2.9163,-2.9163,-2.9163,1.5356,1.5157,1.4954,1.4935,1.5653,1.6493,1.6926,0.0,1.8594,1.9851,0.0,2.2277,2.4636,2.6189,2.7651,2.921,3.0699,3.1612,3.1521,3.1417,3.09,2.9757,2.8005,2.6484,2.5388,2.2891,2.0846,1.9636,1.5664,1.2332,1.0118,0.7076,0.4012,0.0933,-0.2638,-0.6625,-1.0927,-1.344,-1.5464,-1.7015,-1.8831,-1.9927,-2.0357,-2.2218,-2.3186,-2.3533,-2.4164,-2.4601,-2.4871,-2.5144,-2.5363,-2.5631,-2.6572,-2.6982,-2.7063,-2.75,-2.75,-2.7396,-2.756,-2.7754,-2.7897,-2.7897,-2.7897,-2.7897,-2.7897,-2.8174,-2.8533,-2.8682,-2.898,-2.9411,-3.0033,-3.0344,-3.0691,-3.1564,-3.1882,-3.2112,-3.2545,-3.2925,-3.3196,-3.3196,-3.3196,-3.3262,-3.3444,-3.3126,-3.292,-3.3066,-3.2597,-3.2091,-3.1722,-3.0698,-2.9678,-2.8746,-2.9782,-3.0525,-3.0551,-2.8941,-2.8873,-3.1071,-2.916,-2.7932,-2.7936,-2.8185,-2.8373,-2.8482,-2.8482,-2.8482,-2.8482,-2.8482,-2.8482,-2.85,-2.8843,-2.8997,1.5676,1.5985,1.645,1.6642,1.7133,1.7624,1.7986,0.0,0.0,0.0,0.0,2.4294,2.5815,2.7134,2.8404,2.9599,3.0553,3.1326,3.167,3.1625,3.1404,3.1089,2.8345,2.6671,2.7178,2.3451,2.0825,2.0342,1.5739,1.2423,1.1234,0.7649,0.462,0.2435,-0.1308,-0.4916,-0.8528,-1.1842,-1.4262,-1.5935,-1.8035,-1.9184,-1.9546,-2.1295,-2.2431,-2.3084,-2.3186,-2.3576,-2.4142,-2.421,-2.4307,-2.4536,-2.5884,-2.6232,-2.6104,-2.6905,-2.6987,-2.6758,-2.7083,-2.7409,-2.7725,-2.7725,-2.7725,-2.7725,-2.7725,-2.7813,-2.7941,-2.829,-2.8937,-2.9629,-3.0079,-3.0532,-3.0912,-3.102,-3.1283,-3.1494,-3.1494,-3.2007,-3.2484,-3.2484,-3.2484,-3.2519,-3.2576,-3.2454,-3.2419,-3.2474,-3.2073,-3.1543,-3.0871,-3.0302,-2.9272,-2.7565,-2.7398,-2.7368,-2.7394,-2.6971,-2.8421,-3.2457,-2.8918,-2.6754,-2.6823,-2.7412,-2.7798,-2.7897,-2.7897,-2.7897,-2.7897,-2.7897,-2.7897,-2.7915,-2.8647,-2.9001,1.7139,1.79,1.8336,1.7816,1.8895,2.0062,2.0152,2.0811,0.0,0.0,2.4253,2.5378,2.8265,2.9431,3.0408,3.1703,3.3034,3.3751,3.3255,3.3105,3.237,3.0558,2.8526,2.7049,2.6527,2.3482,2.0914,1.9297,1.6238,1.3101,0.9992,0.7785,0.6046,0.4889,0.0371,-0.376,-0.7325,-0.9778,-1.1877,-1.3551,-1.5203,-1.683,-1.8391,-1.9586,-2.0505,-2.1245,-2.1744,-2.2363,-2.2995,-2.3462,-2.3945,-2.4496,-2.5619,-2.6068,-2.6068,-2.6607,-2.6758,-2.6725,-2.6791,-2.6841,-2.6873,-2.6873,-2.6873,-2.6873,-2.6873,-2.7317,-2.7896,-2.8288,-2.8732,-2.926,-3.0012,-3.0711,-3.1395,-3.2069,-3.2284,-3.2307,-3.2307,-3.2396,-3.2484,-3.2484,-3.2484,-3.2595,-3.2892,-3.2367,-3.2014,-3.2303,-3.1759,-3.1257,-3.1138,-3.1006,-3.084,-3.0534,-3.0512,-3.052,-3.0504,-2.8149,-2.7005,-2.7737,-2.7105,-2.6914,-2.7379,-2.8276,-2.8488,-2.7915,-2.7897,-2.7897,-2.7897,-2.7897,-2.7897,-2.7915,-2.8647,-2.9001,1.7666,1.937,2.0778,2.0439,2.0983,2.1736,2.215,2.2997,2.4074,2.5372,2.6184,2.7214,2.9,3.025,3.1531,3.3327,3.3773,3.3676,3.2937,3.2479,3.1678,3.0306,2.8176,2.6816,2.688,2.3243,2.0292,1.8986,1.567,1.2634,1.0215,0.8005,0.6298,0.5172,0.1281,-0.2775,-0.6798,-0.8282,-1.0268,-1.2807,-1.4729,-1.6405,-1.7843,-1.8742,-1.9748,-2.0845,-2.1424,-2.21,-2.274,-2.3333,-2.3721,-2.4032,-2.4831,-2.5144,-2.5221,-2.6016,-2.647,-2.6691,-2.6691,-2.6962,-2.7232,-2.6826,-2.6962,-2.73,-2.73,-2.7554,-2.7944,-2.8561,-2.9281,-3.0042,-3.0635,-3.119,-3.1655,-3.2039,-3.195,-3.1787,-3.1787,-3.1787,-3.1908,-3.2305,-3.2063,-3.2093,-3.3066,-3.2581,-3.211,-3.2263,-3.1985,-3.1647,-3.1241,-3.1201,-3.1189,-3.1189,-3.1181,-3.121,-3.1199,-2.9922,-2.8431,-2.6801,-2.8252,-2.9006,-2.8713,-2.8884,-2.8641,-2.7863,-2.7863,-2.7656,-2.7241,-2.7241,-2.7448,-2.7863,-2.8641,-2.9195,1.8409,2.0335,2.2315,2.2753,0.0,2.3377,2.4268,2.5315,2.6338,2.7354,2.8443,2.9312,2.9705,3.0833,3.2298,3.4058,3.3905,3.3403,3.2855,3.2002,3.1134,3.0236,2.8106,2.6776,2.6888,2.3131,2.0106,1.877,1.5352,1.2489,1.0624,0.8317,0.6383,0.4852,0.1667,-0.2113,-0.6577,-0.7393,-0.921,-1.1979,-1.4063,-1.5766,-1.709,-1.7809,-1.8998,-2.0584,-2.0917,-2.1505,-2.2314,-2.2905,-2.3275,-2.3465,-2.4142,-2.4552,-2.4855,-2.5689,-2.6297,-2.6708,-2.6741,-2.7108,-2.7494,-2.6924,-2.7242,-2.7866,-2.7805,-2.8026,-2.8448,-2.8895,-2.9907,-3.0854,-3.0974,-3.1341,-3.166,-3.166,-3.1547,-3.1444,-3.1444,-3.1579,-3.1884,-3.2442,-3.2087,-3.207,-3.322,-3.2933,-3.2544,-3.2544,-3.2544,-3.2341,-3.1782,-3.1562,-3.1393,-3.1235,-3.1185,-3.1179,-3.1198,-3.1198,-3.0222,-2.7904,-2.9929,-3.0859,-3.0094,-2.9522,-2.889,-2.8112,-2.8095,-2.7807,-2.7232,-2.7232,-2.752,-2.8112,-2.889,-2.955,2.0017,2.0803,2.1729,2.3533,2.4503,2.5385,2.6805,2.7557,2.8543,3.0381,3.1202,3.1446,3.121,3.1859,3.2721,3.3547,3.3958,3.4157,3.4151,3.3034,3.1715,3.0326,2.8942,2.7371,2.5625,2.3541,2.1133,1.8202,1.6177,1.3753,1.0586,0.8618,0.6622,0.4588,0.1557,-0.2104,-0.6579,-0.7605,-0.8709,-1.0038,-1.1817,-1.3654,-1.5493,-1.6092,-1.7659,-1.9825,-1.9384,-1.9832,-2.0979,-2.1568,-2.2193,-2.2875,-2.396,-2.5012,-2.5888,-2.5961,-2.6297,-2.6725,-2.6829,-2.6907,-2.6939,-2.689,-2.7421,-2.8053,-2.7849,-2.8822,-2.9825,-2.9324,-3.0129,-3.1014,-3.0353,-3.0709,-3.1252,-3.1252,-3.1738,-3.2205,-3.2205,-3.2747,-3.3271,-3.3322,-3.3288,-3.3288,-3.3389,-3.3372,-3.3322,-3.3322,-3.3322,-3.3305,-3.3254,-3.2628,-3.1962,-3.1254,-3.1213,-3.119,-3.1213,-3.1213,-3.1106,-3.0898,-3.1074,-3.1155,-3.1103,-3.0387,-2.9668,-2.8924,-2.889,-2.8873,-2.8822,-2.8822,-2.8876,-2.8924,-2.9685,-3.0057,2.0193,2.1591,2.3125,2.405,2.5397,0.0,2.7998,2.89,2.978,3.0976,3.1758,3.2191,3.2029,3.2627,3.3246,3.3494,3.4093,3.4386,3.3917,3.2803,3.1644,3.0636,2.8439,2.6559,2.5487,2.2725,2.0034,1.7696,1.5114,1.257,1.0127,0.809,0.6642,0.5817,0.2044,-0.2146,-0.6554,-0.7194,-0.8068,-0.9218,-1.1603,-1.3543,-1.5052,-1.5869,-1.7282,-1.9113,-1.9457,-2.0074,-2.0845,-2.1424,-2.1852,-2.2146,-2.301,-2.4261,-2.5615,-2.5615,-2.6206,-2.702,-2.7058,-2.7388,-2.7679,-2.7259,-2.7582,-2.8197,-2.8127,-2.8519,-2.9099,-2.9708,-3.0261,-3.0592,-3.0285,-3.0717,-3.1309,-3.1765,-3.2087,-3.2408,-3.2882,-3.3203,-3.3541,-3.3998,-3.3711,-3.3694,-3.4624,-3.4404,-3.4083,-3.4083,-3.4083,-3.3914,-3.3457,-3.3169,-3.2773,-3.2185,-3.2131,-3.1867,-3.1234,-3.1219,-3.119,-3.119,-3.1218,-3.1206,-3.1206,-3.0925,-3.0637,-3.0343,-2.9929,-2.9448,-2.9011,-2.9011,-2.9228,-2.9685,-2.9973,-3.0362,2.0601,2.2295,2.4045,2.4501,0.0,0.0,2.8771,2.9748,3.0612,3.1346,3.1635,3.1923,3.2375,3.2894,3.3251,3.3219,3.3764,3.3912,3.3031,3.1882,3.0784,2.9903,2.7694,2.5773,2.4545,2.1934,1.9344,1.7086,1.466,1.2264,1.0037,0.8215,0.7063,0.6629,0.2323,-0.1929,-0.5887,-0.6473,-0.7404,-0.8622,-1.095,-1.2978,-1.475,-1.5209,-1.6768,-1.9049,-1.9106,-1.9662,-2.0547,-2.1148,-2.1663,-2.2053,-2.2498,-2.3792,-2.5416,-2.5416,-2.6036,-2.693,-2.7205,-2.7462,-2.7664,-2.734,-2.7762,-2.8373,-2.8327,-2.8451,-2.8782,-2.9544,-2.9848,-3.0044,-3.0036,-3.0766,-3.1664,-3.2195,-3.2645,-3.3119,-3.3643,-3.3931,-3.4192,-3.4488,-3.4141,-3.4019,-3.4838,-3.4542,-3.421,-3.421,-3.421,-3.4118,-3.3829,-3.356,-3.3242,-3.2644,-3.2605,-3.2244,-3.1285,-3.1191,-3.1197,-3.1197,-3.1211,-3.1207,-3.119,-3.119,-3.1218,-3.1215,-3.0726,-3.0192,-2.9668,-2.9668,-2.9939,-3.0446,-3.0446,-3.0717,2.1507,2.2779,2.4197,2.4945,2.6206,2.7694,2.924,3.027,3.1073,3.1743,3.0992,3.0687,3.2284,3.2596,3.2596,3.2596,3.292,3.2757,3.1564,3.0307,2.9076,2.7927,2.6783,2.5085,2.2619,2.1317,1.9403,1.6323,1.51,1.3301,1.0532,0.9272,0.8009,0.6629,0.2272,-0.1438,-0.4443,-0.551,-0.6749,-0.8217,-0.9542,-1.1646,-1.4262,-1.3952,-1.6007,-1.9684,-1.8043,-1.8227,-1.985,-2.051,-2.1561,-2.2694,-2.2694,-2.3792,-2.5358,-2.5358,-2.5738,-2.6316,-2.7083,-2.6948,-2.65,-2.718,-2.7906,-2.8482,-2.8338,-2.8802,-2.9271,-2.8654,-2.8919,-2.9384,-2.9495,-3.0904,-3.229,-3.229,-3.3423,-3.4489,-3.4506,-3.5053,-3.5362,-3.4736,-3.4576,-3.4382,-3.3735,-3.3582,-3.3582,-3.3582,-3.3582,-3.3836,-3.4528,-3.3966,-3.3228,-3.2475,-3.2393,-3.2131,-3.1358,-3.1261,-3.1227,-3.1227,-3.1212,-3.1191,-3.1224,-3.119,-3.119,-3.119,-3.119,-3.119,-3.119,-3.119,-3.119,-3.119,-3.119,-3.119,2.2608,2.357,2.4706,2.625,2.7201,2.7995,2.8961,2.9826,3.0611,3.1389,3.0833,3.0356,3.0815,3.1366,3.1568,3.0999,3.1283,3.147,3.1103,2.9311,2.7794,2.7163,2.5258,2.3075,2.0779,1.9586,1.7847,1.5237,1.3469,1.1578,0.9323,0.7943,0.6095,0.3569,0.1218,-0.1436,-0.4443,-0.5266,-0.6404,-0.7841,-0.9221,-1.0812,-1.2652,-1.372,-1.5548,-1.7856,-1.7745,-1.8505,-1.9811,-2.0003,-2.0597,-2.1369,-2.1369,-2.2241,-2.354,-2.4036,-2.4608,-2.5239,-2.5907,-2.6285,-2.6542,-2.6786,-2.73,-2.7864,-2.7847,-2.7972,-2.8174,-2.8415,-2.8654,-2.8983,-2.9911,-3.0939,-3.1873,-3.2331,-3.2787,-3.3226,-3.3763,-3.4039,-3.4137,-3.3937,-3.3887,-3.3836,-3.3633,-3.3582,-3.3582,-3.3582,-3.3582,-3.3684,-3.3887,-3.3709,-3.3499,-3.324,-3.2789,-3.2401,-3.2189,-3.166,-3.1297,-3.1186,-3.1185,-3.1226,-3.1208,-3.0356,-3.034,-3.1191,-3.0767,-3.0797,-3.119,-3.119,-3.119,-3.119,-3.119,-3.119,2.3156,2.4127,2.5303,2.6754,2.7715,2.8456,2.8905,2.936,2.9953,3.076,3.0283,2.9824,3.0136,3.0338,3.0149,2.9186,2.9286,2.9206,2.8426,2.7098,2.6011,2.5447,2.3471,2.1447,1.9683,1.8031,1.6211,1.4049,1.2292,1.0428,0.8365,0.7026,0.532,0.3186,0.0721,-0.1826,-0.4463,-0.4897,-0.5914,-0.7488,-0.8402,-0.9705,-1.1351,-1.3195,-1.5005,-1.666,-1.7769,-1.857,-1.9179,-1.9608,-2.0207,-2.0795,-2.0795,-2.1587,-2.2797,-2.344,-2.3985,-2.4442,-2.5322,-2.5689,-2.5899,-2.6422,-2.6856,-2.723,-2.755,-2.7625,-2.7675,-2.8042,-2.814,-2.8391,-2.9446,-3.0214,-3.1036,-3.2199,-3.2716,-3.3086,-3.3502,-3.3582,-3.3547,-3.3235,-3.3182,-3.313,-3.2826,-3.2772,-3.2772,-3.2772,-3.3039,-3.3182,-3.3182,-3.3443,-3.3495,-3.3235,-3.2819,-3.2426,-3.2126,-3.1691,-3.1193,-3.0602,-3.0069,-2.975,-2.9785,-2.9064,-2.9179,-3.0234,-3.006,-3.0251,-3.0838,-3.0838,-3.0975,-3.119,-3.119,-3.136,2.3604,2.4721,2.593,2.6792,2.8026,2.8994,2.8994,2.8994,2.9195,2.9953,2.9457,2.9127,2.9861,2.9305,2.8406,2.7369,2.7103,2.6427,2.4645,2.4282,2.3877,2.3063,2.1528,2.0038,1.8794,1.66,1.4496,1.2744,1.1306,0.9621,0.76,0.6484,0.5437,0.4553,0.0666,-0.2393,-0.4497,-0.4473,-0.5361,-0.7054,-0.741,-0.8491,-1.0216,-1.2428,-1.4304,-1.602,-1.7797,-1.8386,-1.8205,-1.9205,-2.0054,-2.0696,-2.0644,-2.1358,-2.2517,-2.3212,-2.345,-2.363,-2.4808,-2.4938,-2.473,-2.5998,-2.6494,-2.6722,-2.743,-2.7625,-2.7625,-2.7625,-2.7625,-2.779,-2.8487,-2.9086,-2.9962,-3.188,-3.2883,-3.3427,-3.3427,-3.3427,-3.3235,-3.2641,-3.2492,-3.2272,-3.164,-3.1482,-3.1482,-3.1482,-3.2064,-3.2492,-3.2492,-3.3039,-3.3182,-3.2586,-3.2492,-3.2231,-3.1582,-3.1525,-3.0998,-2.9872,-2.861,-2.784,-2.761,-2.772,-2.8105,-2.8865,-2.9319,-2.979,-3.0307,-3.0349,-3.0676,-3.1196,-3.1292,-3.1681,2.6145,2.6498,2.6863,2.8197,2.8777,2.8994,2.8994,2.8994,2.9049,2.9237,2.8631,2.8117,2.8282,2.7424,2.6644,2.6392,2.5606,2.4878,2.4458,2.3368,2.2258,2.1362,1.9931,1.8299,1.6429,1.4868,1.3242,1.1388,0.9944,0.8449,0.6913,0.6013,0.5226,0.4494,0.1385,-0.1663,-0.4497,-0.4473,-0.5246,-0.6713,-0.7326,-0.8137,-0.9217,-1.1618,-1.3688,-1.5467,-1.6931,-1.7781,-1.8145,-1.8412,-1.9144,-1.9965,-1.9547,-1.9799,-2.0514,-2.1166,-2.1412,-2.1524,-2.2295,-2.3126,-2.401,-2.4844,-2.58,-2.6722,-2.743,-2.7625,-2.7625,-2.7625,-2.7625,-2.791,-2.9056,-2.9086,-2.9139,-3.0591,-3.1435,-3.1936,-3.1936,-3.1936,-3.1894,-3.1739,-3.1754,-3.1697,-3.1524,-3.1482,-3.1482,-3.1482,-3.164,-3.1754,-3.1754,-3.1838,-3.1894,-3.1739,-3.1754,-3.1682,-3.1524,-3.152,-3.1384,-3.1122,-3.0815,-2.9742,-2.7664,-2.8591,-2.9254,-2.9417,-2.9962,-3.0305,-3.036,-3.0871,-3.1193,-3.1347,-3.1857,-3.2442,2.6594,2.6898,2.7345,2.868,2.8994,2.8994,2.8994,2.8994,2.8994,2.8994,2.8356,2.7504,2.6567,2.5941,2.5236,2.4335,2.3695,2.3123,2.2505,2.1563,2.0619,1.9923,1.8475,1.6896,1.5168,1.36,1.1893,0.9936,0.8835,0.7576,0.6176,0.5697,0.5175,0.4494,0.1551,-0.1441,-0.4497,-0.4473,-0.5226,-0.6588,-0.6945,-0.7853,-0.9323,-1.1157,-1.2902,-1.4481,-1.5752,-1.6316,-1.6489,-1.74,-1.8118,-1.8609,-1.8921,-1.9196,-1.951,-2.0455,-2.0795,-2.0894,-2.1472,-2.2155,-2.2985,-2.4264,-2.491,-2.5473,-2.711,-2.7357,-2.7152,-2.7509,-2.7625,-2.779,-2.8442,-2.8607,-2.8771,-2.943,-3.0328,-3.1046,-3.1046,-3.1243,-3.1482,-3.1482,-3.1482,-3.1482,-3.1482,-3.1482,-3.1482,-3.1482,-3.1482,-3.1482,-3.1482,-3.1482,-3.1482,-3.1482,-3.1482,-3.1482,-3.1482,-3.1504,-3.1471,-3.1471,-3.1496,-3.0913,-2.9516,-3.1402,-3.184,-3.059,-3.0856,-3.1133,-3.1424,-3.1696,-3.2023,-3.2343,-3.2673,-3.322,2.6643,2.7121,2.7822,2.8764,2.8994,2.8994,2.8994,2.8952,2.8868,2.8722,2.8091,2.7076,2.5403,2.4843,2.407,2.2375,2.1995,2.1529,2.0467,1.9834,1.9295,1.8803,1.7274,1.5811,1.4677,1.2724,1.0747,0.8822,0.7966,0.6853,0.5433,0.5324,0.5069,0.4494,0.172,-0.1274,-0.4494,-0.4477,-0.5226,-0.6588,-0.6858,-0.7972,-0.9821,-1.0926,-1.206,-1.3246,-1.444,-1.4824,-1.4729,-1.6224,-1.7014,-1.7363,-1.8228,-1.8696,-1.8994,-2.0073,-2.0515,-2.0565,-2.1156,-2.1472,-2.1842,-2.3631,-2.3949,-2.4002,-2.6338,-2.6776,-2.6616,-2.7255,-2.7509,-2.7619,-2.791,-2.8173,-2.8487,-2.8712,-2.949,-3.0238,-3.0447,-3.0956,-3.1332,-3.1452,-3.1482,-3.1482,-3.1482,-3.1482,-3.1482,-3.1482,-3.1482,-3.1482,-3.1482,-3.1482,-3.1482,-3.1482,-3.1571,-3.1646,-3.1646,-3.1646,-3.1616,-3.1498,-3.1501,-3.1475,-3.1496,-3.3707,-3.4085,-3.2321,-3.208,-3.2255,-3.2784,-3.2809,-3.3045,-3.3448,-3.355,-3.3998,2.8537,2.8693,2.8824,2.8957,2.8994,2.8994,2.8994,2.8725,2.8272,2.7567,2.7073,2.6582,2.6041,2.4556,2.3151,2.2235,2.1562,2.0943,2.0382,1.9564,1.8803,1.8263,1.6667,1.5384,1.4721,1.2406,1.0316,0.8833,0.7463,0.615,0.4736,0.4625,0.4581,0.4494,0.2393,-0.0555,-0.4438,-0.4484,-0.5183,-0.6588,-0.7889,-0.8942,-0.9814,-1.0565,-1.1293,-1.2104,-1.3435,-1.4243,-1.4627,-1.4904,-1.5927,-1.7242,-1.6883,-1.7372,-1.838,-1.903,-1.9232,-1.9345,-1.9889,-2.0434,-2.105,-2.1904,-2.2842,-2.3778,-2.464,-2.5668,-2.651,-2.6616,-2.71,-2.7895,-2.9011,-2.8517,-2.8008,-2.9175,-2.9146,-2.916,-3.0268,-3.0567,-3.0821,-3.1362,-3.1482,-3.1482,-3.1482,-3.1482,-3.1482,-3.1482,-3.1482,-3.1482,-3.1482,-3.1482,-3.1482,-3.1482,-3.2048,-3.2377,-3.2377,-3.2377,-3.2124,-3.1545,-3.1513,-3.1513,-3.1479,-3.1835,-3.2986,-3.5031,-3.3915,-3.3579,-3.4056,-3.4049,-3.3889,-3.3603,-3.4101,-3.4759,2.8777,2.8994,2.8952,2.8725,2.8839,2.8929,2.8725,2.854,2.8286,2.7969,2.688,2.5751,2.502,2.3606,2.2354,2.1606,2.0991,2.0333,1.96,1.8593,1.7773,1.7218,1.5304,1.3721,1.307,1.1332,0.9467,0.7664,0.6945,0.5991,0.457,0.4519,0.4473,0.4497,0.2561,-0.0,-0.3188,-0.4086,-0.5183,-0.6588,-0.767,-0.858,-0.9263,-0.9909,-1.0813,-1.1864,-1.288,-1.3446,-1.3705,-1.4052,-1.4862,-1.5881,-1.6255,-1.6959,-1.7852,-1.8706,-1.8983,-1.9058,-1.9623,-2.0003,-2.0398,-2.1468,-2.2062,-2.2697,-2.4066,-2.5171,-2.596,-2.6404,-2.7313,-2.8188,-2.8397,-2.8308,-2.8203,-2.8412,-2.8532,-2.8861,-2.9789,-3.0253,-3.0717,-3.1405,-3.1482,-3.1482,-3.1482,-3.1482,-3.1482,-3.1482,-3.1482,-3.1482,-3.1482,-3.1482,-3.1482,-3.1482,-3.2123,-3.2362,-3.2003,-3.2362,-3.2347,-3.1574,-3.1483,-3.1492,-3.1509,-3.1515,-3.2044,-3.325,-3.4244,-3.4594,-3.4311,-3.4316,-3.4244,-3.4162,-3.4067,-3.4595,2.8764,2.8994,2.8887,2.8496,2.8633,2.8749,2.8368,2.8192,2.8112,2.8112,2.6506,2.4847,2.4036,2.2915,2.184,2.0975,2.0449,1.9849,1.9043,1.7799,1.6806,1.62,1.4174,1.2512,1.1751,1.0543,0.8967,0.7004,0.6691,0.5991,0.457,0.4519,0.4525,0.449,0.2674,0.05,-0.2004,-0.3846,-0.5399,-0.6588,-0.7348,-0.8103,-0.8804,-0.951,-1.0364,-1.1366,-1.2246,-1.2608,-1.2657,-1.3314,-1.4014,-1.4777,-1.5661,-1.6469,-1.73,-1.8405,-1.8819,-1.892,-1.9572,-1.9798,-1.9964,-2.0991,-2.1375,-2.1779,-2.3298,-2.4505,-2.5508,-2.6068,-2.736,-2.8487,-2.7964,-2.8218,-2.8472,-2.7949,-2.8233,-2.8831,-2.9639,-3.0313,-3.0911,-3.1377,-3.1482,-3.1482,-3.1482,-3.1482,-3.1482,-3.1482,-3.1482,-3.1541,-3.1706,-3.1779,-3.1795,-3.2018,-3.2467,-3.2557,-3.2078,-3.2466,-3.2466,-3.1869,-3.1644,-3.1482,-3.1482,-3.152,-3.149,-3.149,-3.3495,-3.4577,-3.4623,-3.4283,-3.4275,-3.4521,-3.4219,-3.4657,2.8975,2.8994,2.8887,2.8496,2.842,2.8342,2.7992,2.7619,2.7348,2.7348,2.5552,2.3983,2.3918,2.2919,2.172,2.0518,1.9939,1.9477,1.8954,1.7491,1.62,1.5516,1.3864,1.2512,1.1751,1.0543,0.9162,0.7659,0.6945,0.5991,0.457,0.4519,0.4522,0.448,0.2956,0.0945,-0.1498,-0.4152,-0.5819,-0.6588,-0.7348,-0.8103,-0.8804,-0.951,-0.9814,-0.9961,-1.1266,-1.1864,-1.1922,-1.2657,-1.3658,-1.4709,-1.4777,-1.5513,-1.6697,-1.7827,-1.8242,-1.8392,-1.9447,-1.9798,-1.9811,-1.9888,-2.0643,-2.1493,-2.163,-2.3424,-2.5398,-2.5453,-2.6957,-2.8592,-2.8562,-2.8577,-2.8592,-2.8562,-2.8577,-2.8936,-3.0178,-3.1001,-3.1437,-3.1467,-3.1482,-3.1482,-3.1482,-3.1482,-3.1482,-3.1482,-3.1482,-3.1764,-3.2377,-3.2467,-3.2706,-3.332,-3.3425,-3.3425,-3.3395,-3.2856,-3.2557,-3.2736,-3.1943,-3.1482,-3.1482,-3.1509,-3.1495,-3.1495,-3.1637,-3.2961,-3.5527,-3.4276,-3.3884,-3.4354,-3.5138,-3.5515,2.9062,2.8994,2.8887,2.8496,2.8048,2.7738,2.7857,2.6865,2.6155,2.7095,2.5099,2.321,2.3403,2.2069,2.0717,1.9974,1.9456,1.8736,1.7491,1.6469,1.5304,1.3921,1.2435,1.1249,1.0543,0.9658,0.8567,0.7052,0.674,0.5991,0.457,0.4519,0.4525,0.449,0.3981,0.1392,-0.3352,-0.4401,-0.5441,-0.6588,-0.6858,-0.7616,-0.8811,-0.9061,-0.9159,-0.9211,-1.0568,-1.1416,-1.1864,-1.2608,-1.3382,-1.4143,-1.456,-1.5197,-1.6098,-1.7638,-1.8204,-1.8355,-1.9434,-1.9798,-1.9861,-2.0238,-2.0878,-2.1556,-2.1907,-2.3589,-2.5398,-2.5398,-2.7259,-2.9131,-2.8712,-2.9205,-2.9819,-2.9819,-2.952,-2.9579,-3.0881,-3.1302,-3.1482,-3.1482,-3.1482,-3.1482,-3.1482,-3.1884,-3.2153,-3.2153,-3.2153,-3.2392,-3.3066,-3.2781,-3.2602,-3.2841,-3.3245,-3.3155,-3.2302,-3.2407,-3.2347,-3.1973,-3.1689,-3.1482,-3.1482,-3.1482,-3.1498,-3.1501,-3.1475,-3.2835,-3.5582,-3.5114,-3.4381,-3.3422,-3.4349,-3.4855,2.9185,2.9067,2.8808,2.8044,2.7774,2.7507,2.6905,2.6289,2.5905,2.6113,2.4394,2.2817,2.2668,2.1109,1.9743,1.9405,1.8797,1.7892,1.6591,1.5372,1.4082,1.2599,1.1249,1.0218,0.9517,0.9061,0.8209,0.6696,0.6588,0.5991,0.4577,0.4519,0.4245,0.3755,0.3752,0.1058,-0.4438,-0.4477,-0.5066,-0.6258,-0.6475,-0.7235,-0.8427,-0.8699,-0.8804,-0.8857,-1.0218,-1.1065,-1.1516,-1.251,-1.3238,-1.3862,-1.4468,-1.505,-1.5808,-1.7533,-1.8204,-1.8355,-1.9434,-1.9798,-1.9899,-2.0476,-2.1041,-2.1594,-2.2146,-2.3747,-2.5439,-2.5646,-2.7576,-2.949,-2.9041,-2.9564,-3.0253,-3.0447,-3.0193,-3.0193,-3.13,-3.1482,-3.1482,-3.1482,-3.1482,-3.1541,-3.1824,-3.2033,-3.2258,-3.2482,-3.2512,-3.2751,-3.341,-3.3305,-3.326,-3.3499,-3.3694,-3.3469,-3.2602,-3.2721,-3.2557,-3.196,-3.1633,-3.1707,-3.2183,-3.1737,-3.1501,-3.1529,-3.237,-3.3295,-3.4213,-3.4217,-3.4094,-3.3794,-3.4167,-3.4692,0.0,0.0,0.0,2.7219,2.7611,2.7683,2.5167,2.5939,2.6585,2.4381,2.3518,2.2828,2.1702,2.0079,1.8893,1.8893,1.7932,1.6972,1.6421,1.4277,1.2512,1.1751,1.0543,0.951,0.8857,0.8752,0.8156,0.6696,0.6588,0.5941,0.4588,0.4525,0.3793,0.2287,0.2174,0.0056,-0.4324,-0.4428,-0.4853,-0.5483,-0.6204,-0.6966,-0.7723,-0.848,-0.8804,-0.8857,-1.0218,-1.0762,-1.0914,-1.2314,-1.3238,-1.3826,-1.4468,-1.505,-1.5808,-1.7533,-1.8204,-1.8355,-1.9434,-1.9798,-1.9899,-2.0476,-2.1041,-2.1594,-2.2146,-2.3747,-2.5522,-2.6173,-2.7878,-2.9564,-2.9594,-2.9594,-2.9744,-3.0387,-3.0507,-3.0687,-3.139,-3.1482,-3.1482,-3.1482,-3.1497,-3.1764,-3.2407,-3.2018,-3.1839,-3.2482,-3.2572,-3.2811,-3.3469,-3.4098,-3.4726,-3.54,-3.4876,-3.4472,-3.4442,-3.3858,-3.3304,-3.2867,-3.2034,-3.2123,-3.3363,-3.2183,-3.1543,-3.1608,-3.4181,-3.4285,-3.1728,-3.164,-3.3015,-3.5642,-3.4781,-3.5278,2.9684,0.0,0.0,0.0,0.0,0.0,2.6645,2.5887,2.5164,2.478,2.3453,2.2237,2.1608,2.0079,1.8765,1.838,1.7369,1.628,1.5309,1.381,1.2376,1.1199,1.0312,0.9347,0.8096,0.7996,0.7391,0.5923,0.5814,0.5441,0.4522,0.448,0.432,0.3878,0.1732,0.0,-0.1228,-0.3416,-0.4584,-0.4761,-0.5688,-0.6671,-0.7723,-0.848,-0.8804,-0.8857,-0.9718,-1.0364,-1.0914,-1.2314,-1.3017,-1.3238,-1.4294,-1.4789,-1.5234,-1.7392,-1.8204,-1.8355,-1.9434,-1.9798,-1.9899,-2.0476,-2.1041,-2.1594,-2.2146,-2.3747,-2.5328,-2.4997,-2.6428,-2.8269,-2.9229,-2.9112,-2.9166,-3.0857,-3.0866,-3.0687,-3.139,-3.1482,-3.1482,-3.1482,-3.1913,-3.2302,-3.2482,-3.3155,-3.3724,-3.3903,-3.3933,-3.4188,-3.4861,-3.4681,-3.4547,-3.4741,-3.4592,-3.4277,-3.3799,-3.3302,-3.2926,-3.2791,-3.2883,-3.2703,-3.2056,-3.1716,-3.239,-3.4333,-3.5087,-3.6211,-3.7697,-3.5529,-3.5419,-3.723,-3.6456,-3.6918,2.9305,2.9478,2.9215,2.8352,0.0,0.0,2.6016,2.5545,2.5099,2.3849,2.2802,2.1818,2.0859,1.9523,1.8327,1.7518,1.62,1.5027,1.4389,1.2956,1.1548,1.0517,0.9814,0.8935,0.783,0.7723,0.7069,0.5592,0.5487,0.5218,0.4519,0.3294,0.2912,0.3535,0.123,0.0,0.0,-0.1732,-0.3067,-0.3883,-0.5245,-0.6396,-0.7289,-0.8321,-0.8804,-0.8857,-0.9517,-1.0167,-1.0864,-1.199,-1.2608,-1.3017,-1.4247,-1.4698,-1.4983,-1.7088,-1.8003,-1.8329,-1.9183,-1.9623,-1.9899,-2.0476,-2.0932,-2.1255,-2.1794,-2.3392,-2.4943,-2.4486,-2.6048,-2.8163,-2.9505,-2.9547,-2.966,-3.1155,-3.1225,-3.1046,-3.145,-3.1482,-3.1482,-3.1482,-3.2063,-3.2602,-3.2886,-3.3559,-3.4158,-3.4442,-3.4472,-3.4607,-3.4902,-3.4951,-3.4906,-3.4906,-3.4906,-3.4756,-3.4367,-3.4062,-3.391,-3.391,-3.419,-3.3993,-3.3166,-3.3158,-3.3892,-3.549,-3.6758,-3.8113,-3.9457,-3.8117,-3.7713,-3.8153,-3.7853,-3.817,2.7906,2.8774,2.8742,2.7448,2.8181,0.0,2.4659,2.5288,2.5725,2.2538,2.2021,2.1623,1.9921,1.8697,1.7625,1.6485,1.4812,1.3611,1.3611,1.1917,1.0466,0.9865,0.9211,0.848,0.767,0.7563,0.6961,0.5487,0.5378,0.5109,0.4519,0.1949,0.1004,0.2174,0.0783,0.0,0.0,0.0,-0.1004,-0.2952,-0.4809,-0.6018,-0.6642,-0.8049,-0.8699,-0.8857,-0.9413,-1.0115,-1.0864,-1.1466,-1.2187,-1.3017,-1.4247,-1.4698,-1.4903,-1.6806,-1.779,-1.8292,-1.8894,-1.9409,-1.9886,-2.0401,-2.0668,-2.0806,-2.1255,-2.288,-2.4515,-2.4635,-2.63,-2.8409,-2.99,-3.0276,-3.047,-3.1287,-3.1482,-3.1482,-3.1482,-3.1482,-3.1482,-3.1482,-3.2123,-3.2811,-3.3395,-3.3619,-3.3918,-3.4502,-3.4592,-3.4562,-3.4379,-3.4991,-3.5504,-3.5504,-3.5504,-3.5504,-3.5504,-3.5504,-3.5504,-3.5504,-3.5522,-3.5525,-3.5529,-3.5804,-3.5983,-3.6012,-3.8702,-3.9666,-3.8761,-3.9664,-3.9613,-3.8642,-3.8969,-3.9106,2.3401,2.5519,2.6926,2.6687,2.735,0.0,2.6772,2.6059,2.5225,2.3972,2.3014,2.1834,1.995,1.8398,1.7015,1.5907,1.4173,1.3004,1.3004,1.124,0.9969,0.9814,0.9211,0.8262,0.6966,0.6804,0.6204,0.4787,0.4677,0.4629,0.4532,0.3968,0.3183,0.2232,0.0781,0.0,0.0,0.0,-0.0783,-0.2397,-0.3996,-0.5429,-0.6642,-0.7509,-0.8262,-0.8811,-0.8956,-0.9666,-1.0813,-1.0965,-1.1742,-1.3017,-1.4247,-1.4698,-1.4948,-1.7235,-1.8116,-1.8342,-1.9309,-1.971,-1.9823,-1.9936,-2.0288,-2.0743,-2.079,-2.255,-2.4743,-2.5762,-2.606,-2.6441,-2.8351,-2.881,-2.9229,-3.1053,-3.1482,-3.1482,-3.1482,-3.1482,-3.1482,-3.1482,-3.2497,-3.335,-3.3469,-3.4397,-3.516,-3.5295,-3.5295,-3.5295,-3.5265,-3.54,-3.5504,-3.5504,-3.5504,-3.5504,-3.5504,-3.5504,-3.5504,-3.5504,-3.5509,-3.5507,-3.5491,-3.7903,-3.9225,-3.9214,-3.9814,-4.0016,-3.98,-4.0001,-3.9678,-3.8952,-3.9563,-3.9868,1.7605,1.899,1.9501,2.027,2.2823,0.0,0.0,2.3847,2.4305,2.2359,2.0792,1.9092,1.702,1.5806,1.4567,1.2978,1.197,1.1124,1.0454,0.9747,0.9117,0.8771,0.8143,0.7283,0.6145,0.6036,0.5601,0.457,0.4519,0.4519,0.4525,0.4477,0.4141,0.335,0.2627,0.1509,0.0,0.0,-0.0391,-0.1115,-0.339,-0.5101,-0.6293,-0.7283,-0.8103,-0.8804,-0.8804,-0.9361,-1.032,-1.0661,-1.1425,-1.2491,-1.4086,-1.4698,-1.4937,-1.7039,-1.7965,-1.8329,-1.9133,-1.9585,-1.9798,-1.9798,-2.0188,-2.0772,-2.1118,-2.2777,-2.4919,-2.6977,-2.7039,-2.6916,-2.8907,-2.9469,-2.9776,-3.117,-3.1482,-3.1482,-3.1482,-3.1482,-3.1482,-3.1482,-3.2602,-3.3499,-3.3499,-3.4322,-3.51,-3.5444,-3.5504,-3.5509,-3.5503,-3.5473,-3.5473,-3.5473,-3.5473,-3.5469,-3.5489,-3.5504,-3.5514,-3.5498,-3.5468,-3.6214,-3.7701,-3.9301,-4.0082,-4.0109,-4.0068,-4.007,-4.007,-4.0086,-3.99,-3.9546,-3.9918,-4.007,1.0634,1.1356,1.111,1.2219,1.5891,1.8597,0.0,0.0,0.0,1.667,1.481,1.3154,1.1751,1.1247,1.0516,0.8661,0.8453,0.809,0.6966,0.6986,0.7215,0.7537,0.7019,0.6327,0.5648,0.5464,0.5127,0.4522,0.4573,0.458,0.4522,0.4525,0.4477,0.4477,0.4487,0.3302,0.0893,0.0279,0.0,-0.0056,-0.2779,-0.4707,-0.595,-0.7004,-0.7996,-0.8811,-0.8956,-0.9361,-1.0064,-1.0712,-1.1416,-1.2169,-1.3982,-1.4698,-1.4914,-1.6855,-1.7827,-1.8292,-1.8945,-1.9447,-1.9798,-1.9798,-2.0188,-2.0891,-2.1902,-2.3278,-2.5068,-2.7661,-2.8089,-2.8104,-2.9848,-3.0417,-3.0672,-3.1317,-3.1482,-3.1482,-3.1482,-3.1482,-3.1482,-3.1482,-3.2497,-3.335,-3.3469,-3.4143,-3.4861,-3.5429,-3.5504,-3.5529,-3.5483,-3.5516,-3.5516,-3.5516,-3.5516,-3.551,-3.5474,-3.5759,-3.5928,-3.5922,-3.6213,-3.7528,-4.0001,-4.0123,-4.01,-4.0121,-4.0086,-4.007,-4.007,-4.007,-4.007,-4.007,-4.007,-4.007,0.1854,0.4202,0.5854,0.5675,0.6401,0.6926,0.6006,0.0,0.1732,0.3396,0.0,0.1783,0.324,0.0,0.0,0.3437,0.331,0.3229,0.2893,0.1973,0.2814,0.6688,0.6824,0.6389,0.5836,0.531,0.481,0.4536,0.4714,0.4748,0.4532,0.4519,0.4519,0.4519,0.4477,0.4314,0.3984,0.134,0.0,-0.0,-0.1672,-0.3657,-0.5896,-0.6465,-0.7509,-0.8857,-0.9413,-1.0064,-1.0762,-1.1416,-1.2138,-1.291,-1.4201,-1.4698,-1.4959,-1.7284,-1.8154,-1.8342,-1.9359,-1.9748,-1.9798,-1.9798,-2.0188,-2.1062,-2.2926,-2.3972,-2.497,-2.71,-2.8077,-2.8651,-2.9505,-3.0088,-3.0672,-3.1317,-3.1482,-3.1482,-3.1482,-3.1482,-3.1482,-3.1482,-3.2123,-3.2811,-3.3395,-3.4547,-3.5415,-3.5489,-3.5504,-3.5529,-3.5483,-3.5516,-3.5516,-3.5516,-3.5516,-3.551,-3.5474,-3.6767,-3.7514,-3.7513,-3.883,-3.9732,-4.0083,-4.0115,-4.0121,-4.0121,-4.0104,-4.007,-4.007,-4.007,-4.007,-4.007,-4.007,-4.007,-0.509,-0.4858,-0.4931,-0.4455,-0.2514,-0.1113,-0.2408,-0.2461,-0.2437,-0.3199,0.0,0.0,0.0,0.0,0.0,0.0,-0.3394,-0.245,-0.2776,-0.236,-0.0734,0.2774,0.3343,0.3909,0.4935,0.49,0.477,0.449,0.4631,0.4611,0.448,0.4519,0.4519,0.4519,0.4522,0.4477,0.4497,0.2347,-0.0056,-0.2635,-0.2347,-0.3828,-0.6761,-0.6647,-0.7396,-0.8857,-0.9517,-0.9961,-1.0312,-1.1366,-1.1972,-1.2433,-1.4039,-1.4698,-1.4879,-1.6537,-1.7609,-1.8317,-1.9083,-1.9547,-1.9911,-2.0564,-2.1548,-2.2748,-2.4228,-2.5431,-2.6586,-2.7809,-2.8652,-2.9325,-2.9953,-3.0612,-3.118,-3.1407,-3.1482,-3.1482,-3.1482,-3.1482,-3.1482,-3.1482,-3.2377,-3.317,-3.344,-3.4277,-3.504,-3.5444,-3.5504,-3.5529,-3.5483,-3.5516,-3.6197,-3.7948,-3.8164,-3.7791,-3.6892,-3.744,-3.8195,-3.908,-3.9721,-4.0091,-4.0083,-4.0087,-4.007,-4.007,-4.007,-4.007,-4.007,-4.007,-4.007,-4.007,-4.007,-4.007,-1.1159,-1.2423,-1.3882,-1.3287,-1.1336,-0.9998,-1.1626,-1.0519,-0.9768,-1.1887,-1.2723,0.0,0.0,0.0,-1.2025,-1.2853,0.0,-0.893,-0.8874,-0.7777,-0.5443,-0.1162,-0.013,0.1096,0.3277,0.3749,0.3869,0.3869,0.4417,0.466,0.4487,0.4522,0.4522,0.4519,0.4519,0.4473,0.449,0.2961,0.0167,-0.3878,-0.319,-0.4288,-0.696,-0.6712,-0.7289,-0.8533,-0.9607,-1.0064,-1.0167,-1.1525,-1.208,-1.2227,-1.3674,-1.4433,-1.4868,-1.6349,-1.7441,-1.8304,-1.8995,-1.9484,-1.9962,-2.0941,-2.2083,-2.3336,-2.4764,-2.6019,-2.7218,-2.8293,-2.9071,-2.9729,-3.0342,-3.1016,-3.1482,-3.1482,-3.1482,-3.1482,-3.1482,-3.1482,-3.1482,-3.1482,-3.2602,-3.3499,-3.3499,-3.4203,-3.4936,-3.5429,-3.5504,-3.5529,-3.5483,-3.5505,-3.6693,-3.979,-4.0092,-3.9515,-3.8162,-3.8084,-3.8649,-4.0021,-4.012,-4.007,-4.007,-4.007,-4.007,-4.007,-4.007,-4.007,-4.007,-4.007,-4.007,-4.007,-4.007,-4.007,-1.636,-1.7136,-1.8307,-1.91,-2.0085,-2.1211,-2.2498,-2.4375,-2.5823,-2.5798,-2.5856,-2.5712,-2.5113,-2.2742,-2.0767,-2.0505,-1.8372,0.0,0.0,-1.5172,-1.226,-0.4322,-0.2622,-0.1287,0.0798,0.1362,0.181,0.2219,0.4176,0.5088,0.4504,0.448,0.4473,0.4519,0.4519,0.4522,0.448,0.2959,0.0668,-0.2287,-0.3755,-0.4986,-0.5964,-0.6381,-0.702,-0.7824,-0.9894,-1.0771,-1.0872,-1.2304,-1.2871,-1.2881,-1.292,-1.3658,-1.4959,-1.7274,-1.8191,-1.8355,-1.9409,-1.9786,-1.9899,-2.0501,-2.1108,-2.1959,-2.3919,-2.4969,-2.5909,-2.8015,-2.9071,-2.9729,-3.0342,-3.1016,-3.1482,-3.1482,-3.1482,-3.1482,-3.1482,-3.1482,-3.1482,-3.1482,-3.2602,-3.3499,-3.3499,-3.4592,-3.5489,-3.5504,-3.5504,-3.5529,-3.5483,-3.5508,-3.6651,-3.9758,-4.0116,-3.9682,-3.8656,-3.8737,-3.9209,-4.0054,-4.0087,-4.007,-4.007,-4.007,-4.007,-4.007,-4.007,-4.007,-4.007,-4.007,-4.007,-4.007,-4.007,-4.007,-1.8867,-1.9825,-2.0664,-2.1389,-2.2865,-2.448,-2.5681,-2.6864,-2.8166,-2.9661,-2.9423,-2.9035,-2.9288,-2.7972,-2.6772,-2.6541,-2.4855,-2.3172,0.0,-1.9819,-1.645,-1.137,-0.7864,-0.5093,-0.3008,0.0277,0.2007,0.1417,0.2778,0.3621,0.3705,0.427,0.4616,0.4613,0.457,0.4522,0.448,0.3978,0.1893,-0.1778,-0.3638,-0.4923,-0.5664,-0.6317,-0.702,-0.7824,-0.9887,-1.0813,-1.0914,-1.2314,-1.2881,-1.2929,-1.3334,-1.4014,-1.4834,-1.5973,-1.7182,-1.8355,-1.9434,-1.9798,-1.9962,-2.0903,-2.2003,-2.3217,-2.4668,-2.6236,-2.7686,-2.8427,-2.937,-3.0238,-3.0447,-3.1016,-3.1482,-3.1482,-3.1482,-3.1482,-3.1482,-3.1482,-3.1482,-3.1482,-3.2602,-3.3499,-3.3499,-3.4622,-3.5504,-3.5504,-3.5504,-3.5474,-3.5499,-3.5525,-3.6321,-3.8381,-3.8559,-3.8451,-3.8088,-3.8606,-3.9032,-3.9315,-3.9782,-3.985,-3.9315,-3.9833,-4.007,-4.007,-4.007,-4.007,-4.007,-4.007,-4.007,-4.007,-4.007,-4.007,-2.0611,-2.1614,-2.2417,-2.2873,-2.4265,-2.5788,-2.6763,-2.7502,-2.8543,-3.0629,-3.0802,-3.0779,-3.1558,-3.1322,-3.0936,-3.0691,-2.9293,-2.7668,0.0,-2.3339,-2.037,-1.7377,-1.2738,-0.8781,-0.6097,-0.2635,-0.0206,0.0509,0.1289,0.2416,0.3957,0.4608,0.4876,0.4694,0.4596,0.4521,0.4473,0.4487,0.2674,-0.0997,-0.3352,-0.4702,-0.5164,-0.615,-0.6858,-0.7444,-0.9784,-1.0813,-1.0914,-1.2314,-1.3017,-1.3238,-1.342,-1.4097,-1.5097,-1.5879,-1.7279,-1.8869,-1.956,-1.9798,-1.9987,-2.1117,-2.2322,-2.3573,-2.497,-2.6569,-2.7906,-2.8181,-2.9175,-3.0178,-3.0178,-3.0851,-3.1482,-3.1482,-3.1482,-3.1482,-3.1482,-3.1482,-3.1541,-3.1839,-3.2766,-3.3574,-3.3799,-3.4771,-3.5504,-3.5504,-3.5504,-3.5504,-3.5504,-3.5533,-3.5869,-3.6878,-3.6982,-3.7188,-3.7748,-3.8262,-3.8525,-3.8525,-3.9262,-3.9437,-3.8908,-3.9662,-4.007,-4.007,-4.007,-4.007,-4.007,-4.007,-4.007,-4.007,-4.007,-4.007]}]]